<?xml version='1.0' encoding='UTF-8'?><gpx version="1.1" creator="JPX - https://github.com/jenetics/jpx" xmlns="http://www.topografix.com/GPX/1/1"><trk><trkseg><trkpt lat="45.653145" lon="9.57538"><ele>174.0</ele><time>2026-04-25T09:08:35.903Z</time></trkpt><trkpt lat="45.6531267" lon="9.5754967"><ele>174.0</ele><time>2026-04-25T09:08:38.902Z</time></trkpt><trkpt lat="45.65311" lon="9.57562"><ele>174.0</ele><time>2026-04-25T09:08:42.902Z</time></trkpt><trkpt lat="45.65309" lon="9.5757233"><ele>174.0</ele><time>2026-04-25T09:08:44.905Z</time></trkpt><trkpt lat="45.653055" lon="9.57586"><ele>174.0</ele><time>2026-04-25T09:08:46.902Z</time></trkpt><trkpt lat="45.6530117" lon="9.57601"><ele>174.0</ele><time>2026-04-25T09:08:48.902Z</time></trkpt><trkpt lat="45.6529683" lon="9.5761667"><ele>174.0</ele><time>2026-04-25T09:08:50.903Z</time></trkpt><trkpt lat="45.6529283" lon="9.5763217"><ele>174.0</ele><time>2026-04-25T09:08:52.902Z</time></trkpt><trkpt lat="45.6529067" lon="9.5764067"><ele>174.0</ele><time>2026-04-25T09:08:53.903Z</time></trkpt><trkpt lat="45.6528867" lon="9.5765"><ele>174.0</ele><time>2026-04-25T09:08:54.904Z</time></trkpt><trkpt lat="45.652865" lon="9.5765983"><ele>174.0</ele><time>2026-04-25T09:08:55.902Z</time></trkpt><trkpt lat="45.652845" lon="9.5766983"><ele>174.0</ele><time>2026-04-25T09:08:56.903Z</time></trkpt><trkpt lat="45.6528233" lon="9.5767983"><ele>174.0</ele><time>2026-04-25T09:08:57.901Z</time></trkpt><trkpt lat="45.6527983" lon="9.5768933"><ele>174.0</ele><time>2026-04-25T09:08:58.902Z</time></trkpt><trkpt lat="45.6527733" lon="9.57699"><ele>174.0</ele><time>2026-04-25T09:08:59.902Z</time></trkpt><trkpt lat="45.6527483" lon="9.577085"><ele>174.0</ele><time>2026-04-25T09:09:00.902Z</time></trkpt><trkpt lat="45.652725" lon="9.57718"><ele>174.0</ele><time>2026-04-25T09:09:01.903Z</time></trkpt><trkpt lat="45.6527" lon="9.577275"><ele>174.0</ele><time>2026-04-25T09:09:02.903Z</time></trkpt><trkpt lat="45.6526783" lon="9.5773733"><ele>174.85714285714286</ele><time>2026-04-25T09:09:03.902Z</time></trkpt><trkpt lat="45.6526567" lon="9.5774717"><ele>175.71428571428572</ele><time>2026-04-25T09:09:04.905Z</time></trkpt><trkpt lat="45.6526367" lon="9.577565"><ele>176.57142857142856</ele><time>2026-04-25T09:09:05.905Z</time></trkpt><trkpt lat="45.652615" lon="9.57766"><ele>177.42857142857144</ele><time>2026-04-25T09:09:06.902Z</time></trkpt><trkpt lat="45.6525933" lon="9.577755"><ele>178.2857142857143</ele><time>2026-04-25T09:09:07.902Z</time></trkpt><trkpt lat="45.65257" lon="9.5778483"><ele>179.14285714285714</ele><time>2026-04-25T09:09:08.902Z</time></trkpt><trkpt lat="45.652545" lon="9.5779417"><ele>180.0</ele><time>2026-04-25T09:09:09.905Z</time></trkpt><trkpt lat="45.65252" lon="9.5780367"><ele>180.0</ele><time>2026-04-25T09:09:10.905Z</time></trkpt><trkpt lat="45.652495" lon="9.5781317"><ele>180.0</ele><time>2026-04-25T09:09:11.904Z</time></trkpt><trkpt lat="45.652465" lon="9.5782367"><ele>180.0</ele><time>2026-04-25T09:09:12.905Z</time></trkpt><trkpt lat="45.6524317" lon="9.57835"><ele>180.0</ele><time>2026-04-25T09:09:13.905Z</time></trkpt><trkpt lat="45.652395" lon="9.5784883"><ele>180.0</ele><time>2026-04-25T09:09:14.905Z</time></trkpt><trkpt lat="45.6523567" lon="9.5786233"><ele>180.0</ele><time>2026-04-25T09:09:15.905Z</time></trkpt><trkpt lat="45.652325" lon="9.5787467"><ele>180.5</ele><time>2026-04-25T09:09:16.905Z</time></trkpt><trkpt lat="45.6522933" lon="9.5788667"><ele>181.0</ele><time>2026-04-25T09:09:17.903Z</time></trkpt><trkpt lat="45.6522617" lon="9.5789767"><ele>181.5</ele><time>2026-04-25T09:09:18.909Z</time></trkpt><trkpt lat="45.6522317" lon="9.5790767"><ele>182.0</ele><time>2026-04-25T09:09:19.905Z</time></trkpt><trkpt lat="45.6522083" lon="9.579165"><ele>182.5</ele><time>2026-04-25T09:09:20.903Z</time></trkpt><trkpt lat="45.65219" lon="9.5792517"><ele>183.0</ele><time>2026-04-25T09:09:21.902Z</time></trkpt><trkpt lat="45.652155" lon="9.5794017"><ele>183.0</ele><time>2026-04-25T09:09:23.902Z</time></trkpt><trkpt lat="45.6521067" lon="9.579485"><ele>183.0</ele><time>2026-04-25T09:09:24.905Z</time></trkpt><trkpt lat="45.6520567" lon="9.5795717"><ele>183.0</ele><time>2026-04-25T09:09:25.905Z</time></trkpt><trkpt lat="45.6519917" lon="9.5796633"><ele>183.0</ele><time>2026-04-25T09:09:26.905Z</time></trkpt><trkpt lat="45.6519283" lon="9.5797583"><ele>183.0</ele><time>2026-04-25T09:09:27.904Z</time></trkpt><trkpt lat="45.651865" lon="9.57984"><ele>183.0</ele><time>2026-04-25T09:09:28.905Z</time></trkpt><trkpt lat="45.65181" lon="9.5799117"><ele>184.4</ele><time>2026-04-25T09:09:29.905Z</time></trkpt><trkpt lat="45.6517433" lon="9.58002"><ele>185.8</ele><time>2026-04-25T09:09:31.905Z</time></trkpt><trkpt lat="45.65176" lon="9.5801383"><ele>187.2</ele><time>2026-04-25T09:09:33.905Z</time></trkpt><trkpt lat="45.6518433" lon="9.580245"><ele>188.6</ele><time>2026-04-25T09:09:35.905Z</time></trkpt><trkpt lat="45.651905" lon="9.5803017"><ele>190.0</ele><time>2026-04-25T09:09:36.905Z</time></trkpt><trkpt lat="45.6519783" lon="9.5803633"><ele>190.0</ele><time>2026-04-25T09:09:37.905Z</time></trkpt><trkpt lat="45.6520633" lon="9.5804167"><ele>190.0</ele><time>2026-04-25T09:09:38.905Z</time></trkpt><trkpt lat="45.6521533" lon="9.5804717"><ele>190.0</ele><time>2026-04-25T09:09:39.905Z</time></trkpt><trkpt lat="45.6522433" lon="9.5805383"><ele>190.0</ele><time>2026-04-25T09:09:40.905Z</time></trkpt><trkpt lat="45.6523367" lon="9.5806033"><ele>190.0</ele><time>2026-04-25T09:09:41.906Z</time></trkpt><trkpt lat="45.6524333" lon="9.580675"><ele>190.0</ele><time>2026-04-25T09:09:42.902Z</time></trkpt><trkpt lat="45.6525317" lon="9.5807483"><ele>190.0</ele><time>2026-04-25T09:09:43.903Z</time></trkpt><trkpt lat="45.6526417" lon="9.5808283"><ele>190.0</ele><time>2026-04-25T09:09:44.905Z</time></trkpt><trkpt lat="45.6527483" lon="9.580905"><ele>190.0</ele><time>2026-04-25T09:09:45.902Z</time></trkpt><trkpt lat="45.6528567" lon="9.5809767"><ele>190.0</ele><time>2026-04-25T09:09:46.905Z</time></trkpt><trkpt lat="45.6529567" lon="9.5810533"><ele>190.0</ele><time>2026-04-25T09:09:47.903Z</time></trkpt><trkpt lat="45.6530567" lon="9.5811267"><ele>190.0</ele><time>2026-04-25T09:09:48.903Z</time></trkpt><trkpt lat="45.6531633" lon="9.5812"><ele>190.0</ele><time>2026-04-25T09:09:49.903Z</time></trkpt><trkpt lat="45.6532633" lon="9.5812883"><ele>190.0</ele><time>2026-04-25T09:09:50.903Z</time></trkpt><trkpt lat="45.6533717" lon="9.581355"><ele>190.0</ele><time>2026-04-25T09:09:51.903Z</time></trkpt><trkpt lat="45.65348" lon="9.5814167"><ele>190.0</ele><time>2026-04-25T09:09:52.902Z</time></trkpt><trkpt lat="45.65358" lon="9.5814783"><ele>190.0</ele><time>2026-04-25T09:09:53.902Z</time></trkpt><trkpt lat="45.6536867" lon="9.5815267"><ele>189.8</ele><time>2026-04-25T09:09:54.905Z</time></trkpt><trkpt lat="45.653785" lon="9.5815783"><ele>189.6</ele><time>2026-04-25T09:09:55.903Z</time></trkpt><trkpt lat="45.6538867" lon="9.5816283"><ele>189.39999999999998</ele><time>2026-04-25T09:09:56.903Z</time></trkpt><trkpt lat="45.6539817" lon="9.5816783"><ele>189.2</ele><time>2026-04-25T09:09:57.902Z</time></trkpt><trkpt lat="45.65408" lon="9.5817267"><ele>189.0</ele><time>2026-04-25T09:09:58.902Z</time></trkpt><trkpt lat="45.6541717" lon="9.5817733"><ele>189.0</ele><time>2026-04-25T09:09:59.903Z</time></trkpt><trkpt lat="45.6542633" lon="9.5818183"><ele>189.0</ele><time>2026-04-25T09:10:00.902Z</time></trkpt><trkpt lat="45.6543533" lon="9.5818617"><ele>189.0</ele><time>2026-04-25T09:10:01.903Z</time></trkpt><trkpt lat="45.6544367" lon="9.5818967"><ele>189.0</ele><time>2026-04-25T09:10:02.903Z</time></trkpt><trkpt lat="45.6545167" lon="9.5819333"><ele>189.0</ele><time>2026-04-25T09:10:03.902Z</time></trkpt><trkpt lat="45.6545917" lon="9.5819583"><ele>189.0</ele><time>2026-04-25T09:10:04.905Z</time></trkpt><trkpt lat="45.6546567" lon="9.581985"><ele>189.6</ele><time>2026-04-25T09:10:05.905Z</time></trkpt><trkpt lat="45.6547617" lon="9.5820333"><ele>190.2</ele><time>2026-04-25T09:10:07.905Z</time></trkpt><trkpt lat="45.6548517" lon="9.5820833"><ele>190.79999999999998</ele><time>2026-04-25T09:10:09.905Z</time></trkpt><trkpt lat="45.6549583" lon="9.5821033"><ele>191.39999999999998</ele><time>2026-04-25T09:10:11.905Z</time></trkpt><trkpt lat="45.6550767" lon="9.5821667"><ele>192.0</ele><time>2026-04-25T09:10:13.903Z</time></trkpt><trkpt lat="45.6551333" lon="9.5822067"><ele>192.0</ele><time>2026-04-25T09:10:14.906Z</time></trkpt><trkpt lat="45.65519" lon="9.58225"><ele>192.0</ele><time>2026-04-25T09:10:15.905Z</time></trkpt><trkpt lat="45.65525" lon="9.5822817"><ele>192.0</ele><time>2026-04-25T09:10:16.905Z</time></trkpt><trkpt lat="45.6553583" lon="9.5823583"><ele>192.0</ele><time>2026-04-25T09:10:18.903Z</time></trkpt><trkpt lat="45.65546" lon="9.58243"><ele>192.0</ele><time>2026-04-25T09:10:20.903Z</time></trkpt><trkpt lat="45.655555" lon="9.5825017"><ele>190.8</ele><time>2026-04-25T09:10:22.901Z</time></trkpt><trkpt lat="45.6556433" lon="9.582565"><ele>189.6</ele><time>2026-04-25T09:10:24.905Z</time></trkpt><trkpt lat="45.6557267" lon="9.5826283"><ele>188.4</ele><time>2026-04-25T09:10:26.905Z</time></trkpt><trkpt lat="45.6558117" lon="9.5826883"><ele>187.20000000000002</ele><time>2026-04-25T09:10:28.905Z</time></trkpt><trkpt lat="45.6558967" lon="9.5827617"><ele>186.0</ele><time>2026-04-25T09:10:30.904Z</time></trkpt><trkpt lat="45.6559867" lon="9.582825"><ele>187.0</ele><time>2026-04-25T09:10:32.903Z</time></trkpt><trkpt lat="45.6560833" lon="9.582875"><ele>188.0</ele><time>2026-04-25T09:10:34.902Z</time></trkpt><trkpt lat="45.6561833" lon="9.5829383"><ele>189.0</ele><time>2026-04-25T09:10:36.905Z</time></trkpt><trkpt lat="45.656285" lon="9.5830283"><ele>190.0</ele><time>2026-04-25T09:10:38.905Z</time></trkpt><trkpt lat="45.6563733" lon="9.5831117"><ele>191.0</ele><time>2026-04-25T09:10:40.905Z</time></trkpt><trkpt lat="45.6564583" lon="9.5831783"><ele>191.0</ele><time>2026-04-25T09:10:42.902Z</time></trkpt><trkpt lat="45.65655" lon="9.5832317"><ele>191.0</ele><time>2026-04-25T09:10:44.903Z</time></trkpt><trkpt lat="45.6566417" lon="9.5832917"><ele>191.0</ele><time>2026-04-25T09:10:46.902Z</time></trkpt><trkpt lat="45.65673" lon="9.5833583"><ele>191.0</ele><time>2026-04-25T09:10:48.902Z</time></trkpt><trkpt lat="45.6568183" lon="9.5834317"><ele>191.0</ele><time>2026-04-25T09:10:50.903Z</time></trkpt><trkpt lat="45.6569133" lon="9.5835217"><ele>190.75</ele><time>2026-04-25T09:10:52.902Z</time></trkpt><trkpt lat="45.65701" lon="9.5835917"><ele>190.5</ele><time>2026-04-25T09:10:54.903Z</time></trkpt><trkpt lat="45.65711" lon="9.5836583"><ele>190.25</ele><time>2026-04-25T09:10:56.902Z</time></trkpt><trkpt lat="45.65721" lon="9.583725"><ele>190.0</ele><time>2026-04-25T09:10:58.906Z</time></trkpt><trkpt lat="45.65732" lon="9.583805"><ele>190.0</ele><time>2026-04-25T09:11:00.906Z</time></trkpt><trkpt lat="45.65738" lon="9.58385"><ele>190.0</ele><time>2026-04-25T09:11:01.902Z</time></trkpt><trkpt lat="45.65744" lon="9.583905"><ele>190.0</ele><time>2026-04-25T09:11:02.906Z</time></trkpt><trkpt lat="45.6575" lon="9.5839683"><ele>190.0</ele><time>2026-04-25T09:11:03.905Z</time></trkpt><trkpt lat="45.65756" lon="9.5840333"><ele>190.0</ele><time>2026-04-25T09:11:04.905Z</time></trkpt><trkpt lat="45.657615" lon="9.5840783"><ele>190.0</ele><time>2026-04-25T09:11:05.905Z</time></trkpt><trkpt lat="45.657675" lon="9.58412"><ele>190.0</ele><time>2026-04-25T09:11:06.905Z</time></trkpt><trkpt lat="45.6577317" lon="9.5841767"><ele>190.14285714285714</ele><time>2026-04-25T09:11:07.906Z</time></trkpt><trkpt lat="45.6577883" lon="9.5842267"><ele>190.28571428571428</ele><time>2026-04-25T09:11:08.905Z</time></trkpt><trkpt lat="45.6578417" lon="9.58428"><ele>190.42857142857144</ele><time>2026-04-25T09:11:09.905Z</time></trkpt><trkpt lat="45.6579" lon="9.584335"><ele>190.57142857142856</ele><time>2026-04-25T09:11:10.906Z</time></trkpt><trkpt lat="45.6579617" lon="9.584395"><ele>190.7142857142857</ele><time>2026-04-25T09:11:11.903Z</time></trkpt><trkpt lat="45.6580183" lon="9.5844583"><ele>190.85714285714286</ele><time>2026-04-25T09:11:12.903Z</time></trkpt><trkpt lat="45.6580767" lon="9.5845167"><ele>191.0</ele><time>2026-04-25T09:11:13.906Z</time></trkpt><trkpt lat="45.6581333" lon="9.5845717"><ele>191.0</ele><time>2026-04-25T09:11:14.906Z</time></trkpt><trkpt lat="45.65819" lon="9.5846267"><ele>191.0</ele><time>2026-04-25T09:11:15.906Z</time></trkpt><trkpt lat="45.6582483" lon="9.58468"><ele>191.0</ele><time>2026-04-25T09:11:16.906Z</time></trkpt><trkpt lat="45.6583067" lon="9.584735"><ele>191.0</ele><time>2026-04-25T09:11:17.903Z</time></trkpt><trkpt lat="45.6583667" lon="9.5847833"><ele>191.0</ele><time>2026-04-25T09:11:18.903Z</time></trkpt><trkpt lat="45.6584283" lon="9.58483"><ele>191.0</ele><time>2026-04-25T09:11:19.903Z</time></trkpt><trkpt lat="45.6584883" lon="9.58487"><ele>191.0</ele><time>2026-04-25T09:11:20.903Z</time></trkpt><trkpt lat="45.6585483" lon="9.5849017"><ele>191.0</ele><time>2026-04-25T09:11:21.904Z</time></trkpt><trkpt lat="45.6586083" lon="9.5849333"><ele>191.0</ele><time>2026-04-25T09:11:22.907Z</time></trkpt><trkpt lat="45.6586717" lon="9.584955"><ele>191.0</ele><time>2026-04-25T09:11:23.902Z</time></trkpt><trkpt lat="45.65874" lon="9.5849683"><ele>191.0</ele><time>2026-04-25T09:11:24.907Z</time></trkpt><trkpt lat="45.6588067" lon="9.5849833"><ele>191.0</ele><time>2026-04-25T09:11:25.904Z</time></trkpt><trkpt lat="45.6588767" lon="9.5849983"><ele>191.0</ele><time>2026-04-25T09:11:26.906Z</time></trkpt><trkpt lat="45.6589417" lon="9.5850117"><ele>191.0</ele><time>2026-04-25T09:11:27.905Z</time></trkpt><trkpt lat="45.6590083" lon="9.585025"><ele>190.5</ele><time>2026-04-25T09:11:28.905Z</time></trkpt><trkpt lat="45.6590733" lon="9.5850267"><ele>190.0</ele><time>2026-04-25T09:11:29.905Z</time></trkpt><trkpt lat="45.65914" lon="9.5850117"><ele>189.5</ele><time>2026-04-25T09:11:30.906Z</time></trkpt><trkpt lat="45.6592083" lon="9.584995"><ele>189.0</ele><time>2026-04-25T09:11:31.905Z</time></trkpt><trkpt lat="45.6592733" lon="9.5849767"><ele>188.5</ele><time>2026-04-25T09:11:32.906Z</time></trkpt><trkpt lat="45.6593917" lon="9.584955"><ele>188.0</ele><time>2026-04-25T09:11:34.906Z</time></trkpt><trkpt lat="45.6594617" lon="9.5849567"><ele>187.5</ele><time>2026-04-25T09:11:35.905Z</time></trkpt><trkpt lat="45.65954" lon="9.5849717"><ele>187.0</ele><time>2026-04-25T09:11:36.905Z</time></trkpt><trkpt lat="45.6596183" lon="9.5850033"><ele>186.5</ele><time>2026-04-25T09:11:37.905Z</time></trkpt><trkpt lat="45.6597017" lon="9.5850433"><ele>186.0</ele><time>2026-04-25T09:11:38.906Z</time></trkpt><trkpt lat="45.6597767" lon="9.5850867"><ele>185.5</ele><time>2026-04-25T09:11:39.906Z</time></trkpt><trkpt lat="45.659855" lon="9.5851233"><ele>185.0</ele><time>2026-04-25T09:11:40.905Z</time></trkpt><trkpt lat="45.6599367" lon="9.58516"><ele>185.0</ele><time>2026-04-25T09:11:41.905Z</time></trkpt><trkpt lat="45.6600133" lon="9.5851967"><ele>185.0</ele><time>2026-04-25T09:11:42.905Z</time></trkpt><trkpt lat="45.6600767" lon="9.5852317"><ele>185.0</ele><time>2026-04-25T09:11:43.906Z</time></trkpt><trkpt lat="45.660145" lon="9.5852533"><ele>185.0</ele><time>2026-04-25T09:11:44.906Z</time></trkpt><trkpt lat="45.66021" lon="9.5852767"><ele>185.0</ele><time>2026-04-25T09:11:45.905Z</time></trkpt><trkpt lat="45.6603317" lon="9.5853283"><ele>185.0</ele><time>2026-04-25T09:11:47.903Z</time></trkpt><trkpt lat="45.6603983" lon="9.5853583"><ele>186.6</ele><time>2026-04-25T09:11:48.906Z</time></trkpt><trkpt lat="45.6604583" lon="9.5853883"><ele>188.2</ele><time>2026-04-25T09:11:49.903Z</time></trkpt><trkpt lat="45.6605683" lon="9.5854283"><ele>189.8</ele><time>2026-04-25T09:11:51.902Z</time></trkpt><trkpt lat="45.6606783" lon="9.5854467"><ele>191.4</ele><time>2026-04-25T09:11:53.903Z</time></trkpt><trkpt lat="45.660795" lon="9.58547"><ele>193.0</ele><time>2026-04-25T09:11:55.904Z</time></trkpt><trkpt lat="45.66086" lon="9.5854767"><ele>193.0</ele><time>2026-04-25T09:11:56.903Z</time></trkpt><trkpt lat="45.6609383" lon="9.5854817"><ele>193.0</ele><time>2026-04-25T09:11:57.902Z</time></trkpt><trkpt lat="45.66102" lon="9.5854917"><ele>193.0</ele><time>2026-04-25T09:11:58.905Z</time></trkpt><trkpt lat="45.6611133" lon="9.5854983"><ele>193.0</ele><time>2026-04-25T09:11:59.905Z</time></trkpt><trkpt lat="45.661215" lon="9.5855067"><ele>193.0</ele><time>2026-04-25T09:12:00.905Z</time></trkpt><trkpt lat="45.661325" lon="9.5855117"><ele>193.2</ele><time>2026-04-25T09:12:01.905Z</time></trkpt><trkpt lat="45.66144" lon="9.5855167"><ele>193.4</ele><time>2026-04-25T09:12:02.906Z</time></trkpt><trkpt lat="45.6615517" lon="9.5855233"><ele>193.6</ele><time>2026-04-25T09:12:03.906Z</time></trkpt><trkpt lat="45.6616567" lon="9.5855317"><ele>193.79999999999998</ele><time>2026-04-25T09:12:04.906Z</time></trkpt><trkpt lat="45.6617617" lon="9.5855367"><ele>194.0</ele><time>2026-04-25T09:12:05.906Z</time></trkpt><trkpt lat="45.6618633" lon="9.5855433"><ele>193.83333333333334</ele><time>2026-04-25T09:12:06.904Z</time></trkpt><trkpt lat="45.6619617" lon="9.5855583"><ele>193.66666666666669</ele><time>2026-04-25T09:12:07.906Z</time></trkpt><trkpt lat="45.6620533" lon="9.5855667"><ele>193.5</ele><time>2026-04-25T09:12:08.906Z</time></trkpt><trkpt lat="45.662135" lon="9.5855767"><ele>193.33333333333331</ele><time>2026-04-25T09:12:09.904Z</time></trkpt><trkpt lat="45.6622117" lon="9.5855933"><ele>193.16666666666666</ele><time>2026-04-25T09:12:10.908Z</time></trkpt><trkpt lat="45.6622883" lon="9.58561"><ele>193.0</ele><time>2026-04-25T09:12:11.906Z</time></trkpt><trkpt lat="45.6623567" lon="9.5856267"><ele>192.99999999999997</ele><time>2026-04-25T09:12:12.906Z</time></trkpt><trkpt lat="45.6624817" lon="9.5856467"><ele>193.0</ele><time>2026-04-25T09:12:14.906Z</time></trkpt><trkpt lat="45.6625467" lon="9.585655"><ele>193.0</ele><time>2026-04-25T09:12:15.906Z</time></trkpt><trkpt lat="45.6626117" lon="9.5856617"><ele>193.0</ele><time>2026-04-25T09:12:16.906Z</time></trkpt><trkpt lat="45.6626783" lon="9.5856683"><ele>192.99999999999997</ele><time>2026-04-25T09:12:17.903Z</time></trkpt><trkpt lat="45.662745" lon="9.5856767"><ele>193.0</ele><time>2026-04-25T09:12:18.903Z</time></trkpt><trkpt lat="45.6628183" lon="9.5856717"><ele>192.99999999999997</ele><time>2026-04-25T09:12:19.903Z</time></trkpt><trkpt lat="45.662895" lon="9.58566"><ele>193.0</ele><time>2026-04-25T09:12:20.903Z</time></trkpt><trkpt lat="45.6629667" lon="9.5856467"><ele>193.0</ele><time>2026-04-25T09:12:21.902Z</time></trkpt><trkpt lat="45.6630317" lon="9.5856333"><ele>193.0</ele><time>2026-04-25T09:12:22.903Z</time></trkpt><trkpt lat="45.66315" lon="9.5856167"><ele>192.99999999999997</ele><time>2026-04-25T09:12:24.906Z</time></trkpt><trkpt lat="45.6632633" lon="9.5856"><ele>193.0</ele><time>2026-04-25T09:12:26.903Z</time></trkpt><trkpt lat="45.663385" lon="9.5856117"><ele>193.0</ele><time>2026-04-25T09:12:28.903Z</time></trkpt><trkpt lat="45.66345" lon="9.5856267"><ele>193.0</ele><time>2026-04-25T09:12:29.903Z</time></trkpt><trkpt lat="45.6635583" lon="9.58567"><ele>193.0</ele><time>2026-04-25T09:12:31.906Z</time></trkpt><trkpt lat="45.6636517" lon="9.5857483"><ele>193.0</ele><time>2026-04-25T09:12:33.902Z</time></trkpt><trkpt lat="45.6637217" lon="9.58583"><ele>193.0</ele><time>2026-04-25T09:12:35.903Z</time></trkpt><trkpt lat="45.663785" lon="9.5859083"><ele>193.16666666666666</ele><time>2026-04-25T09:12:38.903Z</time></trkpt><trkpt lat="45.6638217" lon="9.5859833"><ele>193.33333333333331</ele><time>2026-04-25T09:12:40.906Z</time></trkpt><trkpt lat="45.663855" lon="9.58606"><ele>193.5</ele><time>2026-04-25T09:12:43.905Z</time></trkpt><trkpt lat="45.66395" lon="9.5860883"><ele>193.66666666666669</ele><time>2026-04-25T09:12:46.902Z</time></trkpt><trkpt lat="45.66403" lon="9.586095"><ele>193.83333333333334</ele><time>2026-04-25T09:12:48.903Z</time></trkpt><trkpt lat="45.664155" lon="9.5861633"><ele>194.0</ele><time>2026-04-25T09:12:50.902Z</time></trkpt><trkpt lat="45.6642267" lon="9.5862017"><ele>194.00000000000003</ele><time>2026-04-25T09:12:51.903Z</time></trkpt><trkpt lat="45.664295" lon="9.5862417"><ele>194.0</ele><time>2026-04-25T09:12:52.903Z</time></trkpt><trkpt lat="45.6643667" lon="9.5862817"><ele>194.0</ele><time>2026-04-25T09:12:53.903Z</time></trkpt><trkpt lat="45.66443" lon="9.5863083"><ele>194.0</ele><time>2026-04-25T09:12:54.903Z</time></trkpt><trkpt lat="45.6645233" lon="9.5863817"><ele>194.00000000000003</ele><time>2026-04-25T09:12:56.903Z</time></trkpt><trkpt lat="45.664585" lon="9.5864767"><ele>194.0</ele><time>2026-04-25T09:12:58.902Z</time></trkpt><trkpt lat="45.6646567" lon="9.5866"><ele>193.83333333333334</ele><time>2026-04-25T09:13:00.903Z</time></trkpt><trkpt lat="45.664705" lon="9.5866683"><ele>193.66666666666669</ele><time>2026-04-25T09:13:01.906Z</time></trkpt><trkpt lat="45.6647567" lon="9.5867333"><ele>193.5</ele><time>2026-04-25T09:13:02.906Z</time></trkpt><trkpt lat="45.6648117" lon="9.5867883"><ele>193.33333333333331</ele><time>2026-04-25T09:13:03.906Z</time></trkpt><trkpt lat="45.66487" lon="9.58684"><ele>193.16666666666666</ele><time>2026-04-25T09:13:04.903Z</time></trkpt><trkpt lat="45.664935" lon="9.5868683"><ele>193.0</ele><time>2026-04-25T09:13:05.903Z</time></trkpt><trkpt lat="45.6650583" lon="9.5868967"><ele>193.00000000000003</ele><time>2026-04-25T09:13:07.904Z</time></trkpt><trkpt lat="45.665125" lon="9.58691"><ele>193.0</ele><time>2026-04-25T09:13:08.904Z</time></trkpt><trkpt lat="45.6651917" lon="9.586915"><ele>193.0</ele><time>2026-04-25T09:13:09.903Z</time></trkpt><trkpt lat="45.66526" lon="9.5869183"><ele>193.0</ele><time>2026-04-25T09:13:10.903Z</time></trkpt><trkpt lat="45.66534" lon="9.5869133"><ele>193.0</ele><time>2026-04-25T09:13:11.902Z</time></trkpt><trkpt lat="45.6654183" lon="9.5869167"><ele>193.00000000000003</ele><time>2026-04-25T09:13:12.903Z</time></trkpt><trkpt lat="45.6654917" lon="9.5869267"><ele>193.0</ele><time>2026-04-25T09:13:13.903Z</time></trkpt><trkpt lat="45.6655617" lon="9.586935"><ele>193.00000000000003</ele><time>2026-04-25T09:13:14.904Z</time></trkpt><trkpt lat="45.6656317" lon="9.5869383"><ele>193.0</ele><time>2026-04-25T09:13:15.902Z</time></trkpt><trkpt lat="45.6656983" lon="9.5869333"><ele>193.0</ele><time>2026-04-25T09:13:16.904Z</time></trkpt><trkpt lat="45.6657717" lon="9.58692"><ele>193.0</ele><time>2026-04-25T09:13:17.903Z</time></trkpt><trkpt lat="45.665845" lon="9.586905"><ele>193.0</ele><time>2026-04-25T09:13:18.905Z</time></trkpt><trkpt lat="45.6659217" lon="9.5868917"><ele>193.00000000000003</ele><time>2026-04-25T09:13:19.904Z</time></trkpt><trkpt lat="45.6659933" lon="9.5868717"><ele>193.0</ele><time>2026-04-25T09:13:20.904Z</time></trkpt><trkpt lat="45.66606" lon="9.5868533"><ele>192.75</ele><time>2026-04-25T09:13:21.903Z</time></trkpt><trkpt lat="45.6661717" lon="9.5868133"><ele>192.5</ele><time>2026-04-25T09:13:23.904Z</time></trkpt><trkpt lat="45.6662833" lon="9.5867833"><ele>192.25</ele><time>2026-04-25T09:13:25.903Z</time></trkpt><trkpt lat="45.6664" lon="9.5867833"><ele>192.0</ele><time>2026-04-25T09:13:27.903Z</time></trkpt><trkpt lat="45.66652" lon="9.5868"><ele>192.0</ele><time>2026-04-25T09:13:29.903Z</time></trkpt><trkpt lat="45.6666217" lon="9.5868533"><ele>192.0</ele><time>2026-04-25T09:13:31.904Z</time></trkpt><trkpt lat="45.66671" lon="9.5869283"><ele>192.0</ele><time>2026-04-25T09:13:33.903Z</time></trkpt><trkpt lat="45.6667883" lon="9.5870033"><ele>192.0</ele><time>2026-04-25T09:13:35.905Z</time></trkpt><trkpt lat="45.6668617" lon="9.5870817"><ele>192.0</ele><time>2026-04-25T09:13:37.904Z</time></trkpt><trkpt lat="45.666955" lon="9.5871617"><ele>192.5</ele><time>2026-04-25T09:13:39.902Z</time></trkpt><trkpt lat="45.6670067" lon="9.5872133"><ele>193.0</ele><time>2026-04-25T09:13:40.901Z</time></trkpt><trkpt lat="45.6670617" lon="9.587265"><ele>193.5</ele><time>2026-04-25T09:13:41.901Z</time></trkpt><trkpt lat="45.6671283" lon="9.5873183"><ele>194.0</ele><time>2026-04-25T09:13:42.902Z</time></trkpt><trkpt lat="45.6671983" lon="9.58737"><ele>194.5</ele><time>2026-04-25T09:13:43.903Z</time></trkpt><trkpt lat="45.6672717" lon="9.5874167"><ele>195.0</ele><time>2026-04-25T09:13:44.906Z</time></trkpt><trkpt lat="45.6673517" lon="9.58747"><ele>195.0</ele><time>2026-04-25T09:13:45.902Z</time></trkpt><trkpt lat="45.6674233" lon="9.5875183"><ele>195.0</ele><time>2026-04-25T09:13:46.902Z</time></trkpt><trkpt lat="45.6674917" lon="9.58755"><ele>195.0</ele><time>2026-04-25T09:13:47.902Z</time></trkpt><trkpt lat="45.66758" lon="9.5876"><ele>195.0</ele><time>2026-04-25T09:13:49.903Z</time></trkpt><trkpt lat="45.6676483" lon="9.5877"><ele>195.0</ele><time>2026-04-25T09:13:51.902Z</time></trkpt><trkpt lat="45.6677167" lon="9.58785"><ele>195.0</ele><time>2026-04-25T09:13:53.902Z</time></trkpt><trkpt lat="45.6677517" lon="9.5879717"><ele>195.0</ele><time>2026-04-25T09:13:54.903Z</time></trkpt><trkpt lat="45.667785" lon="9.588095"><ele>195.0</ele><time>2026-04-25T09:13:55.905Z</time></trkpt><trkpt lat="45.66781" lon="9.5882283"><ele>195.0</ele><time>2026-04-25T09:13:56.902Z</time></trkpt><trkpt lat="45.6678283" lon="9.5883683"><ele>195.0</ele><time>2026-04-25T09:13:57.902Z</time></trkpt><trkpt lat="45.6678483" lon="9.5884883"><ele>195.0</ele><time>2026-04-25T09:13:58.905Z</time></trkpt><trkpt lat="45.6678617" lon="9.588595"><ele>195.0</ele><time>2026-04-25T09:13:59.902Z</time></trkpt><trkpt lat="45.6678883" lon="9.5887467"><ele>195.0</ele><time>2026-04-25T09:14:01.902Z</time></trkpt><trkpt lat="45.6679417" lon="9.5888533"><ele>195.0</ele><time>2026-04-25T09:14:03.902Z</time></trkpt><trkpt lat="45.6680433" lon="9.58893"><ele>195.0</ele><time>2026-04-25T09:14:05.903Z</time></trkpt><trkpt lat="45.6681583" lon="9.5889683"><ele>196.0</ele><time>2026-04-25T09:14:07.902Z</time></trkpt><trkpt lat="45.668245" lon="9.58901"><ele>197.0</ele><time>2026-04-25T09:14:09.902Z</time></trkpt><trkpt lat="45.668315" lon="9.5890617"><ele>198.0</ele><time>2026-04-25T09:14:11.905Z</time></trkpt><trkpt lat="45.6683483" lon="9.5891433"><ele>199.0</ele><time>2026-04-25T09:14:13.906Z</time></trkpt><trkpt lat="45.6683933" lon="9.5892433"><ele>200.0</ele><time>2026-04-25T09:14:16.905Z</time></trkpt><trkpt lat="45.6684967" lon="9.5893133"><ele>201.0</ele><time>2026-04-25T09:14:18.902Z</time></trkpt><trkpt lat="45.66859" lon="9.5893433"><ele>200.75</ele><time>2026-04-25T09:14:19.903Z</time></trkpt><trkpt lat="45.6687217" lon="9.589365"><ele>200.5</ele><time>2026-04-25T09:14:20.903Z</time></trkpt><trkpt lat="45.6688683" lon="9.58939"><ele>200.25</ele><time>2026-04-25T09:14:21.902Z</time></trkpt><trkpt lat="45.669015" lon="9.5894217"><ele>200.0</ele><time>2026-04-25T09:14:22.901Z</time></trkpt><trkpt lat="45.669155" lon="9.5894583"><ele>200.0</ele><time>2026-04-25T09:14:23.902Z</time></trkpt><trkpt lat="45.6692883" lon="9.589505"><ele>200.0</ele><time>2026-04-25T09:14:24.905Z</time></trkpt><trkpt lat="45.6694167" lon="9.5895767"><ele>200.0</ele><time>2026-04-25T09:14:25.905Z</time></trkpt><trkpt lat="45.6695367" lon="9.58968"><ele>200.0</ele><time>2026-04-25T09:14:26.905Z</time></trkpt><trkpt lat="45.6696567" lon="9.5898017"><ele>200.5</ele><time>2026-04-25T09:14:27.905Z</time></trkpt><trkpt lat="45.6697817" lon="9.5899333"><ele>201.0</ele><time>2026-04-25T09:14:28.905Z</time></trkpt><trkpt lat="45.6698983" lon="9.59005"><ele>201.5</ele><time>2026-04-25T09:14:29.905Z</time></trkpt><trkpt lat="45.6700083" lon="9.59014"><ele>202.0</ele><time>2026-04-25T09:14:30.905Z</time></trkpt><trkpt lat="45.6701117" lon="9.5902067"><ele>202.0</ele><time>2026-04-25T09:14:31.908Z</time></trkpt><trkpt lat="45.6702233" lon="9.590265"><ele>202.0</ele><time>2026-04-25T09:14:32.904Z</time></trkpt><trkpt lat="45.6703567" lon="9.5903067"><ele>202.0</ele><time>2026-04-25T09:14:33.904Z</time></trkpt><trkpt lat="45.6705033" lon="9.590315"><ele>202.0</ele><time>2026-04-25T09:14:34.905Z</time></trkpt><trkpt lat="45.6706517" lon="9.590305"><ele>202.5</ele><time>2026-04-25T09:14:35.905Z</time></trkpt><trkpt lat="45.6707983" lon="9.5903017"><ele>203.0</ele><time>2026-04-25T09:14:36.905Z</time></trkpt><trkpt lat="45.67094" lon="9.5903217"><ele>203.5</ele><time>2026-04-25T09:14:37.905Z</time></trkpt><trkpt lat="45.6710683" lon="9.5903717"><ele>204.0</ele><time>2026-04-25T09:14:38.906Z</time></trkpt><trkpt lat="45.6711833" lon="9.5904317"><ele>204.0</ele><time>2026-04-25T09:14:39.905Z</time></trkpt><trkpt lat="45.67128" lon="9.5904917"><ele>204.0</ele><time>2026-04-25T09:14:40.905Z</time></trkpt><trkpt lat="45.6713717" lon="9.5905383"><ele>204.0</ele><time>2026-04-25T09:14:41.905Z</time></trkpt><trkpt lat="45.6714617" lon="9.5905767"><ele>204.0</ele><time>2026-04-25T09:14:42.905Z</time></trkpt><trkpt lat="45.6715467" lon="9.59061"><ele>204.0</ele><time>2026-04-25T09:14:43.905Z</time></trkpt><trkpt lat="45.6716217" lon="9.5906467"><ele>204.0</ele><time>2026-04-25T09:14:44.905Z</time></trkpt><trkpt lat="45.671695" lon="9.5907"><ele>204.0</ele><time>2026-04-25T09:14:45.902Z</time></trkpt><trkpt lat="45.671775" lon="9.590755"><ele>204.0</ele><time>2026-04-25T09:14:46.905Z</time></trkpt><trkpt lat="45.6718633" lon="9.5908133"><ele>204.0</ele><time>2026-04-25T09:14:47.905Z</time></trkpt><trkpt lat="45.6719533" lon="9.59087"><ele>204.0</ele><time>2026-04-25T09:14:48.905Z</time></trkpt><trkpt lat="45.672045" lon="9.5909267"><ele>203.0</ele><time>2026-04-25T09:14:49.905Z</time></trkpt><trkpt lat="45.6721333" lon="9.5909767"><ele>202.0</ele><time>2026-04-25T09:14:50.906Z</time></trkpt><trkpt lat="45.6722317" lon="9.5910033"><ele>201.0</ele><time>2026-04-25T09:14:51.905Z</time></trkpt><trkpt lat="45.6723333" lon="9.5910233"><ele>200.0</ele><time>2026-04-25T09:14:52.904Z</time></trkpt><trkpt lat="45.6724283" lon="9.591035"><ele>199.0</ele><time>2026-04-25T09:14:53.905Z</time></trkpt><trkpt lat="45.6725317" lon="9.5910433"><ele>199.0</ele><time>2026-04-25T09:14:54.902Z</time></trkpt><trkpt lat="45.6726283" lon="9.5910633"><ele>199.0</ele><time>2026-04-25T09:14:55.904Z</time></trkpt><trkpt lat="45.6727267" lon="9.5910817"><ele>199.0</ele><time>2026-04-25T09:14:56.903Z</time></trkpt><trkpt lat="45.67283" lon="9.5911033"><ele>199.0</ele><time>2026-04-25T09:14:57.902Z</time></trkpt><trkpt lat="45.67293" lon="9.5911317"><ele>199.0</ele><time>2026-04-25T09:14:58.902Z</time></trkpt><trkpt lat="45.6730217" lon="9.5911633"><ele>200.39999999999998</ele><time>2026-04-25T09:14:59.902Z</time></trkpt><trkpt lat="45.6731067" lon="9.591205"><ele>201.8</ele><time>2026-04-25T09:15:00.905Z</time></trkpt><trkpt lat="45.6731817" lon="9.5912633"><ele>203.2</ele><time>2026-04-25T09:15:01.905Z</time></trkpt><trkpt lat="45.67326" lon="9.5913367"><ele>204.60000000000002</ele><time>2026-04-25T09:15:02.905Z</time></trkpt><trkpt lat="45.673335" lon="9.5914267"><ele>206.0</ele><time>2026-04-25T09:15:03.905Z</time></trkpt><trkpt lat="45.67341" lon="9.5915083"><ele>206.00000000000003</ele><time>2026-04-25T09:15:04.905Z</time></trkpt><trkpt lat="45.6734783" lon="9.5915867"><ele>206.0</ele><time>2026-04-25T09:15:05.905Z</time></trkpt><trkpt lat="45.6735367" lon="9.591665"><ele>206.0</ele><time>2026-04-25T09:15:06.905Z</time></trkpt><trkpt lat="45.6735883" lon="9.5917417"><ele>206.0</ele><time>2026-04-25T09:15:07.905Z</time></trkpt><trkpt lat="45.6736433" lon="9.5918233"><ele>206.00000000000003</ele><time>2026-04-25T09:15:08.906Z</time></trkpt><trkpt lat="45.67371" lon="9.5919033"><ele>206.0</ele><time>2026-04-25T09:15:09.905Z</time></trkpt><trkpt lat="45.6737867" lon="9.5919733"><ele>206.33333333333334</ele><time>2026-04-25T09:15:10.905Z</time></trkpt><trkpt lat="45.6738683" lon="9.5920283"><ele>206.66666666666669</ele><time>2026-04-25T09:15:11.905Z</time></trkpt><trkpt lat="45.67394" lon="9.5920867"><ele>207.0</ele><time>2026-04-25T09:15:12.906Z</time></trkpt><trkpt lat="45.6739933" lon="9.592135"><ele>207.33333333333331</ele><time>2026-04-25T09:15:13.904Z</time></trkpt><trkpt lat="45.674075" lon="9.592135"><ele>207.66666666666666</ele><time>2026-04-25T09:15:15.905Z</time></trkpt><trkpt lat="45.6741833" lon="9.5920783"><ele>208.0</ele><time>2026-04-25T09:15:17.902Z</time></trkpt><trkpt lat="45.6742667" lon="9.592055"><ele>208.0</ele><time>2026-04-25T09:15:18.908Z</time></trkpt><trkpt lat="45.674365" lon="9.5920367"><ele>208.0</ele><time>2026-04-25T09:15:19.901Z</time></trkpt><trkpt lat="45.674475" lon="9.5920433"><ele>208.0</ele><time>2026-04-25T09:15:20.905Z</time></trkpt><trkpt lat="45.6745867" lon="9.5920633"><ele>208.0</ele><time>2026-04-25T09:15:21.903Z</time></trkpt><trkpt lat="45.6747033" lon="9.5921133"><ele>208.0</ele><time>2026-04-25T09:15:22.903Z</time></trkpt><trkpt lat="45.6748433" lon="9.5921783"><ele>207.0</ele><time>2026-04-25T09:15:23.903Z</time></trkpt><trkpt lat="45.6749933" lon="9.5922483"><ele>206.0</ele><time>2026-04-25T09:15:24.904Z</time></trkpt><trkpt lat="45.67516" lon="9.5923283"><ele>205.0</ele><time>2026-04-25T09:15:25.903Z</time></trkpt><trkpt lat="45.6753233" lon="9.5923917"><ele>203.5</ele><time>2026-04-25T09:15:26.903Z</time></trkpt><trkpt lat="45.6754767" lon="9.5924433"><ele>202.0</ele><time>2026-04-25T09:15:27.902Z</time></trkpt><trkpt lat="45.675605" lon="9.592495"><ele>200.5</ele><time>2026-04-25T09:15:28.902Z</time></trkpt><trkpt lat="45.6757167" lon="9.592545"><ele>199.0</ele><time>2026-04-25T09:15:29.906Z</time></trkpt><trkpt lat="45.6758333" lon="9.5925783"><ele>199.0</ele><time>2026-04-25T09:15:30.905Z</time></trkpt><trkpt lat="45.6759833" lon="9.59261"><ele>199.0</ele><time>2026-04-25T09:15:31.905Z</time></trkpt><trkpt lat="45.676165" lon="9.59263"><ele>199.0</ele><time>2026-04-25T09:15:32.903Z</time></trkpt><trkpt lat="45.6763533" lon="9.5926517"><ele>199.0</ele><time>2026-04-25T09:15:33.905Z</time></trkpt><trkpt lat="45.676535" lon="9.5926517"><ele>199.0</ele><time>2026-04-25T09:15:34.905Z</time></trkpt><trkpt lat="45.6767083" lon="9.5926367"><ele>199.0</ele><time>2026-04-25T09:15:35.905Z</time></trkpt><trkpt lat="45.6768683" lon="9.5926017"><ele>198.0</ele><time>2026-04-25T09:15:36.905Z</time></trkpt><trkpt lat="45.67702" lon="9.5925467"><ele>197.0</ele><time>2026-04-25T09:15:37.904Z</time></trkpt><trkpt lat="45.6771617" lon="9.59248"><ele>196.0</ele><time>2026-04-25T09:15:38.903Z</time></trkpt><trkpt lat="45.6772833" lon="9.5923967"><ele>195.0</ele><time>2026-04-25T09:15:39.902Z</time></trkpt><trkpt lat="45.6773833" lon="9.592285"><ele>195.0</ele><time>2026-04-25T09:15:40.902Z</time></trkpt><trkpt lat="45.677475" lon="9.5921467"><ele>195.0</ele><time>2026-04-25T09:15:41.905Z</time></trkpt><trkpt lat="45.6775583" lon="9.591985"><ele>195.0</ele><time>2026-04-25T09:15:42.905Z</time></trkpt><trkpt lat="45.6776283" lon="9.591805"><ele>195.0</ele><time>2026-04-25T09:15:43.906Z</time></trkpt><trkpt lat="45.6776883" lon="9.591605"><ele>195.33333333333331</ele><time>2026-04-25T09:15:44.905Z</time></trkpt><trkpt lat="45.677745" lon="9.5913783"><ele>195.66666666666666</ele><time>2026-04-25T09:15:45.906Z</time></trkpt><trkpt lat="45.6778" lon="9.5911433"><ele>196.0</ele><time>2026-04-25T09:15:46.905Z</time></trkpt><trkpt lat="45.677855" lon="9.5909217"><ele>196.25</ele><time>2026-04-25T09:15:47.904Z</time></trkpt><trkpt lat="45.6779133" lon="9.5907133"><ele>196.5</ele><time>2026-04-25T09:15:48.904Z</time></trkpt><trkpt lat="45.6779767" lon="9.5905333"><ele>196.75</ele><time>2026-04-25T09:15:49.906Z</time></trkpt><trkpt lat="45.67805" lon="9.5903883"><ele>197.0</ele><time>2026-04-25T09:15:50.903Z</time></trkpt><trkpt lat="45.67814" lon="9.590275"><ele>197.25</ele><time>2026-04-25T09:15:51.903Z</time></trkpt><trkpt lat="45.678245" lon="9.5901883"><ele>197.5</ele><time>2026-04-25T09:15:52.902Z</time></trkpt><trkpt lat="45.6783583" lon="9.590125"><ele>197.75</ele><time>2026-04-25T09:15:53.903Z</time></trkpt><trkpt lat="45.6784833" lon="9.5900983"><ele>198.0</ele><time>2026-04-25T09:15:54.903Z</time></trkpt><trkpt lat="45.6786183" lon="9.5900933"><ele>198.25</ele><time>2026-04-25T09:15:55.902Z</time></trkpt><trkpt lat="45.6787583" lon="9.5900983"><ele>198.5</ele><time>2026-04-25T09:15:56.903Z</time></trkpt><trkpt lat="45.6789017" lon="9.5901083"><ele>198.75</ele><time>2026-04-25T09:15:57.902Z</time></trkpt><trkpt lat="45.6790417" lon="9.5901133"><ele>199.0</ele><time>2026-04-25T09:15:58.902Z</time></trkpt><trkpt lat="45.679175" lon="9.5901217"><ele>199.0</ele><time>2026-04-25T09:15:59.903Z</time></trkpt><trkpt lat="45.6792983" lon="9.590125"><ele>199.0</ele><time>2026-04-25T09:16:00.905Z</time></trkpt><trkpt lat="45.6794117" lon="9.5901367"><ele>199.0</ele><time>2026-04-25T09:16:01.905Z</time></trkpt><trkpt lat="45.67952" lon="9.5901583"><ele>199.0</ele><time>2026-04-25T09:16:02.906Z</time></trkpt><trkpt lat="45.6796283" lon="9.5901883"><ele>199.25</ele><time>2026-04-25T09:16:03.902Z</time></trkpt><trkpt lat="45.67974" lon="9.59022"><ele>199.5</ele><time>2026-04-25T09:16:04.902Z</time></trkpt><trkpt lat="45.6798533" lon="9.5902583"><ele>199.75</ele><time>2026-04-25T09:16:05.903Z</time></trkpt><trkpt lat="45.6799717" lon="9.590295"><ele>200.0</ele><time>2026-04-25T09:16:06.905Z</time></trkpt><trkpt lat="45.680095" lon="9.5903367"><ele>199.5</ele><time>2026-04-25T09:16:07.907Z</time></trkpt><trkpt lat="45.6802233" lon="9.5903833"><ele>199.0</ele><time>2026-04-25T09:16:08.906Z</time></trkpt><trkpt lat="45.680355" lon="9.5904267"><ele>198.5</ele><time>2026-04-25T09:16:09.906Z</time></trkpt><trkpt lat="45.68049" lon="9.5904733"><ele>198.0</ele><time>2026-04-25T09:16:10.906Z</time></trkpt><trkpt lat="45.68062" lon="9.5905267"><ele>198.0</ele><time>2026-04-25T09:16:11.906Z</time></trkpt><trkpt lat="45.6807483" lon="9.5905783"><ele>198.0</ele><time>2026-04-25T09:16:12.905Z</time></trkpt><trkpt lat="45.680875" lon="9.59063"><ele>198.0</ele><time>2026-04-25T09:16:13.906Z</time></trkpt><trkpt lat="45.681005" lon="9.5906783"><ele>198.0</ele><time>2026-04-25T09:16:14.903Z</time></trkpt><trkpt lat="45.6811283" lon="9.5907167"><ele>199.0</ele><time>2026-04-25T09:16:15.903Z</time></trkpt><trkpt lat="45.6812567" lon="9.5907533"><ele>200.0</ele><time>2026-04-25T09:16:16.906Z</time></trkpt><trkpt lat="45.681385" lon="9.5907917"><ele>201.0</ele><time>2026-04-25T09:16:17.903Z</time></trkpt><trkpt lat="45.6815183" lon="9.5908367"><ele>202.0</ele><time>2026-04-25T09:16:18.903Z</time></trkpt><trkpt lat="45.6816567" lon="9.590885"><ele>202.0</ele><time>2026-04-25T09:16:19.903Z</time></trkpt><trkpt lat="45.6818" lon="9.5909317"><ele>202.0</ele><time>2026-04-25T09:16:20.903Z</time></trkpt><trkpt lat="45.6819367" lon="9.59098"><ele>202.0</ele><time>2026-04-25T09:16:21.903Z</time></trkpt><trkpt lat="45.6820567" lon="9.5910217"><ele>202.0</ele><time>2026-04-25T09:16:22.902Z</time></trkpt><trkpt lat="45.68216" lon="9.59106"><ele>201.99999999999997</ele><time>2026-04-25T09:16:23.902Z</time></trkpt><trkpt lat="45.6822517" lon="9.5910867"><ele>202.0</ele><time>2026-04-25T09:16:24.903Z</time></trkpt><trkpt lat="45.68233" lon="9.591105"><ele>202.0</ele><time>2026-04-25T09:16:25.903Z</time></trkpt><trkpt lat="45.6824033" lon="9.59113"><ele>202.0</ele><time>2026-04-25T09:16:26.904Z</time></trkpt><trkpt lat="45.6824917" lon="9.5911583"><ele>201.99999999999997</ele><time>2026-04-25T09:16:27.903Z</time></trkpt><trkpt lat="45.682595" lon="9.5911933"><ele>202.0</ele><time>2026-04-25T09:16:28.903Z</time></trkpt><trkpt lat="45.682715" lon="9.5912333"><ele>201.5</ele><time>2026-04-25T09:16:29.906Z</time></trkpt><trkpt lat="45.6828467" lon="9.5912767"><ele>201.0</ele><time>2026-04-25T09:16:30.905Z</time></trkpt><trkpt lat="45.6829833" lon="9.5913283"><ele>200.5</ele><time>2026-04-25T09:16:31.906Z</time></trkpt><trkpt lat="45.6831233" lon="9.591375"><ele>200.0</ele><time>2026-04-25T09:16:32.906Z</time></trkpt><trkpt lat="45.6832683" lon="9.5914233"><ele>200.0</ele><time>2026-04-25T09:16:33.905Z</time></trkpt><trkpt lat="45.6834133" lon="9.591475"><ele>200.0</ele><time>2026-04-25T09:16:34.905Z</time></trkpt><trkpt lat="45.6835583" lon="9.5915283"><ele>200.0</ele><time>2026-04-25T09:16:35.906Z</time></trkpt><trkpt lat="45.6837033" lon="9.59158"><ele>200.0</ele><time>2026-04-25T09:16:36.906Z</time></trkpt><trkpt lat="45.6838517" lon="9.5916367"><ele>200.66666666666669</ele><time>2026-04-25T09:16:37.906Z</time></trkpt><trkpt lat="45.6840083" lon="9.5917033"><ele>201.33333333333331</ele><time>2026-04-25T09:16:38.906Z</time></trkpt><trkpt lat="45.6841767" lon="9.59178"><ele>202.0</ele><time>2026-04-25T09:16:39.906Z</time></trkpt><trkpt lat="45.6843533" lon="9.5918583"><ele>202.33333333333331</ele><time>2026-04-25T09:16:40.905Z</time></trkpt><trkpt lat="45.68453" lon="9.591945"><ele>202.66666666666669</ele><time>2026-04-25T09:16:41.905Z</time></trkpt><trkpt lat="45.6847067" lon="9.59203"><ele>203.0</ele><time>2026-04-25T09:16:42.908Z</time></trkpt><trkpt lat="45.6848767" lon="9.5921067"><ele>203.66666666666669</ele><time>2026-04-25T09:16:43.906Z</time></trkpt><trkpt lat="45.6850367" lon="9.5921783"><ele>204.33333333333331</ele><time>2026-04-25T09:16:44.906Z</time></trkpt><trkpt lat="45.6851867" lon="9.59224"><ele>205.0</ele><time>2026-04-25T09:16:45.905Z</time></trkpt><trkpt lat="45.6853333" lon="9.5923017"><ele>205.66666666666666</ele><time>2026-04-25T09:16:46.906Z</time></trkpt><trkpt lat="45.6854833" lon="9.59236"><ele>206.33333333333331</ele><time>2026-04-25T09:16:47.903Z</time></trkpt><trkpt lat="45.6856317" lon="9.5924133"><ele>207.0</ele><time>2026-04-25T09:16:48.903Z</time></trkpt><trkpt lat="45.6857783" lon="9.5924617"><ele>207.0</ele><time>2026-04-25T09:16:49.903Z</time></trkpt><trkpt lat="45.6859183" lon="9.5925083"><ele>207.0</ele><time>2026-04-25T09:16:50.903Z</time></trkpt><trkpt lat="45.68605" lon="9.5925567"><ele>207.0</ele><time>2026-04-25T09:16:51.903Z</time></trkpt><trkpt lat="45.6861767" lon="9.5925917"><ele>207.0</ele><time>2026-04-25T09:16:52.902Z</time></trkpt><trkpt lat="45.6862883" lon="9.59262"><ele>206.5</ele><time>2026-04-25T09:16:53.904Z</time></trkpt><trkpt lat="45.6863817" lon="9.5926433"><ele>206.0</ele><time>2026-04-25T09:16:54.903Z</time></trkpt><trkpt lat="45.6864683" lon="9.59267"><ele>205.5</ele><time>2026-04-25T09:16:55.902Z</time></trkpt><trkpt lat="45.686555" lon="9.592695"><ele>205.0</ele><time>2026-04-25T09:16:56.904Z</time></trkpt><trkpt lat="45.6866333" lon="9.5927267"><ele>204.5</ele><time>2026-04-25T09:16:57.903Z</time></trkpt><trkpt lat="45.6867017" lon="9.5927633"><ele>204.0</ele><time>2026-04-25T09:16:58.902Z</time></trkpt><trkpt lat="45.6867633" lon="9.5928033"><ele>204.0</ele><time>2026-04-25T09:16:59.906Z</time></trkpt><trkpt lat="45.6868367" lon="9.5928367"><ele>204.0</ele><time>2026-04-25T09:17:00.905Z</time></trkpt><trkpt lat="45.6869367" lon="9.5928567"><ele>204.0</ele><time>2026-04-25T09:17:01.906Z</time></trkpt><trkpt lat="45.6870683" lon="9.592865"><ele>204.0</ele><time>2026-04-25T09:17:02.906Z</time></trkpt><trkpt lat="45.6872183" lon="9.5928783"><ele>205.33333333333331</ele><time>2026-04-25T09:17:03.906Z</time></trkpt><trkpt lat="45.6873733" lon="9.5928967"><ele>206.66666666666666</ele><time>2026-04-25T09:17:04.905Z</time></trkpt><trkpt lat="45.687525" lon="9.5929167"><ele>208.0</ele><time>2026-04-25T09:17:05.906Z</time></trkpt><trkpt lat="45.6876783" lon="9.592935"><ele>208.25</ele><time>2026-04-25T09:17:06.908Z</time></trkpt><trkpt lat="45.6878283" lon="9.5929533"><ele>208.5</ele><time>2026-04-25T09:17:07.906Z</time></trkpt><trkpt lat="45.68797" lon="9.5929733"><ele>208.75</ele><time>2026-04-25T09:17:08.906Z</time></trkpt><trkpt lat="45.6881" lon="9.592985"><ele>209.0</ele><time>2026-04-25T09:17:09.904Z</time></trkpt><trkpt lat="45.6882183" lon="9.5930033"><ele>209.00000000000003</ele><time>2026-04-25T09:17:10.905Z</time></trkpt><trkpt lat="45.68832" lon="9.5930133"><ele>209.0</ele><time>2026-04-25T09:17:11.906Z</time></trkpt><trkpt lat="45.6884133" lon="9.5930217"><ele>209.0</ele><time>2026-04-25T09:17:12.905Z</time></trkpt><trkpt lat="45.688485" lon="9.5930283"><ele>209.0</ele><time>2026-04-25T09:17:13.905Z</time></trkpt><trkpt lat="45.6885833" lon="9.5931017"><ele>209.00000000000003</ele><time>2026-04-25T09:17:15.906Z</time></trkpt><trkpt lat="45.6886283" lon="9.5931783"><ele>209.0</ele><time>2026-04-25T09:17:16.906Z</time></trkpt><trkpt lat="45.6886617" lon="9.5933183"><ele>210.33333333333334</ele><time>2026-04-25T09:17:17.903Z</time></trkpt><trkpt lat="45.6886967" lon="9.593535"><ele>211.66666666666669</ele><time>2026-04-25T09:17:18.903Z</time></trkpt><trkpt lat="45.6887483" lon="9.593765"><ele>213.0</ele><time>2026-04-25T09:17:19.903Z</time></trkpt><trkpt lat="45.6888067" lon="9.593995"><ele>213.66666666666669</ele><time>2026-04-25T09:17:20.903Z</time></trkpt><trkpt lat="45.68887" lon="9.5942233"><ele>214.33333333333334</ele><time>2026-04-25T09:17:21.902Z</time></trkpt><trkpt lat="45.68893" lon="9.59442"><ele>215.0</ele><time>2026-04-25T09:17:22.903Z</time></trkpt><trkpt lat="45.6889817" lon="9.59459"><ele>215.5</ele><time>2026-04-25T09:17:23.903Z</time></trkpt><trkpt lat="45.6890283" lon="9.5947583"><ele>216.0</ele><time>2026-04-25T09:17:24.906Z</time></trkpt><trkpt lat="45.6890767" lon="9.5949217"><ele>216.5</ele><time>2026-04-25T09:17:25.906Z</time></trkpt><trkpt lat="45.6891317" lon="9.595085"><ele>217.0</ele><time>2026-04-25T09:17:26.905Z</time></trkpt><trkpt lat="45.68919" lon="9.5952533"><ele>218.0</ele><time>2026-04-25T09:17:27.906Z</time></trkpt><trkpt lat="45.689255" lon="9.59543"><ele>219.0</ele><time>2026-04-25T09:17:28.906Z</time></trkpt><trkpt lat="45.689335" lon="9.5956033"><ele>220.0</ele><time>2026-04-25T09:17:29.905Z</time></trkpt><trkpt lat="45.6894333" lon="9.5957683"><ele>221.0</ele><time>2026-04-25T09:17:30.905Z</time></trkpt><trkpt lat="45.6895467" lon="9.5959167"><ele>221.33333333333334</ele><time>2026-04-25T09:17:31.906Z</time></trkpt><trkpt lat="45.689675" lon="9.5960517"><ele>221.66666666666669</ele><time>2026-04-25T09:17:32.906Z</time></trkpt><trkpt lat="45.6898133" lon="9.5961683"><ele>222.0</ele><time>2026-04-25T09:17:33.906Z</time></trkpt><trkpt lat="45.6899567" lon="9.5962683"><ele>222.0</ele><time>2026-04-25T09:17:34.906Z</time></trkpt><trkpt lat="45.6901" lon="9.5963433"><ele>222.0</ele><time>2026-04-25T09:17:35.906Z</time></trkpt><trkpt lat="45.69024" lon="9.5963883"><ele>222.0</ele><time>2026-04-25T09:17:36.906Z</time></trkpt><trkpt lat="45.69038" lon="9.5964217"><ele>222.0</ele><time>2026-04-25T09:17:37.906Z</time></trkpt><trkpt lat="45.6905233" lon="9.5964517"><ele>221.66666666666669</ele><time>2026-04-25T09:17:38.906Z</time></trkpt><trkpt lat="45.6906717" lon="9.59649"><ele>221.33333333333334</ele><time>2026-04-25T09:17:39.906Z</time></trkpt><trkpt lat="45.6908233" lon="9.596535"><ele>221.0</ele><time>2026-04-25T09:17:40.905Z</time></trkpt><trkpt lat="45.6909783" lon="9.596575"><ele>220.66666666666669</ele><time>2026-04-25T09:17:41.906Z</time></trkpt><trkpt lat="45.6911333" lon="9.59661"><ele>220.33333333333331</ele><time>2026-04-25T09:17:42.906Z</time></trkpt><trkpt lat="45.691285" lon="9.5966467"><ele>220.0</ele><time>2026-04-25T09:17:43.906Z</time></trkpt><trkpt lat="45.6914283" lon="9.5966783"><ele>220.0</ele><time>2026-04-25T09:17:44.906Z</time></trkpt><trkpt lat="45.6915567" lon="9.5967033"><ele>220.0</ele><time>2026-04-25T09:17:45.905Z</time></trkpt><trkpt lat="45.6916683" lon="9.5967267"><ele>220.0</ele><time>2026-04-25T09:17:46.905Z</time></trkpt><trkpt lat="45.6917783" lon="9.5967483"><ele>220.0</ele><time>2026-04-25T09:17:47.903Z</time></trkpt><trkpt lat="45.691895" lon="9.5967767"><ele>220.33333333333331</ele><time>2026-04-25T09:17:48.902Z</time></trkpt><trkpt lat="45.692035" lon="9.596805"><ele>220.66666666666669</ele><time>2026-04-25T09:17:49.903Z</time></trkpt><trkpt lat="45.69221" lon="9.5968367"><ele>221.0</ele><time>2026-04-25T09:17:50.903Z</time></trkpt><trkpt lat="45.6923917" lon="9.596875"><ele>221.0</ele><time>2026-04-25T09:17:51.902Z</time></trkpt><trkpt lat="45.6925667" lon="9.5969117"><ele>221.0</ele><time>2026-04-25T09:17:52.902Z</time></trkpt><trkpt lat="45.6927383" lon="9.5969483"><ele>221.0</ele><time>2026-04-25T09:17:53.903Z</time></trkpt><trkpt lat="45.6929133" lon="9.5969767"><ele>222.33333333333334</ele><time>2026-04-25T09:17:54.906Z</time></trkpt><trkpt lat="45.69308" lon="9.5970167"><ele>223.66666666666669</ele><time>2026-04-25T09:17:55.905Z</time></trkpt><trkpt lat="45.6932417" lon="9.5970367"><ele>225.0</ele><time>2026-04-25T09:17:56.905Z</time></trkpt><trkpt lat="45.6933833" lon="9.597055"><ele>225.0</ele><time>2026-04-25T09:17:57.905Z</time></trkpt><trkpt lat="45.693505" lon="9.5970717"><ele>225.0</ele><time>2026-04-25T09:17:58.903Z</time></trkpt><trkpt lat="45.69359" lon="9.5971"><ele>225.0</ele><time>2026-04-25T09:17:59.906Z</time></trkpt><trkpt lat="45.69365" lon="9.597135"><ele>225.0</ele><time>2026-04-25T09:18:00.906Z</time></trkpt><trkpt lat="45.6936983" lon="9.5972267"><ele>225.0</ele><time>2026-04-25T09:18:02.903Z</time></trkpt><trkpt lat="45.6936183" lon="9.5973883"><ele>225.0</ele><time>2026-04-25T09:18:04.905Z</time></trkpt><trkpt lat="45.6935433" lon="9.5975133"><ele>225.0</ele><time>2026-04-25T09:18:05.906Z</time></trkpt><trkpt lat="45.693485" lon="9.59766"><ele>225.0</ele><time>2026-04-25T09:18:06.906Z</time></trkpt><trkpt lat="45.6934517" lon="9.59784"><ele>225.0</ele><time>2026-04-25T09:18:07.906Z</time></trkpt><trkpt lat="45.6934233" lon="9.598035"><ele>225.5</ele><time>2026-04-25T09:18:08.906Z</time></trkpt><trkpt lat="45.693395" lon="9.5982283"><ele>226.0</ele><time>2026-04-25T09:18:09.906Z</time></trkpt><trkpt lat="45.6933583" lon="9.598405"><ele>226.5</ele><time>2026-04-25T09:18:10.906Z</time></trkpt><trkpt lat="45.6933183" lon="9.5985517"><ele>227.0</ele><time>2026-04-25T09:18:11.903Z</time></trkpt><trkpt lat="45.6932817" lon="9.59868"><ele>228.16666666666669</ele><time>2026-04-25T09:18:12.903Z</time></trkpt><trkpt lat="45.6932467" lon="9.5987817"><ele>229.33333333333334</ele><time>2026-04-25T09:18:13.905Z</time></trkpt><trkpt lat="45.693215" lon="9.59886"><ele>230.5</ele><time>2026-04-25T09:18:14.906Z</time></trkpt><trkpt lat="45.6931667" lon="9.599025"><ele>231.66666666666669</ele><time>2026-04-25T09:18:16.906Z</time></trkpt><trkpt lat="45.693155" lon="9.5991333"><ele>232.83333333333334</ele><time>2026-04-25T09:18:17.903Z</time></trkpt><trkpt lat="45.6931467" lon="9.5992733"><ele>234.0</ele><time>2026-04-25T09:18:18.903Z</time></trkpt><trkpt lat="45.6931467" lon="9.5994567"><ele>234.6</ele><time>2026-04-25T09:18:19.903Z</time></trkpt><trkpt lat="45.6931467" lon="9.5996283"><ele>235.2</ele><time>2026-04-25T09:18:20.903Z</time></trkpt><trkpt lat="45.69314" lon="9.599785"><ele>235.79999999999998</ele><time>2026-04-25T09:18:21.902Z</time></trkpt><trkpt lat="45.6931317" lon="9.5999367"><ele>236.39999999999998</ele><time>2026-04-25T09:18:22.903Z</time></trkpt><trkpt lat="45.6931017" lon="9.6000917"><ele>237.0</ele><time>2026-04-25T09:18:23.903Z</time></trkpt><trkpt lat="45.6930533" lon="9.600265"><ele>236.33333333333331</ele><time>2026-04-25T09:18:24.903Z</time></trkpt><trkpt lat="45.692995" lon="9.6004667"><ele>235.66666666666666</ele><time>2026-04-25T09:18:25.903Z</time></trkpt><trkpt lat="45.692925" lon="9.6006967"><ele>235.0</ele><time>2026-04-25T09:18:26.906Z</time></trkpt><trkpt lat="45.69285" lon="9.6009433"><ele>235.0</ele><time>2026-04-25T09:18:27.906Z</time></trkpt><trkpt lat="45.69278" lon="9.601185"><ele>235.0</ele><time>2026-04-25T09:18:28.906Z</time></trkpt><trkpt lat="45.69272" lon="9.6014067"><ele>235.0</ele><time>2026-04-25T09:18:29.905Z</time></trkpt><trkpt lat="45.6926783" lon="9.6016167"><ele>235.0</ele><time>2026-04-25T09:18:30.902Z</time></trkpt><trkpt lat="45.6926467" lon="9.6018133"><ele>235.0</ele><time>2026-04-25T09:18:31.906Z</time></trkpt><trkpt lat="45.6926233" lon="9.6019883"><ele>235.0</ele><time>2026-04-25T09:18:32.906Z</time></trkpt><trkpt lat="45.6926017" lon="9.6021333"><ele>235.0</ele><time>2026-04-25T09:18:33.906Z</time></trkpt><trkpt lat="45.6925867" lon="9.602245"><ele>235.0</ele><time>2026-04-25T09:18:34.905Z</time></trkpt><trkpt lat="45.69259" lon="9.602375"><ele>235.4</ele><time>2026-04-25T09:18:36.906Z</time></trkpt><trkpt lat="45.6926533" lon="9.60243"><ele>235.8</ele><time>2026-04-25T09:18:38.903Z</time></trkpt><trkpt lat="45.692725" lon="9.60242"><ele>236.2</ele><time>2026-04-25T09:18:39.906Z</time></trkpt><trkpt lat="45.6928267" lon="9.602385"><ele>236.6</ele><time>2026-04-25T09:18:40.905Z</time></trkpt><trkpt lat="45.69297" lon="9.6023183"><ele>237.0</ele><time>2026-04-25T09:18:41.906Z</time></trkpt><trkpt lat="45.6930967" lon="9.60226"><ele>237.6</ele><time>2026-04-25T09:18:42.906Z</time></trkpt><trkpt lat="45.6931983" lon="9.6022233"><ele>238.2</ele><time>2026-04-25T09:18:43.906Z</time></trkpt><trkpt lat="45.6932767" lon="9.6022017"><ele>238.8</ele><time>2026-04-25T09:18:44.906Z</time></trkpt><trkpt lat="45.6934017" lon="9.6022317"><ele>239.4</ele><time>2026-04-25T09:18:46.906Z</time></trkpt><trkpt lat="45.6934717" lon="9.60227"><ele>240.0</ele><time>2026-04-25T09:18:47.903Z</time></trkpt><trkpt lat="45.693555" lon="9.60229"><ele>240.0</ele><time>2026-04-25T09:18:48.91Z</time></trkpt><trkpt lat="45.6936433" lon="9.60229"><ele>240.0</ele><time>2026-04-25T09:18:49.903Z</time></trkpt><trkpt lat="45.6937233" lon="9.6022267"><ele>240.0</ele><time>2026-04-25T09:18:50.905Z</time></trkpt><trkpt lat="45.693785" lon="9.602105"><ele>240.0</ele><time>2026-04-25T09:18:51.902Z</time></trkpt><trkpt lat="45.6938417" lon="9.6019283"><ele>240.0</ele><time>2026-04-25T09:18:52.903Z</time></trkpt><trkpt lat="45.6938967" lon="9.6017517"><ele>239.5</ele><time>2026-04-25T09:18:53.903Z</time></trkpt><trkpt lat="45.6939517" lon="9.60158"><ele>239.0</ele><time>2026-04-25T09:18:54.905Z</time></trkpt><trkpt lat="45.694005" lon="9.6013917"><ele>238.5</ele><time>2026-04-25T09:18:55.906Z</time></trkpt><trkpt lat="45.6940717" lon="9.601175"><ele>238.0</ele><time>2026-04-25T09:18:56.906Z</time></trkpt><trkpt lat="45.6941483" lon="9.6009417"><ele>237.66666666666666</ele><time>2026-04-25T09:18:57.902Z</time></trkpt><trkpt lat="45.6942317" lon="9.6007"><ele>237.33333333333331</ele><time>2026-04-25T09:18:58.906Z</time></trkpt><trkpt lat="45.6943183" lon="9.600445"><ele>237.0</ele><time>2026-04-25T09:18:59.906Z</time></trkpt><trkpt lat="45.6944067" lon="9.60017"><ele>236.0</ele><time>2026-04-25T09:19:00.909Z</time></trkpt><trkpt lat="45.6944983" lon="9.59988"><ele>235.0</ele><time>2026-04-25T09:19:01.902Z</time></trkpt><trkpt lat="45.6945867" lon="9.5995983"><ele>234.0</ele><time>2026-04-25T09:19:02.904Z</time></trkpt><trkpt lat="45.6946733" lon="9.599325"><ele>233.0</ele><time>2026-04-25T09:19:03.903Z</time></trkpt><trkpt lat="45.6947617" lon="9.5990533"><ele>232.0</ele><time>2026-04-25T09:19:04.906Z</time></trkpt><trkpt lat="45.6948533" lon="9.598795"><ele>231.0</ele><time>2026-04-25T09:19:05.906Z</time></trkpt><trkpt lat="45.6949433" lon="9.5985533"><ele>230.0</ele><time>2026-04-25T09:19:06.906Z</time></trkpt><trkpt lat="45.6950367" lon="9.598325"><ele>229.0</ele><time>2026-04-25T09:19:07.903Z</time></trkpt><trkpt lat="45.6951317" lon="9.59811"><ele>228.0</ele><time>2026-04-25T09:19:08.906Z</time></trkpt><trkpt lat="45.6952317" lon="9.5979"><ele>226.0</ele><time>2026-04-25T09:19:09.903Z</time></trkpt><trkpt lat="45.6953367" lon="9.5977017"><ele>224.0</ele><time>2026-04-25T09:19:10.906Z</time></trkpt><trkpt lat="45.69544" lon="9.5975"><ele>222.0</ele><time>2026-04-25T09:19:11.903Z</time></trkpt><trkpt lat="45.6955433" lon="9.5973083"><ele>222.0</ele><time>2026-04-25T09:19:12.903Z</time></trkpt><trkpt lat="45.6956567" lon="9.597125"><ele>222.0</ele><time>2026-04-25T09:19:13.902Z</time></trkpt><trkpt lat="45.69578" lon="9.596965"><ele>222.0</ele><time>2026-04-25T09:19:14.904Z</time></trkpt><trkpt lat="45.6959167" lon="9.596805"><ele>222.0</ele><time>2026-04-25T09:19:15.902Z</time></trkpt><trkpt lat="45.6960517" lon="9.5966517"><ele>222.0</ele><time>2026-04-25T09:19:16.903Z</time></trkpt><trkpt lat="45.696185" lon="9.596495"><ele>222.0</ele><time>2026-04-25T09:19:17.904Z</time></trkpt><trkpt lat="45.6963183" lon="9.59634"><ele>222.0</ele><time>2026-04-25T09:19:18.904Z</time></trkpt><trkpt lat="45.6964433" lon="9.5961933"><ele>222.0</ele><time>2026-04-25T09:19:19.903Z</time></trkpt><trkpt lat="45.6965633" lon="9.5960583"><ele>222.0</ele><time>2026-04-25T09:19:20.903Z</time></trkpt><trkpt lat="45.6966767" lon="9.5959317"><ele>222.0</ele><time>2026-04-25T09:19:21.903Z</time></trkpt><trkpt lat="45.6967833" lon="9.5958083"><ele>222.0</ele><time>2026-04-25T09:19:22.906Z</time></trkpt><trkpt lat="45.6968917" lon="9.5956933"><ele>222.0</ele><time>2026-04-25T09:19:23.903Z</time></trkpt><trkpt lat="45.6969983" lon="9.59558"><ele>222.0</ele><time>2026-04-25T09:19:24.907Z</time></trkpt><trkpt lat="45.697115" lon="9.595465"><ele>222.0</ele><time>2026-04-25T09:19:25.906Z</time></trkpt><trkpt lat="45.6972533" lon="9.595345"><ele>222.0</ele><time>2026-04-25T09:19:26.906Z</time></trkpt><trkpt lat="45.697415" lon="9.5952183"><ele>222.0</ele><time>2026-04-25T09:19:27.905Z</time></trkpt><trkpt lat="45.6975967" lon="9.5950933"><ele>221.0</ele><time>2026-04-25T09:19:28.902Z</time></trkpt><trkpt lat="45.69779" lon="9.594985"><ele>220.0</ele><time>2026-04-25T09:19:29.903Z</time></trkpt><trkpt lat="45.697995" lon="9.5949"><ele>219.0</ele><time>2026-04-25T09:19:30.903Z</time></trkpt><trkpt lat="45.6982033" lon="9.594825"><ele>219.0</ele><time>2026-04-25T09:19:31.903Z</time></trkpt><trkpt lat="45.698415" lon="9.5947567"><ele>219.0</ele><time>2026-04-25T09:19:32.903Z</time></trkpt><trkpt lat="45.69863" lon="9.594695"><ele>219.0</ele><time>2026-04-25T09:19:33.903Z</time></trkpt><trkpt lat="45.6988317" lon="9.5946467"><ele>219.66666666666669</ele><time>2026-04-25T09:19:34.902Z</time></trkpt><trkpt lat="45.69902" lon="9.594585"><ele>220.33333333333334</ele><time>2026-04-25T09:19:35.902Z</time></trkpt><trkpt lat="45.6991883" lon="9.5945083"><ele>221.0</ele><time>2026-04-25T09:19:36.903Z</time></trkpt><trkpt lat="45.6993383" lon="9.59441"><ele>221.5</ele><time>2026-04-25T09:19:37.903Z</time></trkpt><trkpt lat="45.69947" lon="9.5943"><ele>222.0</ele><time>2026-04-25T09:19:38.902Z</time></trkpt><trkpt lat="45.699585" lon="9.5941867"><ele>222.5</ele><time>2026-04-25T09:19:39.904Z</time></trkpt><trkpt lat="45.6996833" lon="9.5940717"><ele>223.0</ele><time>2026-04-25T09:19:40.902Z</time></trkpt><trkpt lat="45.6997717" lon="9.5939567"><ele>223.0</ele><time>2026-04-25T09:19:41.903Z</time></trkpt><trkpt lat="45.6998483" lon="9.5938383"><ele>223.0</ele><time>2026-04-25T09:19:42.902Z</time></trkpt><trkpt lat="45.6999167" lon="9.5937183"><ele>223.0</ele><time>2026-04-25T09:19:43.903Z</time></trkpt><trkpt lat="45.699975" lon="9.5936067"><ele>223.0</ele><time>2026-04-25T09:19:44.903Z</time></trkpt><trkpt lat="45.7000233" lon="9.5935117"><ele>223.0</ele><time>2026-04-25T09:19:45.905Z</time></trkpt><trkpt lat="45.7000917" lon="9.593385"><ele>223.8</ele><time>2026-04-25T09:19:47.903Z</time></trkpt><trkpt lat="45.7001667" lon="9.59333"><ele>224.60000000000002</ele><time>2026-04-25T09:19:49.903Z</time></trkpt><trkpt lat="45.7002667" lon="9.5933283"><ele>225.39999999999998</ele><time>2026-04-25T09:19:52.902Z</time></trkpt><trkpt lat="45.7003667" lon="9.5933583"><ele>226.2</ele><time>2026-04-25T09:19:54.905Z</time></trkpt><trkpt lat="45.7004933" lon="9.59336"><ele>227.0</ele><time>2026-04-25T09:19:56.905Z</time></trkpt><trkpt lat="45.7005667" lon="9.5933367"><ele>227.0</ele><time>2026-04-25T09:19:57.905Z</time></trkpt><trkpt lat="45.7006367" lon="9.5932933"><ele>227.0</ele><time>2026-04-25T09:19:58.906Z</time></trkpt><trkpt lat="45.7007" lon="9.593235"><ele>227.0</ele><time>2026-04-25T09:19:59.905Z</time></trkpt><trkpt lat="45.7007517" lon="9.593095"><ele>227.0</ele><time>2026-04-25T09:20:01.904Z</time></trkpt><trkpt lat="45.7007417" lon="9.5929533"><ele>227.0</ele><time>2026-04-25T09:20:03.902Z</time></trkpt><trkpt lat="45.700685" lon="9.5927833"><ele>227.00000000000003</ele><time>2026-04-25T09:20:05.903Z</time></trkpt><trkpt lat="45.7006533" lon="9.5926917"><ele>227.0</ele><time>2026-04-25T09:20:06.902Z</time></trkpt><trkpt lat="45.7006233" lon="9.5925967"><ele>227.0</ele><time>2026-04-25T09:20:07.902Z</time></trkpt><trkpt lat="45.700605" lon="9.5924917"><ele>227.0</ele><time>2026-04-25T09:20:08.903Z</time></trkpt><trkpt lat="45.7006033" lon="9.5923733"><ele>227.00000000000003</ele><time>2026-04-25T09:20:09.903Z</time></trkpt><trkpt lat="45.7006283" lon="9.592245"><ele>227.0</ele><time>2026-04-25T09:20:10.902Z</time></trkpt><trkpt lat="45.7006733" lon="9.592105"><ele>227.6</ele><time>2026-04-25T09:20:11.901Z</time></trkpt><trkpt lat="45.7007117" lon="9.5919583"><ele>228.2</ele><time>2026-04-25T09:20:12.902Z</time></trkpt><trkpt lat="45.7007467" lon="9.5918133"><ele>228.8</ele><time>2026-04-25T09:20:13.902Z</time></trkpt><trkpt lat="45.7007733" lon="9.5916717"><ele>229.4</ele><time>2026-04-25T09:20:14.902Z</time></trkpt><trkpt lat="45.7007867" lon="9.59152"><ele>230.0</ele><time>2026-04-25T09:20:15.902Z</time></trkpt><trkpt lat="45.700785" lon="9.59136"><ele>230.0</ele><time>2026-04-25T09:20:16.902Z</time></trkpt><trkpt lat="45.7007683" lon="9.5911817"><ele>230.0</ele><time>2026-04-25T09:20:17.902Z</time></trkpt><trkpt lat="45.7007283" lon="9.590975"><ele>230.0</ele><time>2026-04-25T09:20:18.902Z</time></trkpt><trkpt lat="45.7006683" lon="9.5907333"><ele>230.0</ele><time>2026-04-25T09:20:19.902Z</time></trkpt><trkpt lat="45.7005967" lon="9.590465"><ele>230.0</ele><time>2026-04-25T09:20:20.902Z</time></trkpt><trkpt lat="45.700525" lon="9.590195"><ele>230.0</ele><time>2026-04-25T09:20:21.902Z</time></trkpt><trkpt lat="45.7004517" lon="9.58994"><ele>229.66666666666669</ele><time>2026-04-25T09:20:22.901Z</time></trkpt><trkpt lat="45.700385" lon="9.58969"><ele>229.33333333333331</ele><time>2026-04-25T09:20:23.902Z</time></trkpt><trkpt lat="45.70032" lon="9.5894383"><ele>229.0</ele><time>2026-04-25T09:20:24.905Z</time></trkpt><trkpt lat="45.70026" lon="9.5891783"><ele>228.0</ele><time>2026-04-25T09:20:25.905Z</time></trkpt><trkpt lat="45.7002083" lon="9.5889117"><ele>227.0</ele><time>2026-04-25T09:20:26.902Z</time></trkpt><trkpt lat="45.7001567" lon="9.5886417"><ele>226.0</ele><time>2026-04-25T09:20:27.906Z</time></trkpt><trkpt lat="45.700105" lon="9.5883717"><ele>225.33333333333331</ele><time>2026-04-25T09:20:28.905Z</time></trkpt><trkpt lat="45.700055" lon="9.588105"><ele>224.66666666666669</ele><time>2026-04-25T09:20:29.905Z</time></trkpt><trkpt lat="45.7000033" lon="9.5878367"><ele>224.0</ele><time>2026-04-25T09:20:30.905Z</time></trkpt><trkpt lat="45.6999533" lon="9.58757"><ele>225.33333333333334</ele><time>2026-04-25T09:20:31.906Z</time></trkpt><trkpt lat="45.6999017" lon="9.5873067"><ele>226.66666666666669</ele><time>2026-04-25T09:20:32.905Z</time></trkpt><trkpt lat="45.6998567" lon="9.5870533"><ele>228.0</ele><time>2026-04-25T09:20:33.905Z</time></trkpt><trkpt lat="45.699815" lon="9.5868083"><ele>231.33333333333331</ele><time>2026-04-25T09:20:34.905Z</time></trkpt><trkpt lat="45.6997683" lon="9.58656"><ele>234.66666666666666</ele><time>2026-04-25T09:20:35.904Z</time></trkpt><trkpt lat="45.6997217" lon="9.5862967"><ele>238.0</ele><time>2026-04-25T09:20:36.906Z</time></trkpt><trkpt lat="45.699675" lon="9.5860183"><ele>239.66666666666666</ele><time>2026-04-25T09:20:37.905Z</time></trkpt><trkpt lat="45.6996283" lon="9.58574"><ele>241.33333333333331</ele><time>2026-04-25T09:20:38.905Z</time></trkpt><trkpt lat="45.6995817" lon="9.585465"><ele>243.0</ele><time>2026-04-25T09:20:39.905Z</time></trkpt><trkpt lat="45.6995367" lon="9.5851883"><ele>243.0</ele><time>2026-04-25T09:20:40.905Z</time></trkpt><trkpt lat="45.6995067" lon="9.5849133"><ele>243.0</ele><time>2026-04-25T09:20:41.905Z</time></trkpt><trkpt lat="45.69949" lon="9.5846483"><ele>243.0</ele><time>2026-04-25T09:20:42.903Z</time></trkpt><trkpt lat="45.6994817" lon="9.5843967"><ele>243.0</ele><time>2026-04-25T09:20:43.902Z</time></trkpt><trkpt lat="45.69948" lon="9.5841567"><ele>243.0</ele><time>2026-04-25T09:20:44.903Z</time></trkpt><trkpt lat="45.69949" lon="9.5839217"><ele>243.0</ele><time>2026-04-25T09:20:45.902Z</time></trkpt><trkpt lat="45.699505" lon="9.583685"><ele>243.0</ele><time>2026-04-25T09:20:46.902Z</time></trkpt><trkpt lat="45.6995317" lon="9.583435"><ele>243.0</ele><time>2026-04-25T09:20:47.903Z</time></trkpt><trkpt lat="45.699565" lon="9.5831817"><ele>243.0</ele><time>2026-04-25T09:20:48.903Z</time></trkpt><trkpt lat="45.6996117" lon="9.58293"><ele>242.0</ele><time>2026-04-25T09:20:49.904Z</time></trkpt><trkpt lat="45.6996683" lon="9.5826733"><ele>241.0</ele><time>2026-04-25T09:20:50.902Z</time></trkpt><trkpt lat="45.699735" lon="9.5824183"><ele>240.0</ele><time>2026-04-25T09:20:51.903Z</time></trkpt><trkpt lat="45.6998" lon="9.5821683"><ele>240.0</ele><time>2026-04-25T09:20:52.902Z</time></trkpt><trkpt lat="45.6998617" lon="9.581925"><ele>240.0</ele><time>2026-04-25T09:20:53.902Z</time></trkpt><trkpt lat="45.6999183" lon="9.58169"><ele>240.0</ele><time>2026-04-25T09:20:54.905Z</time></trkpt><trkpt lat="45.6999717" lon="9.5814633"><ele>240.0</ele><time>2026-04-25T09:20:55.904Z</time></trkpt><trkpt lat="45.7000233" lon="9.5812483"><ele>240.0</ele><time>2026-04-25T09:20:56.905Z</time></trkpt><trkpt lat="45.7000733" lon="9.5810433"><ele>240.0</ele><time>2026-04-25T09:20:57.905Z</time></trkpt><trkpt lat="45.700125" lon="9.5808383"><ele>239.66666666666669</ele><time>2026-04-25T09:20:58.905Z</time></trkpt><trkpt lat="45.7001767" lon="9.5806167"><ele>239.33333333333334</ele><time>2026-04-25T09:20:59.905Z</time></trkpt><trkpt lat="45.7002283" lon="9.5803767"><ele>239.0</ele><time>2026-04-25T09:21:00.905Z</time></trkpt><trkpt lat="45.7002817" lon="9.5801333"><ele>239.66666666666669</ele><time>2026-04-25T09:21:01.905Z</time></trkpt><trkpt lat="45.7003383" lon="9.5799017"><ele>240.33333333333331</ele><time>2026-04-25T09:21:02.905Z</time></trkpt><trkpt lat="45.700395" lon="9.579675"><ele>241.0</ele><time>2026-04-25T09:21:03.907Z</time></trkpt><trkpt lat="45.700445" lon="9.5794583"><ele>242.0</ele><time>2026-04-25T09:21:04.905Z</time></trkpt><trkpt lat="45.7004883" lon="9.579255"><ele>243.0</ele><time>2026-04-25T09:21:05.905Z</time></trkpt><trkpt lat="45.7005217" lon="9.5790683"><ele>244.0</ele><time>2026-04-25T09:21:06.905Z</time></trkpt><trkpt lat="45.7005433" lon="9.5789067"><ele>245.0</ele><time>2026-04-25T09:21:07.905Z</time></trkpt><trkpt lat="45.7005567" lon="9.5787667"><ele>245.2</ele><time>2026-04-25T09:21:08.905Z</time></trkpt><trkpt lat="45.7005717" lon="9.5786467"><ele>245.4</ele><time>2026-04-25T09:21:09.905Z</time></trkpt><trkpt lat="45.7005983" lon="9.57853"><ele>245.60000000000002</ele><time>2026-04-25T09:21:10.905Z</time></trkpt><trkpt lat="45.700635" lon="9.5784083"><ele>245.8</ele><time>2026-04-25T09:21:11.905Z</time></trkpt><trkpt lat="45.70067" lon="9.5782683"><ele>246.0</ele><time>2026-04-25T09:21:12.905Z</time></trkpt><trkpt lat="45.7007" lon="9.5781"><ele>246.0</ele><time>2026-04-25T09:21:13.905Z</time></trkpt><trkpt lat="45.70074" lon="9.5779183"><ele>246.0</ele><time>2026-04-25T09:21:14.905Z</time></trkpt><trkpt lat="45.7008" lon="9.5777267"><ele>246.0</ele><time>2026-04-25T09:21:15.905Z</time></trkpt><trkpt lat="45.70087" lon="9.5775133"><ele>246.0</ele><time>2026-04-25T09:21:16.905Z</time></trkpt><trkpt lat="45.7009417" lon="9.577275"><ele>245.33333333333331</ele><time>2026-04-25T09:21:17.902Z</time></trkpt><trkpt lat="45.7010133" lon="9.57701"><ele>244.66666666666666</ele><time>2026-04-25T09:21:18.902Z</time></trkpt><trkpt lat="45.7010867" lon="9.576725"><ele>244.0</ele><time>2026-04-25T09:21:19.903Z</time></trkpt><trkpt lat="45.701165" lon="9.5764283"><ele>243.5</ele><time>2026-04-25T09:21:20.902Z</time></trkpt><trkpt lat="45.7012667" lon="9.5761067"><ele>243.0</ele><time>2026-04-25T09:21:21.902Z</time></trkpt><trkpt lat="45.7013883" lon="9.5757783"><ele>243.0</ele><time>2026-04-25T09:21:22.902Z</time></trkpt><trkpt lat="45.7015183" lon="9.575465"><ele>243.0</ele><time>2026-04-25T09:21:23.903Z</time></trkpt><trkpt lat="45.7016567" lon="9.57517"><ele>243.0</ele><time>2026-04-25T09:21:24.906Z</time></trkpt><trkpt lat="45.7018033" lon="9.5748967"><ele>243.0</ele><time>2026-04-25T09:21:25.905Z</time></trkpt><trkpt lat="45.7019583" lon="9.57464"><ele>242.0</ele><time>2026-04-25T09:21:26.905Z</time></trkpt><trkpt lat="45.702125" lon="9.57439"><ele>241.0</ele><time>2026-04-25T09:21:27.905Z</time></trkpt><trkpt lat="45.7022967" lon="9.57415"><ele>241.0</ele><time>2026-04-25T09:21:28.902Z</time></trkpt><trkpt lat="45.7024717" lon="9.5739167"><ele>241.0</ele><time>2026-04-25T09:21:29.906Z</time></trkpt><trkpt lat="45.7026517" lon="9.5736933"><ele>242.5</ele><time>2026-04-25T09:21:30.905Z</time></trkpt><trkpt lat="45.7028367" lon="9.573475"><ele>244.0</ele><time>2026-04-25T09:21:31.905Z</time></trkpt><trkpt lat="45.7030233" lon="9.5732583"><ele>244.0</ele><time>2026-04-25T09:21:32.905Z</time></trkpt><trkpt lat="45.7032083" lon="9.57304"><ele>244.0</ele><time>2026-04-25T09:21:33.905Z</time></trkpt><trkpt lat="45.7033917" lon="9.5728233"><ele>244.5</ele><time>2026-04-25T09:21:34.902Z</time></trkpt><trkpt lat="45.703575" lon="9.5726083"><ele>245.0</ele><time>2026-04-25T09:21:35.906Z</time></trkpt><trkpt lat="45.7037567" lon="9.5723917"><ele>245.0</ele><time>2026-04-25T09:21:36.905Z</time></trkpt><trkpt lat="45.703935" lon="9.5721783"><ele>245.0</ele><time>2026-04-25T09:21:37.905Z</time></trkpt><trkpt lat="45.7041167" lon="9.5719683"><ele>245.5</ele><time>2026-04-25T09:21:38.905Z</time></trkpt><trkpt lat="45.7042983" lon="9.5717633"><ele>246.0</ele><time>2026-04-25T09:21:39.905Z</time></trkpt><trkpt lat="45.70448" lon="9.5715583"><ele>246.0</ele><time>2026-04-25T09:21:40.905Z</time></trkpt><trkpt lat="45.7046617" lon="9.5713533"><ele>246.0</ele><time>2026-04-25T09:21:41.905Z</time></trkpt><trkpt lat="45.70484" lon="9.57115"><ele>246.33333333333331</ele><time>2026-04-25T09:21:42.902Z</time></trkpt><trkpt lat="45.7050183" lon="9.5709517"><ele>246.66666666666666</ele><time>2026-04-25T09:21:43.902Z</time></trkpt><trkpt lat="45.7051883" lon="9.5707517"><ele>247.0</ele><time>2026-04-25T09:21:44.906Z</time></trkpt><trkpt lat="45.70535" lon="9.5705567"><ele>247.0</ele><time>2026-04-25T09:21:45.902Z</time></trkpt><trkpt lat="45.705505" lon="9.5703633"><ele>247.0</ele><time>2026-04-25T09:21:46.901Z</time></trkpt><trkpt lat="45.7056483" lon="9.5701833"><ele>247.0</ele><time>2026-04-25T09:21:47.902Z</time></trkpt><trkpt lat="45.7057867" lon="9.5700183"><ele>247.0</ele><time>2026-04-25T09:21:48.902Z</time></trkpt><trkpt lat="45.7059133" lon="9.5698617"><ele>247.0</ele><time>2026-04-25T09:21:49.903Z</time></trkpt><trkpt lat="45.7060433" lon="9.5697117"><ele>247.0</ele><time>2026-04-25T09:21:50.903Z</time></trkpt><trkpt lat="45.7061717" lon="9.569555"><ele>247.33333333333331</ele><time>2026-04-25T09:21:51.905Z</time></trkpt><trkpt lat="45.706305" lon="9.56939"><ele>247.66666666666669</ele><time>2026-04-25T09:21:52.903Z</time></trkpt><trkpt lat="45.7064517" lon="9.56922"><ele>248.0</ele><time>2026-04-25T09:21:53.904Z</time></trkpt><trkpt lat="45.7066083" lon="9.5690417"><ele>248.0</ele><time>2026-04-25T09:21:54.907Z</time></trkpt><trkpt lat="45.70677" lon="9.5688633"><ele>248.0</ele><time>2026-04-25T09:21:55.905Z</time></trkpt><trkpt lat="45.7069283" lon="9.5686817"><ele>248.0</ele><time>2026-04-25T09:21:56.906Z</time></trkpt><trkpt lat="45.7070867" lon="9.5684933"><ele>248.33333333333334</ele><time>2026-04-25T09:21:57.905Z</time></trkpt><trkpt lat="45.707245" lon="9.568305"><ele>248.66666666666669</ele><time>2026-04-25T09:21:58.905Z</time></trkpt><trkpt lat="45.7074083" lon="9.56811"><ele>249.0</ele><time>2026-04-25T09:21:59.905Z</time></trkpt><trkpt lat="45.7075817" lon="9.56791"><ele>249.0</ele><time>2026-04-25T09:22:00.905Z</time></trkpt><trkpt lat="45.707765" lon="9.5676967"><ele>249.0</ele><time>2026-04-25T09:22:01.905Z</time></trkpt><trkpt lat="45.7079583" lon="9.5674667"><ele>249.0</ele><time>2026-04-25T09:22:02.904Z</time></trkpt><trkpt lat="45.70815" lon="9.5672367"><ele>249.0</ele><time>2026-04-25T09:22:03.905Z</time></trkpt><trkpt lat="45.7083383" lon="9.5670167"><ele>249.0</ele><time>2026-04-25T09:22:04.905Z</time></trkpt><trkpt lat="45.7085133" lon="9.5668117"><ele>249.0</ele><time>2026-04-25T09:22:05.904Z</time></trkpt><trkpt lat="45.70868" lon="9.56662"><ele>249.0</ele><time>2026-04-25T09:22:06.905Z</time></trkpt><trkpt lat="45.7088383" lon="9.5664383"><ele>248.66666666666669</ele><time>2026-04-25T09:22:07.905Z</time></trkpt><trkpt lat="45.70899" lon="9.566265"><ele>248.33333333333334</ele><time>2026-04-25T09:22:08.905Z</time></trkpt><trkpt lat="45.70913" lon="9.566105"><ele>248.0</ele><time>2026-04-25T09:22:09.905Z</time></trkpt><trkpt lat="45.7092583" lon="9.565965"><ele>248.60000000000002</ele><time>2026-04-25T09:22:10.905Z</time></trkpt><trkpt lat="45.7093683" lon="9.565855"><ele>249.20000000000002</ele><time>2026-04-25T09:22:11.905Z</time></trkpt><trkpt lat="45.7094633" lon="9.565785"><ele>249.8</ele><time>2026-04-25T09:22:12.905Z</time></trkpt><trkpt lat="45.70956" lon="9.5657583"><ele>250.4</ele><time>2026-04-25T09:22:13.905Z</time></trkpt><trkpt lat="45.709655" lon="9.5657733"><ele>251.0</ele><time>2026-04-25T09:22:14.906Z</time></trkpt><trkpt lat="45.7097517" lon="9.565795"><ele>251.00000000000003</ele><time>2026-04-25T09:22:15.907Z</time></trkpt><trkpt lat="45.7098333" lon="9.5657867"><ele>251.0</ele><time>2026-04-25T09:22:16.902Z</time></trkpt><trkpt lat="45.7099" lon="9.5657417"><ele>251.0</ele><time>2026-04-25T09:22:17.904Z</time></trkpt><trkpt lat="45.7099367" lon="9.5656617"><ele>251.0</ele><time>2026-04-25T09:22:18.903Z</time></trkpt><trkpt lat="45.709945" lon="9.5655267"><ele>251.00000000000003</ele><time>2026-04-25T09:22:19.903Z</time></trkpt><trkpt lat="45.70997" lon="9.5654"><ele>251.0</ele><time>2026-04-25T09:22:20.903Z</time></trkpt><trkpt lat="45.7100083" lon="9.5652817"><ele>251.25</ele><time>2026-04-25T09:22:21.903Z</time></trkpt><trkpt lat="45.71008" lon="9.5651817"><ele>251.5</ele><time>2026-04-25T09:22:22.903Z</time></trkpt><trkpt lat="45.7101917" lon="9.56508"><ele>251.75</ele><time>2026-04-25T09:22:23.903Z</time></trkpt><trkpt lat="45.7103467" lon="9.5649717"><ele>252.0</ele><time>2026-04-25T09:22:24.906Z</time></trkpt><trkpt lat="45.7105383" lon="9.5648283"><ele>252.33333333333331</ele><time>2026-04-25T09:22:25.908Z</time></trkpt><trkpt lat="45.7107167" lon="9.56465"><ele>252.66666666666666</ele><time>2026-04-25T09:22:26.906Z</time></trkpt><trkpt lat="45.71089" lon="9.5644333"><ele>253.0</ele><time>2026-04-25T09:22:27.907Z</time></trkpt><trkpt lat="45.711055" lon="9.5642017"><ele>252.5</ele><time>2026-04-25T09:22:28.906Z</time></trkpt><trkpt lat="45.7112167" lon="9.5639583"><ele>252.0</ele><time>2026-04-25T09:22:29.905Z</time></trkpt><trkpt lat="45.7113767" lon="9.56371"><ele>252.5</ele><time>2026-04-25T09:22:30.902Z</time></trkpt><trkpt lat="45.7115367" lon="9.5634717"><ele>253.0</ele><time>2026-04-25T09:22:31.905Z</time></trkpt><trkpt lat="45.711695" lon="9.5632383"><ele>253.0</ele><time>2026-04-25T09:22:32.906Z</time></trkpt><trkpt lat="45.711865" lon="9.5629967"><ele>253.0</ele><time>2026-04-25T09:22:33.905Z</time></trkpt><trkpt lat="45.712055" lon="9.562745"><ele>253.5</ele><time>2026-04-25T09:22:34.905Z</time></trkpt><trkpt lat="45.7122517" lon="9.562505"><ele>254.0</ele><time>2026-04-25T09:22:35.905Z</time></trkpt><trkpt lat="45.7124483" lon="9.562265"><ele>255.0</ele><time>2026-04-25T09:22:36.905Z</time></trkpt><trkpt lat="45.71264" lon="9.562025"><ele>256.0</ele><time>2026-04-25T09:22:37.906Z</time></trkpt><trkpt lat="45.7128217" lon="9.5618017"><ele>256.0</ele><time>2026-04-25T09:22:38.906Z</time></trkpt><trkpt lat="45.7129917" lon="9.5615983"><ele>256.0</ele><time>2026-04-25T09:22:39.905Z</time></trkpt><trkpt lat="45.71315" lon="9.5614117"><ele>256.0</ele><time>2026-04-25T09:22:40.909Z</time></trkpt><trkpt lat="45.7132967" lon="9.5612383"><ele>256.0</ele><time>2026-04-25T09:22:41.903Z</time></trkpt><trkpt lat="45.7134317" lon="9.561075"><ele>256.0</ele><time>2026-04-25T09:22:42.904Z</time></trkpt><trkpt lat="45.7135583" lon="9.56093"><ele>256.0</ele><time>2026-04-25T09:22:43.906Z</time></trkpt><trkpt lat="45.7136817" lon="9.560805"><ele>256.5</ele><time>2026-04-25T09:22:44.906Z</time></trkpt><trkpt lat="45.7138033" lon="9.5606983"><ele>257.0</ele><time>2026-04-25T09:22:45.906Z</time></trkpt><trkpt lat="45.7139167" lon="9.560615"><ele>257.5</ele><time>2026-04-25T09:22:46.906Z</time></trkpt><trkpt lat="45.714015" lon="9.5605583"><ele>258.0</ele><time>2026-04-25T09:22:47.901Z</time></trkpt><trkpt lat="45.7140917" lon="9.560525"><ele>258.0</ele><time>2026-04-25T09:22:48.902Z</time></trkpt><trkpt lat="45.7141533" lon="9.560505"><ele>258.0</ele><time>2026-04-25T09:22:49.903Z</time></trkpt><trkpt lat="45.7142583" lon="9.560505"><ele>258.0</ele><time>2026-04-25T09:22:51.902Z</time></trkpt><trkpt lat="45.7143867" lon="9.5605417"><ele>258.0</ele><time>2026-04-25T09:22:53.903Z</time></trkpt><trkpt lat="45.7144583" lon="9.5605333"><ele>258.0</ele><time>2026-04-25T09:22:54.906Z</time></trkpt><trkpt lat="45.7145333" lon="9.5605"><ele>258.0</ele><time>2026-04-25T09:22:55.903Z</time></trkpt><trkpt lat="45.7146033" lon="9.5604367"><ele>258.4</ele><time>2026-04-25T09:22:56.906Z</time></trkpt><trkpt lat="45.7146433" lon="9.560335"><ele>258.8</ele><time>2026-04-25T09:22:57.906Z</time></trkpt><trkpt lat="45.714665" lon="9.5602017"><ele>259.2</ele><time>2026-04-25T09:22:58.906Z</time></trkpt><trkpt lat="45.7146717" lon="9.5600717"><ele>259.6</ele><time>2026-04-25T09:22:59.905Z</time></trkpt><trkpt lat="45.71465" lon="9.5599233"><ele>260.0</ele><time>2026-04-25T09:23:00.902Z</time></trkpt><trkpt lat="45.7146483" lon="9.5597867"><ele>260.0</ele><time>2026-04-25T09:23:01.906Z</time></trkpt><trkpt lat="45.71467" lon="9.559655"><ele>260.0</ele><time>2026-04-25T09:23:02.906Z</time></trkpt><trkpt lat="45.71473" lon="9.55953"><ele>260.0</ele><time>2026-04-25T09:23:03.906Z</time></trkpt><trkpt lat="45.7148017" lon="9.5594067"><ele>260.0</ele><time>2026-04-25T09:23:04.906Z</time></trkpt><trkpt lat="45.71488" lon="9.5592967"><ele>260.0</ele><time>2026-04-25T09:23:05.903Z</time></trkpt><trkpt lat="45.714955" lon="9.5592017"><ele>260.0</ele><time>2026-04-25T09:23:06.906Z</time></trkpt><trkpt lat="45.71504" lon="9.5591083"><ele>260.0</ele><time>2026-04-25T09:23:07.905Z</time></trkpt><trkpt lat="45.7151333" lon="9.5590083"><ele>260.0</ele><time>2026-04-25T09:23:08.905Z</time></trkpt><trkpt lat="45.715235" lon="9.5588917"><ele>260.0</ele><time>2026-04-25T09:23:09.906Z</time></trkpt><trkpt lat="45.7153533" lon="9.558755"><ele>260.6666666666667</ele><time>2026-04-25T09:23:10.906Z</time></trkpt><trkpt lat="45.7154883" lon="9.5586017"><ele>261.3333333333333</ele><time>2026-04-25T09:23:11.906Z</time></trkpt><trkpt lat="45.7156383" lon="9.5584317"><ele>262.0</ele><time>2026-04-25T09:23:12.905Z</time></trkpt><trkpt lat="45.7158033" lon="9.55824"><ele>262.0</ele><time>2026-04-25T09:23:13.906Z</time></trkpt><trkpt lat="45.7159767" lon="9.5580367"><ele>262.0</ele><time>2026-04-25T09:23:14.905Z</time></trkpt><trkpt lat="45.7161517" lon="9.5578333"><ele>262.0</ele><time>2026-04-25T09:23:15.906Z</time></trkpt><trkpt lat="45.71632" lon="9.55764"><ele>262.0</ele><time>2026-04-25T09:23:16.905Z</time></trkpt><trkpt lat="45.716475" lon="9.5574617"><ele>262.0</ele><time>2026-04-25T09:23:17.903Z</time></trkpt><trkpt lat="45.71662" lon="9.5572933"><ele>262.0</ele><time>2026-04-25T09:23:18.902Z</time></trkpt><trkpt lat="45.7167617" lon="9.557135"><ele>262.3333333333333</ele><time>2026-04-25T09:23:19.903Z</time></trkpt><trkpt lat="45.7168967" lon="9.5569983"><ele>262.6666666666667</ele><time>2026-04-25T09:23:20.903Z</time></trkpt><trkpt lat="45.71703" lon="9.5568833"><ele>263.0</ele><time>2026-04-25T09:23:21.906Z</time></trkpt><trkpt lat="45.7171683" lon="9.556785"><ele>263.33333333333337</ele><time>2026-04-25T09:23:22.903Z</time></trkpt><trkpt lat="45.717315" lon="9.55671"><ele>263.6666666666667</ele><time>2026-04-25T09:23:23.903Z</time></trkpt><trkpt lat="45.7174617" lon="9.5566467"><ele>264.0</ele><time>2026-04-25T09:23:24.906Z</time></trkpt><trkpt lat="45.7176117" lon="9.5565933"><ele>264.0</ele><time>2026-04-25T09:23:25.905Z</time></trkpt><trkpt lat="45.717765" lon="9.556535"><ele>264.0</ele><time>2026-04-25T09:23:26.906Z</time></trkpt><trkpt lat="45.7179233" lon="9.5564717"><ele>264.0</ele><time>2026-04-25T09:23:27.906Z</time></trkpt><trkpt lat="45.71809" lon="9.5564067"><ele>264.0</ele><time>2026-04-25T09:23:28.905Z</time></trkpt><trkpt lat="45.71827" lon="9.5563467"><ele>264.0</ele><time>2026-04-25T09:23:29.906Z</time></trkpt><trkpt lat="45.7184617" lon="9.5562933"><ele>264.0</ele><time>2026-04-25T09:23:30.905Z</time></trkpt><trkpt lat="45.7186467" lon="9.5562417"><ele>264.3333333333333</ele><time>2026-04-25T09:23:31.906Z</time></trkpt><trkpt lat="45.7188233" lon="9.5561883"><ele>264.66666666666663</ele><time>2026-04-25T09:23:32.906Z</time></trkpt><trkpt lat="45.718985" lon="9.5561317"><ele>265.0</ele><time>2026-04-25T09:23:33.906Z</time></trkpt><trkpt lat="45.7191267" lon="9.55608"><ele>265.0</ele><time>2026-04-25T09:23:34.905Z</time></trkpt><trkpt lat="45.7192483" lon="9.55604"><ele>265.0</ele><time>2026-04-25T09:23:35.906Z</time></trkpt><trkpt lat="45.719355" lon="9.5560167"><ele>265.0</ele><time>2026-04-25T09:23:36.906Z</time></trkpt><trkpt lat="45.7194483" lon="9.556015"><ele>265.0</ele><time>2026-04-25T09:23:37.902Z</time></trkpt><trkpt lat="45.7195383" lon="9.5560167"><ele>265.0</ele><time>2026-04-25T09:23:38.906Z</time></trkpt><trkpt lat="45.719625" lon="9.5559867"><ele>265.4</ele><time>2026-04-25T09:23:39.905Z</time></trkpt><trkpt lat="45.7197083" lon="9.5559333"><ele>265.8</ele><time>2026-04-25T09:23:40.906Z</time></trkpt><trkpt lat="45.7197933" lon="9.5558667"><ele>266.2</ele><time>2026-04-25T09:23:41.906Z</time></trkpt><trkpt lat="45.719885" lon="9.55582"><ele>266.6</ele><time>2026-04-25T09:23:42.906Z</time></trkpt><trkpt lat="45.7199983" lon="9.5557833"><ele>267.0</ele><time>2026-04-25T09:23:43.906Z</time></trkpt><trkpt lat="45.7201333" lon="9.555755"><ele>266.3333333333333</ele><time>2026-04-25T09:23:44.906Z</time></trkpt><trkpt lat="45.72029" lon="9.5557183"><ele>265.66666666666663</ele><time>2026-04-25T09:23:45.906Z</time></trkpt><trkpt lat="45.7204583" lon="9.5556733"><ele>265.0</ele><time>2026-04-25T09:23:46.906Z</time></trkpt><trkpt lat="45.7206483" lon="9.555615"><ele>265.0</ele><time>2026-04-25T09:23:47.903Z</time></trkpt><trkpt lat="45.7208417" lon="9.555555"><ele>265.0</ele><time>2026-04-25T09:23:48.903Z</time></trkpt><trkpt lat="45.7210283" lon="9.555495"><ele>265.0</ele><time>2026-04-25T09:23:49.903Z</time></trkpt><trkpt lat="45.7212117" lon="9.5554333"><ele>266.0</ele><time>2026-04-25T09:23:50.903Z</time></trkpt><trkpt lat="45.7213967" lon="9.5553717"><ele>267.0</ele><time>2026-04-25T09:23:51.902Z</time></trkpt><trkpt lat="45.7215817" lon="9.555305"><ele>268.0</ele><time>2026-04-25T09:23:52.902Z</time></trkpt><trkpt lat="45.7217633" lon="9.555235"><ele>268.0</ele><time>2026-04-25T09:23:53.903Z</time></trkpt><trkpt lat="45.72194" lon="9.55516"><ele>268.0</ele><time>2026-04-25T09:23:54.906Z</time></trkpt><trkpt lat="45.7221083" lon="9.5550733"><ele>268.0</ele><time>2026-04-25T09:23:55.906Z</time></trkpt><trkpt lat="45.7222633" lon="9.554975"><ele>268.0</ele><time>2026-04-25T09:23:56.906Z</time></trkpt><trkpt lat="45.7224067" lon="9.554865"><ele>268.0</ele><time>2026-04-25T09:23:57.905Z</time></trkpt><trkpt lat="45.7225433" lon="9.5547483"><ele>268.0</ele><time>2026-04-25T09:23:58.906Z</time></trkpt><trkpt lat="45.7226783" lon="9.5546233"><ele>268.3333333333333</ele><time>2026-04-25T09:23:59.905Z</time></trkpt><trkpt lat="45.7228133" lon="9.5544867"><ele>268.6666666666667</ele><time>2026-04-25T09:24:00.906Z</time></trkpt><trkpt lat="45.7229433" lon="9.554345"><ele>269.0</ele><time>2026-04-25T09:24:01.905Z</time></trkpt><trkpt lat="45.7230667" lon="9.5542067"><ele>269.0</ele><time>2026-04-25T09:24:02.906Z</time></trkpt><trkpt lat="45.723185" lon="9.5540567"><ele>269.0</ele><time>2026-04-25T09:24:03.902Z</time></trkpt><trkpt lat="45.7233083" lon="9.5538883"><ele>269.0</ele><time>2026-04-25T09:24:04.906Z</time></trkpt><trkpt lat="45.7234383" lon="9.553705"><ele>269.0</ele><time>2026-04-25T09:24:05.905Z</time></trkpt><trkpt lat="45.7235767" lon="9.55351"><ele>269.0</ele><time>2026-04-25T09:24:06.906Z</time></trkpt><trkpt lat="45.7237217" lon="9.5532983"><ele>269.0</ele><time>2026-04-25T09:24:07.906Z</time></trkpt><trkpt lat="45.7238667" lon="9.553095"><ele>269.0</ele><time>2026-04-25T09:24:08.906Z</time></trkpt><trkpt lat="45.7240017" lon="9.552905"><ele>269.0</ele><time>2026-04-25T09:24:09.905Z</time></trkpt><trkpt lat="45.7241267" lon="9.552735"><ele>269.0</ele><time>2026-04-25T09:24:10.906Z</time></trkpt><trkpt lat="45.724235" lon="9.55259"><ele>269.0</ele><time>2026-04-25T09:24:11.905Z</time></trkpt><trkpt lat="45.724345" lon="9.55247"><ele>269.0</ele><time>2026-04-25T09:24:12.906Z</time></trkpt><trkpt lat="45.7244733" lon="9.5523583"><ele>269.0</ele><time>2026-04-25T09:24:13.905Z</time></trkpt><trkpt lat="45.7246183" lon="9.5522617"><ele>269.0</ele><time>2026-04-25T09:24:14.907Z</time></trkpt><trkpt lat="45.7247617" lon="9.5522033"><ele>269.0</ele><time>2026-04-25T09:24:15.906Z</time></trkpt><trkpt lat="45.7249033" lon="9.5521833"><ele>269.0</ele><time>2026-04-25T09:24:16.906Z</time></trkpt><trkpt lat="45.7250333" lon="9.5522"><ele>269.0</ele><time>2026-04-25T09:24:17.903Z</time></trkpt><trkpt lat="45.7251433" lon="9.5522367"><ele>269.0</ele><time>2026-04-25T09:24:18.903Z</time></trkpt><trkpt lat="45.72524" lon="9.5522783"><ele>269.4</ele><time>2026-04-25T09:24:19.903Z</time></trkpt><trkpt lat="45.72533" lon="9.552315"><ele>269.79999999999995</ele><time>2026-04-25T09:24:20.904Z</time></trkpt><trkpt lat="45.725425" lon="9.55236"><ele>270.20000000000005</ele><time>2026-04-25T09:24:21.905Z</time></trkpt><trkpt lat="45.725535" lon="9.5524267"><ele>270.6</ele><time>2026-04-25T09:24:22.903Z</time></trkpt><trkpt lat="45.725655" lon="9.5525117"><ele>271.0</ele><time>2026-04-25T09:24:23.904Z</time></trkpt><trkpt lat="45.7257683" lon="9.5526167"><ele>271.0</ele><time>2026-04-25T09:24:24.904Z</time></trkpt><trkpt lat="45.725875" lon="9.55274"><ele>271.0</ele><time>2026-04-25T09:24:25.906Z</time></trkpt><trkpt lat="45.7259783" lon="9.5529017"><ele>271.0</ele><time>2026-04-25T09:24:26.904Z</time></trkpt><trkpt lat="45.7260783" lon="9.5530967"><ele>271.0</ele><time>2026-04-25T09:24:27.906Z</time></trkpt><trkpt lat="45.7261667" lon="9.5533283"><ele>271.0</ele><time>2026-04-25T09:24:28.906Z</time></trkpt><trkpt lat="45.7262467" lon="9.5535683"><ele>271.0</ele><time>2026-04-25T09:24:29.903Z</time></trkpt><trkpt lat="45.7263217" lon="9.5537867"><ele>270.66666666666663</ele><time>2026-04-25T09:24:30.903Z</time></trkpt><trkpt lat="45.7263933" lon="9.5539833"><ele>270.3333333333333</ele><time>2026-04-25T09:24:31.905Z</time></trkpt><trkpt lat="45.7264717" lon="9.5541683"><ele>270.0</ele><time>2026-04-25T09:24:32.906Z</time></trkpt><trkpt lat="45.7265717" lon="9.5543583"><ele>270.3333333333333</ele><time>2026-04-25T09:24:33.906Z</time></trkpt><trkpt lat="45.7266967" lon="9.5545467"><ele>270.66666666666663</ele><time>2026-04-25T09:24:34.906Z</time></trkpt><trkpt lat="45.7268417" lon="9.5547233"><ele>271.0</ele><time>2026-04-25T09:24:35.906Z</time></trkpt><trkpt lat="45.7270033" lon="9.554865"><ele>271.0</ele><time>2026-04-25T09:24:36.906Z</time></trkpt><trkpt lat="45.727175" lon="9.5549533"><ele>271.0</ele><time>2026-04-25T09:24:37.903Z</time></trkpt><trkpt lat="45.72735" lon="9.5550017"><ele>271.0</ele><time>2026-04-25T09:24:38.906Z</time></trkpt><trkpt lat="45.72753" lon="9.5550133"><ele>271.0</ele><time>2026-04-25T09:24:39.906Z</time></trkpt><trkpt lat="45.727695" lon="9.5550033"><ele>271.0</ele><time>2026-04-25T09:24:40.905Z</time></trkpt><trkpt lat="45.7278317" lon="9.5549983"><ele>271.0</ele><time>2026-04-25T09:24:41.906Z</time></trkpt><trkpt lat="45.7279483" lon="9.5550217"><ele>271.0</ele><time>2026-04-25T09:24:42.905Z</time></trkpt><trkpt lat="45.7280417" lon="9.55508"><ele>271.6</ele><time>2026-04-25T09:24:43.906Z</time></trkpt><trkpt lat="45.728115" lon="9.555175"><ele>272.20000000000005</ele><time>2026-04-25T09:24:44.906Z</time></trkpt><trkpt lat="45.7281733" lon="9.5552867"><ele>272.79999999999995</ele><time>2026-04-25T09:24:45.906Z</time></trkpt><trkpt lat="45.7282167" lon="9.5554383"><ele>273.4</ele><time>2026-04-25T09:24:46.906Z</time></trkpt><trkpt lat="45.728235" lon="9.555635"><ele>274.0</ele><time>2026-04-25T09:24:47.903Z</time></trkpt><trkpt lat="45.7282483" lon="9.555845"><ele>276.0</ele><time>2026-04-25T09:24:48.904Z</time></trkpt><trkpt lat="45.72826" lon="9.5560633"><ele>278.0</ele><time>2026-04-25T09:24:49.904Z</time></trkpt><trkpt lat="45.7282667" lon="9.5562883"><ele>280.0</ele><time>2026-04-25T09:24:50.903Z</time></trkpt><trkpt lat="45.7282733" lon="9.5565183"><ele>280.3333333333333</ele><time>2026-04-25T09:24:51.904Z</time></trkpt><trkpt lat="45.7282867" lon="9.5567617"><ele>280.6666666666667</ele><time>2026-04-25T09:24:52.903Z</time></trkpt><trkpt lat="45.7283133" lon="9.5570183"><ele>281.0</ele><time>2026-04-25T09:24:53.904Z</time></trkpt><trkpt lat="45.728355" lon="9.5572767"><ele>279.6666666666667</ele><time>2026-04-25T09:24:54.906Z</time></trkpt><trkpt lat="45.7284083" lon="9.5575367"><ele>278.3333333333333</ele><time>2026-04-25T09:24:55.906Z</time></trkpt><trkpt lat="45.728465" lon="9.5578167"><ele>277.0</ele><time>2026-04-25T09:24:56.906Z</time></trkpt><trkpt lat="45.72853" lon="9.5581117"><ele>277.66666666666663</ele><time>2026-04-25T09:24:57.906Z</time></trkpt><trkpt lat="45.7285933" lon="9.5584017"><ele>278.3333333333333</ele><time>2026-04-25T09:24:58.906Z</time></trkpt><trkpt lat="45.728655" lon="9.558675"><ele>279.0</ele><time>2026-04-25T09:24:59.905Z</time></trkpt><trkpt lat="45.7287083" lon="9.558935"><ele>279.0</ele><time>2026-04-25T09:25:00.906Z</time></trkpt><trkpt lat="45.7287517" lon="9.559175"><ele>279.0</ele><time>2026-04-25T09:25:01.906Z</time></trkpt><trkpt lat="45.7287783" lon="9.5593933"><ele>279.0</ele><time>2026-04-25T09:25:02.906Z</time></trkpt><trkpt lat="45.7287917" lon="9.5595917"><ele>279.5</ele><time>2026-04-25T09:25:03.906Z</time></trkpt><trkpt lat="45.7288017" lon="9.5597683"><ele>280.0</ele><time>2026-04-25T09:25:04.905Z</time></trkpt><trkpt lat="45.7288117" lon="9.55994"><ele>280.5</ele><time>2026-04-25T09:25:05.906Z</time></trkpt><trkpt lat="45.7288183" lon="9.5601217"><ele>281.0</ele><time>2026-04-25T09:25:06.906Z</time></trkpt><trkpt lat="45.7288183" lon="9.5602933"><ele>280.8</ele><time>2026-04-25T09:25:07.905Z</time></trkpt><trkpt lat="45.728805" lon="9.560465"><ele>280.6</ele><time>2026-04-25T09:25:08.905Z</time></trkpt><trkpt lat="45.7287767" lon="9.5606283"><ele>280.4</ele><time>2026-04-25T09:25:09.905Z</time></trkpt><trkpt lat="45.7287467" lon="9.5607767"><ele>280.2</ele><time>2026-04-25T09:25:10.905Z</time></trkpt><trkpt lat="45.7287183" lon="9.5609067"><ele>280.0</ele><time>2026-04-25T09:25:11.903Z</time></trkpt><trkpt lat="45.7286867" lon="9.5610117"><ele>280.0</ele><time>2026-04-25T09:25:12.905Z</time></trkpt><trkpt lat="45.72865" lon="9.5611017"><ele>280.0</ele><time>2026-04-25T09:25:13.904Z</time></trkpt><trkpt lat="45.7286" lon="9.5611833"><ele>280.0</ele><time>2026-04-25T09:25:14.906Z</time></trkpt><trkpt lat="45.7285433" lon="9.561265"><ele>280.0</ele><time>2026-04-25T09:25:15.904Z</time></trkpt><trkpt lat="45.7284967" lon="9.5613567"><ele>280.0</ele><time>2026-04-25T09:25:16.905Z</time></trkpt><trkpt lat="45.7284683" lon="9.5614533"><ele>280.0</ele><time>2026-04-25T09:25:17.902Z</time></trkpt><trkpt lat="45.728475" lon="9.5615583"><ele>279.8333333333333</ele><time>2026-04-25T09:25:18.902Z</time></trkpt><trkpt lat="45.72852" lon="9.5616583"><ele>279.66666666666663</ele><time>2026-04-25T09:25:19.902Z</time></trkpt><trkpt lat="45.728595" lon="9.5617217"><ele>279.5</ele><time>2026-04-25T09:25:20.903Z</time></trkpt><trkpt lat="45.7286883" lon="9.5617483"><ele>279.3333333333333</ele><time>2026-04-25T09:25:21.902Z</time></trkpt><trkpt lat="45.728775" lon="9.56175"><ele>279.1666666666667</ele><time>2026-04-25T09:25:22.902Z</time></trkpt><trkpt lat="45.72886" lon="9.5617117"><ele>279.0</ele><time>2026-04-25T09:25:23.902Z</time></trkpt><trkpt lat="45.7289417" lon="9.5616783"><ele>279.0</ele><time>2026-04-25T09:25:24.905Z</time></trkpt><trkpt lat="45.729005" lon="9.56167"><ele>279.0</ele><time>2026-04-25T09:25:25.905Z</time></trkpt><trkpt lat="45.72913" lon="9.561715"><ele>279.0</ele><time>2026-04-25T09:25:27.905Z</time></trkpt><trkpt lat="45.7291933" lon="9.561775"><ele>279.0</ele><time>2026-04-25T09:25:28.905Z</time></trkpt><trkpt lat="45.729255" lon="9.56185"><ele>279.0</ele><time>2026-04-25T09:25:29.905Z</time></trkpt><trkpt lat="45.7293083" lon="9.5619333"><ele>279.0</ele><time>2026-04-25T09:25:30.905Z</time></trkpt><trkpt lat="45.729365" lon="9.5620233"><ele>280.0</ele><time>2026-04-25T09:25:31.905Z</time></trkpt><trkpt lat="45.7294283" lon="9.562105"><ele>281.0</ele><time>2026-04-25T09:25:32.905Z</time></trkpt><trkpt lat="45.7295" lon="9.56219"><ele>282.0</ele><time>2026-04-25T09:25:33.905Z</time></trkpt><trkpt lat="45.7295817" lon="9.56229"><ele>283.0</ele><time>2026-04-25T09:25:34.905Z</time></trkpt><trkpt lat="45.7296733" lon="9.5624"><ele>284.0</ele><time>2026-04-25T09:25:35.905Z</time></trkpt><trkpt lat="45.729765" lon="9.5625183"><ele>284.0</ele><time>2026-04-25T09:25:36.905Z</time></trkpt><trkpt lat="45.7298617" lon="9.562655"><ele>284.0</ele><time>2026-04-25T09:25:37.905Z</time></trkpt><trkpt lat="45.7299617" lon="9.562795"><ele>284.0</ele><time>2026-04-25T09:25:38.905Z</time></trkpt><trkpt lat="45.7300617" lon="9.5629417"><ele>284.0</ele><time>2026-04-25T09:25:39.905Z</time></trkpt><trkpt lat="45.730165" lon="9.5630867"><ele>284.5</ele><time>2026-04-25T09:25:40.905Z</time></trkpt><trkpt lat="45.7302717" lon="9.56323"><ele>285.0</ele><time>2026-04-25T09:25:41.905Z</time></trkpt><trkpt lat="45.73038" lon="9.5633767"><ele>285.5</ele><time>2026-04-25T09:25:42.904Z</time></trkpt><trkpt lat="45.7304867" lon="9.5635167"><ele>286.0</ele><time>2026-04-25T09:25:43.905Z</time></trkpt><trkpt lat="45.7305917" lon="9.5636567"><ele>285.75</ele><time>2026-04-25T09:25:44.905Z</time></trkpt><trkpt lat="45.7306983" lon="9.5637933"><ele>285.5</ele><time>2026-04-25T09:25:45.905Z</time></trkpt><trkpt lat="45.7308033" lon="9.56393"><ele>285.25</ele><time>2026-04-25T09:25:46.905Z</time></trkpt><trkpt lat="45.7309117" lon="9.564065"><ele>285.0</ele><time>2026-04-25T09:25:47.902Z</time></trkpt><trkpt lat="45.7310217" lon="9.564205"><ele>285.25</ele><time>2026-04-25T09:25:48.902Z</time></trkpt><trkpt lat="45.731135" lon="9.5643467"><ele>285.5</ele><time>2026-04-25T09:25:49.902Z</time></trkpt><trkpt lat="45.7312433" lon="9.5644933"><ele>285.75</ele><time>2026-04-25T09:25:50.902Z</time></trkpt><trkpt lat="45.73135" lon="9.5646267"><ele>286.0</ele><time>2026-04-25T09:25:51.902Z</time></trkpt><trkpt lat="45.7314533" lon="9.5647417"><ele>286.0</ele><time>2026-04-25T09:25:52.902Z</time></trkpt><trkpt lat="45.731545" lon="9.5648517"><ele>286.0</ele><time>2026-04-25T09:25:53.902Z</time></trkpt><trkpt lat="45.7316233" lon="9.5649483"><ele>286.0</ele><time>2026-04-25T09:25:54.905Z</time></trkpt><trkpt lat="45.7316933" lon="9.5650283"><ele>286.0</ele><time>2026-04-25T09:25:55.905Z</time></trkpt><trkpt lat="45.731755" lon="9.5651033"><ele>286.0</ele><time>2026-04-25T09:25:56.905Z</time></trkpt><trkpt lat="45.73182" lon="9.5651933"><ele>286.75</ele><time>2026-04-25T09:25:57.905Z</time></trkpt><trkpt lat="45.7319017" lon="9.56531"><ele>287.5</ele><time>2026-04-25T09:25:58.905Z</time></trkpt><trkpt lat="45.7319983" lon="9.5654483"><ele>288.25</ele><time>2026-04-25T09:25:59.905Z</time></trkpt><trkpt lat="45.7320983" lon="9.5656"><ele>289.0</ele><time>2026-04-25T09:26:00.905Z</time></trkpt><trkpt lat="45.7321967" lon="9.565755"><ele>289.0</ele><time>2026-04-25T09:26:01.905Z</time></trkpt><trkpt lat="45.7322933" lon="9.5659133"><ele>289.0</ele><time>2026-04-25T09:26:02.905Z</time></trkpt><trkpt lat="45.732385" lon="9.56608"><ele>289.0</ele><time>2026-04-25T09:26:03.905Z</time></trkpt><trkpt lat="45.7324717" lon="9.5662467"><ele>289.0</ele><time>2026-04-25T09:26:04.904Z</time></trkpt><trkpt lat="45.732555" lon="9.56641"><ele>288.75</ele><time>2026-04-25T09:26:05.905Z</time></trkpt><trkpt lat="45.7326367" lon="9.5665733"><ele>288.5</ele><time>2026-04-25T09:26:06.905Z</time></trkpt><trkpt lat="45.7327133" lon="9.5667367"><ele>288.25</ele><time>2026-04-25T09:26:07.905Z</time></trkpt><trkpt lat="45.732785" lon="9.5668983"><ele>288.0</ele><time>2026-04-25T09:26:08.906Z</time></trkpt><trkpt lat="45.7328533" lon="9.5670467"><ele>288.8</ele><time>2026-04-25T09:26:09.905Z</time></trkpt><trkpt lat="45.7329083" lon="9.5671933"><ele>289.6</ele><time>2026-04-25T09:26:10.906Z</time></trkpt><trkpt lat="45.7329567" lon="9.56732"><ele>290.4</ele><time>2026-04-25T09:26:11.905Z</time></trkpt><trkpt lat="45.7329917" lon="9.5674233"><ele>291.2</ele><time>2026-04-25T09:26:12.905Z</time></trkpt><trkpt lat="45.7330283" lon="9.56752"><ele>292.0</ele><time>2026-04-25T09:26:13.905Z</time></trkpt><trkpt lat="45.7330667" lon="9.5676283"><ele>292.0</ele><time>2026-04-25T09:26:14.905Z</time></trkpt><trkpt lat="45.73311" lon="9.5677617"><ele>292.0</ele><time>2026-04-25T09:26:15.905Z</time></trkpt><trkpt lat="45.73317" lon="9.5679117"><ele>292.0</ele><time>2026-04-25T09:26:16.904Z</time></trkpt><trkpt lat="45.733245" lon="9.5680667"><ele>292.0</ele><time>2026-04-25T09:26:17.902Z</time></trkpt><trkpt lat="45.7333417" lon="9.568215"><ele>292.0</ele><time>2026-04-25T09:26:18.902Z</time></trkpt><trkpt lat="45.73345" lon="9.5683567"><ele>292.0</ele><time>2026-04-25T09:26:19.902Z</time></trkpt><trkpt lat="45.7335717" lon="9.5684733"><ele>292.0</ele><time>2026-04-25T09:26:20.903Z</time></trkpt><trkpt lat="45.733685" lon="9.56858"><ele>292.0</ele><time>2026-04-25T09:26:21.901Z</time></trkpt><trkpt lat="45.7337817" lon="9.5686733"><ele>291.6</ele><time>2026-04-25T09:26:22.905Z</time></trkpt><trkpt lat="45.73386" lon="9.5687617"><ele>291.2</ele><time>2026-04-25T09:26:23.905Z</time></trkpt><trkpt lat="45.7339183" lon="9.5688533"><ele>290.8</ele><time>2026-04-25T09:26:24.908Z</time></trkpt><trkpt lat="45.7339583" lon="9.5689683"><ele>290.4</ele><time>2026-04-25T09:26:25.905Z</time></trkpt><trkpt lat="45.7339883" lon="9.569115"><ele>290.0</ele><time>2026-04-25T09:26:26.905Z</time></trkpt><trkpt lat="45.73401" lon="9.5693067"><ele>290.0</ele><time>2026-04-25T09:26:27.905Z</time></trkpt><trkpt lat="45.73404" lon="9.569475"><ele>290.0</ele><time>2026-04-25T09:26:28.905Z</time></trkpt><trkpt lat="45.7340683" lon="9.5696017"><ele>290.0</ele><time>2026-04-25T09:26:29.905Z</time></trkpt><trkpt lat="45.7340767" lon="9.5697"><ele>290.0</ele><time>2026-04-25T09:26:30.9Z</time></trkpt><trkpt lat="45.7339867" lon="9.56979"><ele>290.0</ele><time>2026-04-25T09:26:38.905Z</time></trkpt><trkpt lat="45.7338933" lon="9.5698383"><ele>290.25</ele><time>2026-04-25T09:26:39.907Z</time></trkpt><trkpt lat="45.7337867" lon="9.569915"><ele>290.5</ele><time>2026-04-25T09:26:40.905Z</time></trkpt><trkpt lat="45.7336667" lon="9.57003"><ele>290.75</ele><time>2026-04-25T09:26:41.905Z</time></trkpt><trkpt lat="45.733545" lon="9.570165"><ele>291.0</ele><time>2026-04-25T09:26:42.904Z</time></trkpt><trkpt lat="45.7334317" lon="9.5703383"><ele>289.6666666666667</ele><time>2026-04-25T09:26:43.905Z</time></trkpt><trkpt lat="45.733325" lon="9.5705233"><ele>288.33333333333337</ele><time>2026-04-25T09:26:44.905Z</time></trkpt><trkpt lat="45.73322" lon="9.5706817"><ele>287.0</ele><time>2026-04-25T09:26:45.905Z</time></trkpt><trkpt lat="45.7331083" lon="9.5708067"><ele>287.0</ele><time>2026-04-25T09:26:46.905Z</time></trkpt><trkpt lat="45.73299" lon="9.5708833"><ele>287.0</ele><time>2026-04-25T09:26:47.902Z</time></trkpt><trkpt lat="45.7328567" lon="9.5709467"><ele>287.0</ele><time>2026-04-25T09:26:48.905Z</time></trkpt><trkpt lat="45.7327167" lon="9.5710017"><ele>287.0</ele><time>2026-04-25T09:26:49.905Z</time></trkpt><trkpt lat="45.732575" lon="9.5710683"><ele>286.6666666666667</ele><time>2026-04-25T09:26:50.904Z</time></trkpt><trkpt lat="45.732435" lon="9.571165"><ele>286.3333333333333</ele><time>2026-04-25T09:26:51.906Z</time></trkpt><trkpt lat="45.732295" lon="9.57128"><ele>286.0</ele><time>2026-04-25T09:26:52.905Z</time></trkpt><trkpt lat="45.73216" lon="9.5713983"><ele>285.5</ele><time>2026-04-25T09:26:53.905Z</time></trkpt><trkpt lat="45.73203" lon="9.5715117"><ele>285.0</ele><time>2026-04-25T09:26:54.906Z</time></trkpt><trkpt lat="45.7319183" lon="9.5716133"><ele>284.5</ele><time>2026-04-25T09:26:55.905Z</time></trkpt><trkpt lat="45.7318183" lon="9.5716967"><ele>284.0</ele><time>2026-04-25T09:26:56.905Z</time></trkpt><trkpt lat="45.73173" lon="9.5717617"><ele>283.59999999999997</ele><time>2026-04-25T09:26:57.905Z</time></trkpt><trkpt lat="45.7316467" lon="9.5718133"><ele>283.2</ele><time>2026-04-25T09:26:58.906Z</time></trkpt><trkpt lat="45.7315633" lon="9.5718483"><ele>282.79999999999995</ele><time>2026-04-25T09:26:59.905Z</time></trkpt><trkpt lat="45.731475" lon="9.571875"><ele>282.4</ele><time>2026-04-25T09:27:00.905Z</time></trkpt><trkpt lat="45.7313767" lon="9.571895"><ele>282.0</ele><time>2026-04-25T09:27:01.902Z</time></trkpt><trkpt lat="45.7312683" lon="9.5719167"><ele>282.0</ele><time>2026-04-25T09:27:02.903Z</time></trkpt><trkpt lat="45.731155" lon="9.57193"><ele>282.0</ele><time>2026-04-25T09:27:03.902Z</time></trkpt><trkpt lat="45.7310367" lon="9.571945"><ele>282.0</ele><time>2026-04-25T09:27:04.905Z</time></trkpt><trkpt lat="45.7309133" lon="9.5719583"><ele>282.0</ele><time>2026-04-25T09:27:05.905Z</time></trkpt><trkpt lat="45.73079" lon="9.5719667"><ele>282.0</ele><time>2026-04-25T09:27:06.905Z</time></trkpt><trkpt lat="45.7306717" lon="9.571975"><ele>282.0</ele><time>2026-04-25T09:27:07.905Z</time></trkpt><trkpt lat="45.7305583" lon="9.571975"><ele>282.0</ele><time>2026-04-25T09:27:08.906Z</time></trkpt><trkpt lat="45.73045" lon="9.571975"><ele>282.0</ele><time>2026-04-25T09:27:09.905Z</time></trkpt><trkpt lat="45.7303467" lon="9.571975"><ele>282.0</ele><time>2026-04-25T09:27:10.901Z</time></trkpt><trkpt lat="45.730255" lon="9.57198"><ele>282.1666666666667</ele><time>2026-04-25T09:27:11.906Z</time></trkpt><trkpt lat="45.7301733" lon="9.5719817"><ele>282.3333333333333</ele><time>2026-04-25T09:27:12.902Z</time></trkpt><trkpt lat="45.730105" lon="9.5719833"><ele>282.5</ele><time>2026-04-25T09:27:13.904Z</time></trkpt><trkpt lat="45.730035" lon="9.5720317"><ele>282.66666666666663</ele><time>2026-04-25T09:27:15.906Z</time></trkpt><trkpt lat="45.7301333" lon="9.5720617"><ele>282.8333333333333</ele><time>2026-04-25T09:27:19.902Z</time></trkpt><trkpt lat="45.7302133" lon="9.572045"><ele>283.0</ele><time>2026-04-25T09:27:20.903Z</time></trkpt><trkpt lat="45.73032" lon="9.5720333"><ele>282.75</ele><time>2026-04-25T09:27:21.902Z</time></trkpt><trkpt lat="45.730445" lon="9.5720267"><ele>282.5</ele><time>2026-04-25T09:27:22.902Z</time></trkpt><trkpt lat="45.7305783" lon="9.572025"><ele>282.25</ele><time>2026-04-25T09:27:23.902Z</time></trkpt><trkpt lat="45.7307133" lon="9.5720233"><ele>282.0</ele><time>2026-04-25T09:27:24.903Z</time></trkpt><trkpt lat="45.7308517" lon="9.5720133"><ele>282.0</ele><time>2026-04-25T09:27:25.902Z</time></trkpt><trkpt lat="45.73099" lon="9.572"><ele>282.0</ele><time>2026-04-25T09:27:26.903Z</time></trkpt><trkpt lat="45.73113" lon="9.5719767"><ele>282.0</ele><time>2026-04-25T09:27:27.902Z</time></trkpt><trkpt lat="45.7312633" lon="9.5719583"><ele>282.0</ele><time>2026-04-25T09:27:28.902Z</time></trkpt><trkpt lat="45.7313967" lon="9.571935"><ele>282.0</ele><time>2026-04-25T09:27:29.906Z</time></trkpt><trkpt lat="45.7315283" lon="9.5719"><ele>282.0</ele><time>2026-04-25T09:27:30.905Z</time></trkpt><trkpt lat="45.7316617" lon="9.571845"><ele>282.0</ele><time>2026-04-25T09:27:31.905Z</time></trkpt><trkpt lat="45.7317917" lon="9.5717683"><ele>282.0</ele><time>2026-04-25T09:27:32.905Z</time></trkpt><trkpt lat="45.7319167" lon="9.571675"><ele>282.5</ele><time>2026-04-25T09:27:33.905Z</time></trkpt><trkpt lat="45.7320367" lon="9.5715717"><ele>283.0</ele><time>2026-04-25T09:27:34.906Z</time></trkpt><trkpt lat="45.732155" lon="9.571475"><ele>283.5</ele><time>2026-04-25T09:27:35.905Z</time></trkpt><trkpt lat="45.7322733" lon="9.5713767"><ele>284.0</ele><time>2026-04-25T09:27:36.904Z</time></trkpt><trkpt lat="45.7323867" lon="9.571285"><ele>284.0</ele><time>2026-04-25T09:27:37.906Z</time></trkpt><trkpt lat="45.7325017" lon="9.5712"><ele>284.0</ele><time>2026-04-25T09:27:38.905Z</time></trkpt><trkpt lat="45.7326167" lon="9.5711133"><ele>284.0</ele><time>2026-04-25T09:27:39.906Z</time></trkpt><trkpt lat="45.7327433" lon="9.5710583"><ele>284.0</ele><time>2026-04-25T09:27:40.905Z</time></trkpt><trkpt lat="45.7328733" lon="9.5710017"><ele>284.75</ele><time>2026-04-25T09:27:41.905Z</time></trkpt><trkpt lat="45.7329967" lon="9.5709383"><ele>285.5</ele><time>2026-04-25T09:27:42.906Z</time></trkpt><trkpt lat="45.7331133" lon="9.5708717"><ele>286.25</ele><time>2026-04-25T09:27:43.905Z</time></trkpt><trkpt lat="45.73321" lon="9.57076"><ele>287.0</ele><time>2026-04-25T09:27:44.905Z</time></trkpt><trkpt lat="45.7332983" lon="9.5706283"><ele>287.0</ele><time>2026-04-25T09:27:45.905Z</time></trkpt><trkpt lat="45.733385" lon="9.57047"><ele>287.0</ele><time>2026-04-25T09:27:46.905Z</time></trkpt><trkpt lat="45.7334717" lon="9.570325"><ele>287.0</ele><time>2026-04-25T09:27:47.905Z</time></trkpt><trkpt lat="45.733555" lon="9.5701967"><ele>287.0</ele><time>2026-04-25T09:27:48.902Z</time></trkpt><trkpt lat="45.7336517" lon="9.5700817"><ele>288.0</ele><time>2026-04-25T09:27:49.903Z</time></trkpt><trkpt lat="45.73376" lon="9.5699867"><ele>289.0</ele><time>2026-04-25T09:27:50.903Z</time></trkpt><trkpt lat="45.7338717" lon="9.569915"><ele>290.0</ele><time>2026-04-25T09:27:51.902Z</time></trkpt><trkpt lat="45.7339867" lon="9.5698717"><ele>291.0</ele><time>2026-04-25T09:27:52.903Z</time></trkpt><trkpt lat="45.7341067" lon="9.5698467"><ele>291.0</ele><time>2026-04-25T09:27:53.902Z</time></trkpt><trkpt lat="45.734235" lon="9.5698317"><ele>291.0</ele><time>2026-04-25T09:27:54.902Z</time></trkpt><trkpt lat="45.7343667" lon="9.5698067"><ele>291.0</ele><time>2026-04-25T09:27:55.902Z</time></trkpt><trkpt lat="45.7345" lon="9.569765"><ele>291.0</ele><time>2026-04-25T09:27:56.903Z</time></trkpt><trkpt lat="45.7346317" lon="9.569715"><ele>290.5</ele><time>2026-04-25T09:27:57.902Z</time></trkpt><trkpt lat="45.73476" lon="9.5696683"><ele>290.0</ele><time>2026-04-25T09:27:58.902Z</time></trkpt><trkpt lat="45.7348767" lon="9.5696283"><ele>289.5</ele><time>2026-04-25T09:27:59.906Z</time></trkpt><trkpt lat="45.734985" lon="9.569615"><ele>289.0</ele><time>2026-04-25T09:28:00.905Z</time></trkpt><trkpt lat="45.7350933" lon="9.5696517"><ele>289.0</ele><time>2026-04-25T09:28:01.905Z</time></trkpt><trkpt lat="45.735205" lon="9.5697283"><ele>289.0</ele><time>2026-04-25T09:28:02.906Z</time></trkpt><trkpt lat="45.73533" lon="9.5698367"><ele>289.0</ele><time>2026-04-25T09:28:03.905Z</time></trkpt><trkpt lat="45.7354567" lon="9.56996"><ele>289.0</ele><time>2026-04-25T09:28:04.905Z</time></trkpt><trkpt lat="45.7355733" lon="9.5700783"><ele>289.25</ele><time>2026-04-25T09:28:05.905Z</time></trkpt><trkpt lat="45.735675" lon="9.5702017"><ele>289.5</ele><time>2026-04-25T09:28:06.905Z</time></trkpt><trkpt lat="45.7357733" lon="9.5703233"><ele>289.75</ele><time>2026-04-25T09:28:07.905Z</time></trkpt><trkpt lat="45.73587" lon="9.5704517"><ele>290.0</ele><time>2026-04-25T09:28:08.904Z</time></trkpt><trkpt lat="45.73597" lon="9.570595"><ele>290.0</ele><time>2026-04-25T09:28:09.905Z</time></trkpt><trkpt lat="45.73607" lon="9.570755"><ele>290.0</ele><time>2026-04-25T09:28:10.905Z</time></trkpt><trkpt lat="45.7361717" lon="9.5709217"><ele>290.0</ele><time>2026-04-25T09:28:11.906Z</time></trkpt><trkpt lat="45.7362667" lon="9.5710967"><ele>289.6666666666667</ele><time>2026-04-25T09:28:12.905Z</time></trkpt><trkpt lat="45.7363483" lon="9.5712967"><ele>289.3333333333333</ele><time>2026-04-25T09:28:13.904Z</time></trkpt><trkpt lat="45.7364233" lon="9.571505"><ele>289.0</ele><time>2026-04-25T09:28:14.905Z</time></trkpt><trkpt lat="45.7364967" lon="9.5717"><ele>289.0</ele><time>2026-04-25T09:28:15.902Z</time></trkpt><trkpt lat="45.7365617" lon="9.5718683"><ele>289.0</ele><time>2026-04-25T09:28:16.905Z</time></trkpt><trkpt lat="45.736615" lon="9.5720117"><ele>289.0</ele><time>2026-04-25T09:28:17.903Z</time></trkpt><trkpt lat="45.736675" lon="9.5721383"><ele>289.0</ele><time>2026-04-25T09:28:18.903Z</time></trkpt><trkpt lat="45.7367417" lon="9.5722733"><ele>288.75</ele><time>2026-04-25T09:28:19.903Z</time></trkpt><trkpt lat="45.73682" lon="9.572435"><ele>288.5</ele><time>2026-04-25T09:28:20.904Z</time></trkpt><trkpt lat="45.736905" lon="9.57261"><ele>288.25</ele><time>2026-04-25T09:28:21.903Z</time></trkpt><trkpt lat="45.7369933" lon="9.5727767"><ele>288.0</ele><time>2026-04-25T09:28:22.903Z</time></trkpt><trkpt lat="45.737085" lon="9.572915"><ele>289.25</ele><time>2026-04-25T09:28:23.902Z</time></trkpt><trkpt lat="45.73719" lon="9.573005"><ele>290.5</ele><time>2026-04-25T09:28:24.903Z</time></trkpt><trkpt lat="45.7373067" lon="9.57304"><ele>291.75</ele><time>2026-04-25T09:28:25.903Z</time></trkpt><trkpt lat="45.73743" lon="9.573045"><ele>293.0</ele><time>2026-04-25T09:28:26.904Z</time></trkpt><trkpt lat="45.7375533" lon="9.5730317"><ele>293.0</ele><time>2026-04-25T09:28:27.909Z</time></trkpt><trkpt lat="45.7376683" lon="9.57303"><ele>293.0</ele><time>2026-04-25T09:28:28.904Z</time></trkpt><trkpt lat="45.737765" lon="9.573055"><ele>293.0</ele><time>2026-04-25T09:28:29.903Z</time></trkpt><trkpt lat="45.73784" lon="9.57312"><ele>293.0</ele><time>2026-04-25T09:28:30.906Z</time></trkpt><trkpt lat="45.7378967" lon="9.573215"><ele>293.0</ele><time>2026-04-25T09:28:31.905Z</time></trkpt><trkpt lat="45.737935" lon="9.5733467"><ele>293.25</ele><time>2026-04-25T09:28:32.906Z</time></trkpt><trkpt lat="45.7379417" lon="9.57352"><ele>293.5</ele><time>2026-04-25T09:28:33.905Z</time></trkpt><trkpt lat="45.737945" lon="9.5737183"><ele>293.75</ele><time>2026-04-25T09:28:34.906Z</time></trkpt><trkpt lat="45.7379533" lon="9.5739183"><ele>294.0</ele><time>2026-04-25T09:28:35.905Z</time></trkpt><trkpt lat="45.737975" lon="9.57412"><ele>295.0</ele><time>2026-04-25T09:28:36.905Z</time></trkpt><trkpt lat="45.738" lon="9.57432"><ele>296.0</ele><time>2026-04-25T09:28:37.905Z</time></trkpt><trkpt lat="45.73803" lon="9.57451"><ele>297.0</ele><time>2026-04-25T09:28:38.906Z</time></trkpt><trkpt lat="45.7380683" lon="9.5746933"><ele>298.0</ele><time>2026-04-25T09:28:39.904Z</time></trkpt><trkpt lat="45.7381117" lon="9.5748617"><ele>298.0</ele><time>2026-04-25T09:28:40.906Z</time></trkpt><trkpt lat="45.7381533" lon="9.5750167"><ele>298.0</ele><time>2026-04-25T09:28:41.905Z</time></trkpt><trkpt lat="45.7382017" lon="9.5751583"><ele>298.0</ele><time>2026-04-25T09:28:42.905Z</time></trkpt><trkpt lat="45.7382467" lon="9.57529"><ele>298.0</ele><time>2026-04-25T09:28:43.905Z</time></trkpt><trkpt lat="45.7382867" lon="9.57541"><ele>298.0</ele><time>2026-04-25T09:28:44.903Z</time></trkpt><trkpt lat="45.7383217" lon="9.5755183"><ele>298.3333333333333</ele><time>2026-04-25T09:28:45.906Z</time></trkpt><trkpt lat="45.7383533" lon="9.5756217"><ele>298.66666666666663</ele><time>2026-04-25T09:28:46.905Z</time></trkpt><trkpt lat="45.7383883" lon="9.5757217"><ele>299.0</ele><time>2026-04-25T09:28:47.903Z</time></trkpt><trkpt lat="45.7384217" lon="9.5758267"><ele>299.3333333333333</ele><time>2026-04-25T09:28:48.902Z</time></trkpt><trkpt lat="45.7384567" lon="9.57593"><ele>299.6666666666667</ele><time>2026-04-25T09:28:49.903Z</time></trkpt><trkpt lat="45.73849" lon="9.5760417"><ele>300.0</ele><time>2026-04-25T09:28:50.904Z</time></trkpt><trkpt lat="45.7385267" lon="9.5761633"><ele>300.6</ele><time>2026-04-25T09:28:51.902Z</time></trkpt><trkpt lat="45.7385667" lon="9.576295"><ele>301.2</ele><time>2026-04-25T09:28:52.902Z</time></trkpt><trkpt lat="45.7386117" lon="9.57644"><ele>301.8</ele><time>2026-04-25T09:28:53.903Z</time></trkpt><trkpt lat="45.738655" lon="9.5766"><ele>302.4</ele><time>2026-04-25T09:28:54.903Z</time></trkpt><trkpt lat="45.7387" lon="9.576755"><ele>303.0</ele><time>2026-04-25T09:28:55.905Z</time></trkpt><trkpt lat="45.7387433" lon="9.5769017"><ele>302.8</ele><time>2026-04-25T09:28:56.903Z</time></trkpt><trkpt lat="45.7387867" lon="9.5770367"><ele>302.6</ele><time>2026-04-25T09:28:57.902Z</time></trkpt><trkpt lat="45.738825" lon="9.57716"><ele>302.4</ele><time>2026-04-25T09:28:58.902Z</time></trkpt><trkpt lat="45.7388617" lon="9.5772733"><ele>302.2</ele><time>2026-04-25T09:28:59.903Z</time></trkpt><trkpt lat="45.7389" lon="9.577385"><ele>302.0</ele><time>2026-04-25T09:29:00.903Z</time></trkpt><trkpt lat="45.7389383" lon="9.5775283"><ele>302.0</ele><time>2026-04-25T09:29:01.903Z</time></trkpt><trkpt lat="45.7389783" lon="9.5776967"><ele>302.0</ele><time>2026-04-25T09:29:02.906Z</time></trkpt><trkpt lat="45.73902" lon="9.5778817"><ele>302.0</ele><time>2026-04-25T09:29:03.906Z</time></trkpt><trkpt lat="45.7390667" lon="9.5780633"><ele>302.0</ele><time>2026-04-25T09:29:04.906Z</time></trkpt><trkpt lat="45.7391167" lon="9.5782283"><ele>301.75</ele><time>2026-04-25T09:29:05.905Z</time></trkpt><trkpt lat="45.7391817" lon="9.5783767"><ele>301.5</ele><time>2026-04-25T09:29:06.905Z</time></trkpt><trkpt lat="45.7392633" lon="9.5785217"><ele>301.25</ele><time>2026-04-25T09:29:07.902Z</time></trkpt><trkpt lat="45.7393517" lon="9.5786617"><ele>301.0</ele><time>2026-04-25T09:29:08.902Z</time></trkpt><trkpt lat="45.7394483" lon="9.5788"><ele>301.0</ele><time>2026-04-25T09:29:09.902Z</time></trkpt><trkpt lat="45.739545" lon="9.5789433"><ele>301.0</ele><time>2026-04-25T09:29:10.906Z</time></trkpt><trkpt lat="45.7396417" lon="9.5790867"><ele>301.0</ele><time>2026-04-25T09:29:11.905Z</time></trkpt><trkpt lat="45.7397333" lon="9.5792267"><ele>301.0</ele><time>2026-04-25T09:29:12.902Z</time></trkpt><trkpt lat="45.7398267" lon="9.5793617"><ele>301.0</ele><time>2026-04-25T09:29:13.905Z</time></trkpt><trkpt lat="45.739925" lon="9.5794917"><ele>301.0</ele><time>2026-04-25T09:29:14.905Z</time></trkpt><trkpt lat="45.7400267" lon="9.5796117"><ele>301.0</ele><time>2026-04-25T09:29:15.902Z</time></trkpt><trkpt lat="45.7401317" lon="9.57972"><ele>301.0</ele><time>2026-04-25T09:29:16.905Z</time></trkpt><trkpt lat="45.7402333" lon="9.5798183"><ele>301.0</ele><time>2026-04-25T09:29:17.903Z</time></trkpt><trkpt lat="45.74033" lon="9.5799117"><ele>301.0</ele><time>2026-04-25T09:29:18.903Z</time></trkpt><trkpt lat="45.74042" lon="9.579995"><ele>301.0</ele><time>2026-04-25T09:29:19.903Z</time></trkpt><trkpt lat="45.7405083" lon="9.58007"><ele>301.0</ele><time>2026-04-25T09:29:20.903Z</time></trkpt><trkpt lat="45.74059" lon="9.5801433"><ele>301.0</ele><time>2026-04-25T09:29:21.902Z</time></trkpt><trkpt lat="45.74067" lon="9.580215"><ele>301.0</ele><time>2026-04-25T09:29:22.904Z</time></trkpt><trkpt lat="45.7407417" lon="9.5802767"><ele>301.0</ele><time>2026-04-25T09:29:23.903Z</time></trkpt><trkpt lat="45.7408033" lon="9.58033"><ele>301.0</ele><time>2026-04-25T09:29:24.906Z</time></trkpt><trkpt lat="45.7408867" lon="9.58041"><ele>301.0</ele><time>2026-04-25T09:29:26.906Z</time></trkpt><trkpt lat="45.7409383" lon="9.5804617"><ele>301.0</ele><time>2026-04-25T09:29:28.906Z</time></trkpt><trkpt lat="45.7409883" lon="9.5805233"><ele>301.0</ele><time>2026-04-25T09:29:30.904Z</time></trkpt><trkpt lat="45.7410617" lon="9.5806017"><ele>301.0</ele><time>2026-04-25T09:29:32.903Z</time></trkpt><trkpt lat="45.741125" lon="9.58073"><ele>301.0</ele><time>2026-04-25T09:29:34.902Z</time></trkpt><trkpt lat="45.741215" lon="9.58081"><ele>301.0</ele><time>2026-04-25T09:29:36.903Z</time></trkpt><trkpt lat="45.7413117" lon="9.5807817"><ele>301.0</ele><time>2026-04-25T09:29:38.905Z</time></trkpt><trkpt lat="45.741385" lon="9.580665"><ele>301.0</ele><time>2026-04-25T09:29:40.902Z</time></trkpt><trkpt lat="45.7414167" lon="9.58058"><ele>301.0</ele><time>2026-04-25T09:29:41.906Z</time></trkpt><trkpt lat="45.74145" lon="9.5804917"><ele>301.0</ele><time>2026-04-25T09:29:42.906Z</time></trkpt><trkpt lat="45.7414983" lon="9.580395"><ele>301.0</ele><time>2026-04-25T09:29:43.903Z</time></trkpt><trkpt lat="45.7415567" lon="9.5802917"><ele>301.0</ele><time>2026-04-25T09:29:44.906Z</time></trkpt><trkpt lat="45.7416467" lon="9.5801833"><ele>301.0</ele><time>2026-04-25T09:29:45.906Z</time></trkpt><trkpt lat="45.7417533" lon="9.58008"><ele>301.5</ele><time>2026-04-25T09:29:46.906Z</time></trkpt><trkpt lat="45.7418717" lon="9.5799817"><ele>302.0</ele><time>2026-04-25T09:29:47.903Z</time></trkpt><trkpt lat="45.7419883" lon="9.5798933"><ele>302.5</ele><time>2026-04-25T09:29:48.902Z</time></trkpt><trkpt lat="45.7421133" lon="9.5798133"><ele>303.0</ele><time>2026-04-25T09:29:49.903Z</time></trkpt><trkpt lat="45.7422467" lon="9.5797367"><ele>303.6666666666667</ele><time>2026-04-25T09:29:50.904Z</time></trkpt><trkpt lat="45.7423883" lon="9.5796667"><ele>304.33333333333337</ele><time>2026-04-25T09:29:51.902Z</time></trkpt><trkpt lat="45.74254" lon="9.57959"><ele>305.0</ele><time>2026-04-25T09:29:52.903Z</time></trkpt><trkpt lat="45.7426933" lon="9.579515"><ele>307.0</ele><time>2026-04-25T09:29:53.903Z</time></trkpt><trkpt lat="45.74284" lon="9.5794417"><ele>309.0</ele><time>2026-04-25T09:29:54.906Z</time></trkpt><trkpt lat="45.7429867" lon="9.5793683"><ele>311.0</ele><time>2026-04-25T09:29:55.906Z</time></trkpt><trkpt lat="45.7431317" lon="9.5792983"><ele>311.0</ele><time>2026-04-25T09:29:56.906Z</time></trkpt><trkpt lat="45.7432683" lon="9.57923"><ele>311.0</ele><time>2026-04-25T09:29:57.905Z</time></trkpt><trkpt lat="45.7434033" lon="9.5791583"><ele>311.0</ele><time>2026-04-25T09:29:58.902Z</time></trkpt><trkpt lat="45.7435367" lon="9.579065"><ele>311.0</ele><time>2026-04-25T09:29:59.902Z</time></trkpt><trkpt lat="45.7436833" lon="9.5789317"><ele>311.33333333333337</ele><time>2026-04-25T09:30:00.902Z</time></trkpt><trkpt lat="45.7438417" lon="9.57879"><ele>311.6666666666667</ele><time>2026-04-25T09:30:01.903Z</time></trkpt><trkpt lat="45.7440083" lon="9.578655"><ele>312.0</ele><time>2026-04-25T09:30:02.903Z</time></trkpt><trkpt lat="45.744175" lon="9.5785183"><ele>313.3333333333333</ele><time>2026-04-25T09:30:03.902Z</time></trkpt><trkpt lat="45.7443367" lon="9.57837"><ele>314.66666666666663</ele><time>2026-04-25T09:30:04.903Z</time></trkpt><trkpt lat="45.744485" lon="9.5781933"><ele>316.0</ele><time>2026-04-25T09:30:05.903Z</time></trkpt><trkpt lat="45.7446283" lon="9.5779967"><ele>319.0</ele><time>2026-04-25T09:30:06.903Z</time></trkpt><trkpt lat="45.7447733" lon="9.5777933"><ele>322.0</ele><time>2026-04-25T09:30:07.903Z</time></trkpt><trkpt lat="45.7449317" lon="9.5776067"><ele>325.0</ele><time>2026-04-25T09:30:08.903Z</time></trkpt><trkpt lat="45.7451017" lon="9.5774483"><ele>325.66666666666663</ele><time>2026-04-25T09:30:09.903Z</time></trkpt><trkpt lat="45.7452717" lon="9.5773233"><ele>326.3333333333333</ele><time>2026-04-25T09:30:10.903Z</time></trkpt><trkpt lat="45.7454333" lon="9.5772117"><ele>327.0</ele><time>2026-04-25T09:30:11.906Z</time></trkpt><trkpt lat="45.7455917" lon="9.5771017"><ele>328.0</ele><time>2026-04-25T09:30:12.905Z</time></trkpt><trkpt lat="45.745745" lon="9.5769917"><ele>329.0</ele><time>2026-04-25T09:30:13.904Z</time></trkpt><trkpt lat="45.7458933" lon="9.5768767"><ele>330.0</ele><time>2026-04-25T09:30:14.906Z</time></trkpt><trkpt lat="45.7460433" lon="9.57676"><ele>333.0</ele><time>2026-04-25T09:30:15.906Z</time></trkpt><trkpt lat="45.7461817" lon="9.5766367"><ele>336.0</ele><time>2026-04-25T09:30:16.906Z</time></trkpt><trkpt lat="45.7463133" lon="9.5765083"><ele>339.0</ele><time>2026-04-25T09:30:17.903Z</time></trkpt><trkpt lat="45.7464317" lon="9.5763883"><ele>339.0</ele><time>2026-04-25T09:30:18.902Z</time></trkpt><trkpt lat="45.7465433" lon="9.576285"><ele>339.0</ele><time>2026-04-25T09:30:19.904Z</time></trkpt><trkpt lat="45.7466517" lon="9.5762083"><ele>339.0</ele><time>2026-04-25T09:30:20.903Z</time></trkpt><trkpt lat="45.746755" lon="9.5761533"><ele>339.0</ele><time>2026-04-25T09:30:21.902Z</time></trkpt><trkpt lat="45.7468617" lon="9.576125"><ele>338.75</ele><time>2026-04-25T09:30:22.903Z</time></trkpt><trkpt lat="45.7469717" lon="9.5761083"><ele>338.5</ele><time>2026-04-25T09:30:23.903Z</time></trkpt><trkpt lat="45.7470917" lon="9.57609"><ele>338.25</ele><time>2026-04-25T09:30:24.906Z</time></trkpt><trkpt lat="45.7472183" lon="9.5760633"><ele>338.0</ele><time>2026-04-25T09:30:25.906Z</time></trkpt><trkpt lat="45.7473517" lon="9.576035"><ele>338.0</ele><time>2026-04-25T09:30:26.904Z</time></trkpt><trkpt lat="45.7474867" lon="9.5760133"><ele>338.0</ele><time>2026-04-25T09:30:27.906Z</time></trkpt><trkpt lat="45.7476283" lon="9.5759983"><ele>338.0</ele><time>2026-04-25T09:30:28.902Z</time></trkpt><trkpt lat="45.7477683" lon="9.5759767"><ele>338.0</ele><time>2026-04-25T09:30:29.903Z</time></trkpt><trkpt lat="45.7479117" lon="9.5759517"><ele>338.33333333333337</ele><time>2026-04-25T09:30:30.903Z</time></trkpt><trkpt lat="45.7480567" lon="9.5759367"><ele>338.6666666666667</ele><time>2026-04-25T09:30:31.903Z</time></trkpt><trkpt lat="45.7482117" lon="9.5759183"><ele>339.0</ele><time>2026-04-25T09:30:32.903Z</time></trkpt><trkpt lat="45.7483717" lon="9.5758917"><ele>339.0</ele><time>2026-04-25T09:30:33.902Z</time></trkpt><trkpt lat="45.74854" lon="9.5758667"><ele>339.0</ele><time>2026-04-25T09:30:34.901Z</time></trkpt><trkpt lat="45.748705" lon="9.5758283"><ele>339.0</ele><time>2026-04-25T09:30:35.903Z</time></trkpt><trkpt lat="45.7488617" lon="9.5757733"><ele>340.0</ele><time>2026-04-25T09:30:36.903Z</time></trkpt><trkpt lat="45.7490083" lon="9.5757117"><ele>341.0</ele><time>2026-04-25T09:30:37.903Z</time></trkpt><trkpt lat="45.7491417" lon="9.5756633"><ele>342.0</ele><time>2026-04-25T09:30:38.904Z</time></trkpt><trkpt lat="45.7492617" lon="9.5756467"><ele>343.0</ele><time>2026-04-25T09:30:39.903Z</time></trkpt><trkpt lat="45.74938" lon="9.5756583"><ele>343.0</ele><time>2026-04-25T09:30:40.903Z</time></trkpt><trkpt lat="45.7494983" lon="9.575705"><ele>343.0</ele><time>2026-04-25T09:30:41.906Z</time></trkpt><trkpt lat="45.7496117" lon="9.5757617"><ele>343.0</ele><time>2026-04-25T09:30:42.903Z</time></trkpt><trkpt lat="45.7497083" lon="9.57583"><ele>343.0</ele><time>2026-04-25T09:30:43.904Z</time></trkpt><trkpt lat="45.749795" lon="9.5758933"><ele>343.0</ele><time>2026-04-25T09:30:44.904Z</time></trkpt><trkpt lat="45.7498933" lon="9.575925"><ele>343.0</ele><time>2026-04-25T09:30:45.906Z</time></trkpt><trkpt lat="45.7499967" lon="9.57593"><ele>343.0</ele><time>2026-04-25T09:30:46.906Z</time></trkpt><trkpt lat="45.7501283" lon="9.5758967"><ele>343.0</ele><time>2026-04-25T09:30:47.902Z</time></trkpt><trkpt lat="45.7502717" lon="9.5758467"><ele>343.0</ele><time>2026-04-25T09:30:48.904Z</time></trkpt><trkpt lat="45.7504217" lon="9.5757767"><ele>344.0</ele><time>2026-04-25T09:30:49.903Z</time></trkpt><trkpt lat="45.7505633" lon="9.5756967"><ele>345.0</ele><time>2026-04-25T09:30:50.904Z</time></trkpt><trkpt lat="45.7506917" lon="9.575615"><ele>346.0</ele><time>2026-04-25T09:30:51.904Z</time></trkpt><trkpt lat="45.7508017" lon="9.5755367"><ele>347.0</ele><time>2026-04-25T09:30:52.903Z</time></trkpt><trkpt lat="45.7509067" lon="9.5754717"><ele>347.0</ele><time>2026-04-25T09:30:53.903Z</time></trkpt><trkpt lat="45.7510067" lon="9.5754033"><ele>347.0</ele><time>2026-04-25T09:30:54.904Z</time></trkpt><trkpt lat="45.75111" lon="9.5753367"><ele>347.0</ele><time>2026-04-25T09:30:55.905Z</time></trkpt><trkpt lat="45.7512067" lon="9.57528"><ele>347.0</ele><time>2026-04-25T09:30:56.904Z</time></trkpt><trkpt lat="45.75131" lon="9.575225"><ele>347.0</ele><time>2026-04-25T09:30:57.903Z</time></trkpt><trkpt lat="45.7514317" lon="9.5751783"><ele>346.6666666666667</ele><time>2026-04-25T09:30:58.903Z</time></trkpt><trkpt lat="45.7515717" lon="9.57515"><ele>346.3333333333333</ele><time>2026-04-25T09:30:59.903Z</time></trkpt><trkpt lat="45.7517283" lon="9.57514"><ele>346.0</ele><time>2026-04-25T09:31:00.904Z</time></trkpt><trkpt lat="45.751915" lon="9.575155"><ele>342.66666666666663</ele><time>2026-04-25T09:31:01.904Z</time></trkpt><trkpt lat="45.7521033" lon="9.5751767"><ele>339.3333333333333</ele><time>2026-04-25T09:31:02.904Z</time></trkpt><trkpt lat="45.7522933" lon="9.5752183"><ele>336.0</ele><time>2026-04-25T09:31:03.903Z</time></trkpt><trkpt lat="45.7524617" lon="9.5752717"><ele>336.0</ele><time>2026-04-25T09:31:04.903Z</time></trkpt><trkpt lat="45.75261" lon="9.575325"><ele>336.0</ele><time>2026-04-25T09:31:05.903Z</time></trkpt><trkpt lat="45.752735" lon="9.5753617"><ele>336.0</ele><time>2026-04-25T09:31:06.904Z</time></trkpt><trkpt lat="45.7528333" lon="9.5753683"><ele>336.0</ele><time>2026-04-25T09:31:07.904Z</time></trkpt><trkpt lat="45.7529167" lon="9.57532"><ele>338.5</ele><time>2026-04-25T09:31:08.904Z</time></trkpt><trkpt lat="45.7529817" lon="9.5752183"><ele>341.0</ele><time>2026-04-25T09:31:09.904Z</time></trkpt><trkpt lat="45.75303" lon="9.5750517"><ele>343.5</ele><time>2026-04-25T09:31:10.902Z</time></trkpt><trkpt lat="45.7530733" lon="9.5748567"><ele>346.0</ele><time>2026-04-25T09:31:11.905Z</time></trkpt><trkpt lat="45.7531133" lon="9.5746533"><ele>346.5</ele><time>2026-04-25T09:31:12.905Z</time></trkpt><trkpt lat="45.7531567" lon="9.57447"><ele>347.0</ele><time>2026-04-25T09:31:13.904Z</time></trkpt><trkpt lat="45.7532117" lon="9.5743233"><ele>347.5</ele><time>2026-04-25T09:31:14.906Z</time></trkpt><trkpt lat="45.75328" lon="9.5741967"><ele>348.0</ele><time>2026-04-25T09:31:15.901Z</time></trkpt><trkpt lat="45.7533733" lon="9.57408"><ele>348.0</ele><time>2026-04-25T09:31:16.905Z</time></trkpt><trkpt lat="45.7534867" lon="9.573975"><ele>348.0</ele><time>2026-04-25T09:31:17.902Z</time></trkpt><trkpt lat="45.7536117" lon="9.573875"><ele>348.0</ele><time>2026-04-25T09:31:18.902Z</time></trkpt><trkpt lat="45.7537383" lon="9.5737983"><ele>348.0</ele><time>2026-04-25T09:31:19.902Z</time></trkpt><trkpt lat="45.7538583" lon="9.5737467"><ele>350.75</ele><time>2026-04-25T09:31:20.903Z</time></trkpt><trkpt lat="45.75398" lon="9.5737117"><ele>353.5</ele><time>2026-04-25T09:31:21.902Z</time></trkpt><trkpt lat="45.75411" lon="9.573695"><ele>356.25</ele><time>2026-04-25T09:31:22.903Z</time></trkpt><trkpt lat="45.75425" lon="9.5736717"><ele>359.0</ele><time>2026-04-25T09:31:23.903Z</time></trkpt><trkpt lat="45.754405" lon="9.5736317"><ele>367.0</ele><time>2026-04-25T09:31:24.902Z</time></trkpt><trkpt lat="45.75457" lon="9.5735767"><ele>375.0</ele><time>2026-04-25T09:31:25.902Z</time></trkpt><trkpt lat="45.7547383" lon="9.5734883"><ele>383.0</ele><time>2026-04-25T09:31:26.903Z</time></trkpt><trkpt lat="45.75489" lon="9.5733933"><ele>383.0</ele><time>2026-04-25T09:31:27.905Z</time></trkpt><trkpt lat="45.7550233" lon="9.5733017"><ele>383.0</ele><time>2026-04-25T09:31:28.902Z</time></trkpt><trkpt lat="45.7551367" lon="9.573225"><ele>383.0</ele><time>2026-04-25T09:31:29.902Z</time></trkpt><trkpt lat="45.7552383" lon="9.5731633"><ele>383.0</ele><time>2026-04-25T09:31:30.901Z</time></trkpt><trkpt lat="45.75533" lon="9.57313"><ele>385.79999999999995</ele><time>2026-04-25T09:31:31.902Z</time></trkpt><trkpt lat="45.7554267" lon="9.5731167"><ele>388.6</ele><time>2026-04-25T09:31:32.903Z</time></trkpt><trkpt lat="45.7555433" lon="9.5731083"><ele>391.4</ele><time>2026-04-25T09:31:33.902Z</time></trkpt><trkpt lat="45.7556583" lon="9.5730917"><ele>394.20000000000005</ele><time>2026-04-25T09:31:34.902Z</time></trkpt><trkpt lat="45.7557667" lon="9.573055"><ele>397.0</ele><time>2026-04-25T09:31:35.902Z</time></trkpt><trkpt lat="45.75586" lon="9.57299"><ele>397.0</ele><time>2026-04-25T09:31:36.902Z</time></trkpt><trkpt lat="45.7559533" lon="9.57289"><ele>397.0</ele><time>2026-04-25T09:31:37.901Z</time></trkpt><trkpt lat="45.7560467" lon="9.57275"><ele>397.0</ele><time>2026-04-25T09:31:38.902Z</time></trkpt><trkpt lat="45.7561533" lon="9.572585"><ele>397.0</ele><time>2026-04-25T09:31:39.902Z</time></trkpt><trkpt lat="45.7562567" lon="9.5724117"><ele>399.0</ele><time>2026-04-25T09:31:40.903Z</time></trkpt><trkpt lat="45.7563583" lon="9.5722583"><ele>401.0</ele><time>2026-04-25T09:31:41.906Z</time></trkpt><trkpt lat="45.756445" lon="9.5721133"><ele>403.0</ele><time>2026-04-25T09:31:42.905Z</time></trkpt><trkpt lat="45.7565083" lon="9.57197"><ele>405.0</ele><time>2026-04-25T09:31:43.905Z</time></trkpt><trkpt lat="45.7565367" lon="9.57181"><ele>405.75</ele><time>2026-04-25T09:31:44.905Z</time></trkpt><trkpt lat="45.75654" lon="9.5716333"><ele>406.5</ele><time>2026-04-25T09:31:45.905Z</time></trkpt><trkpt lat="45.7565083" lon="9.5714467"><ele>407.25</ele><time>2026-04-25T09:31:46.905Z</time></trkpt><trkpt lat="45.756455" lon="9.5712717"><ele>408.0</ele><time>2026-04-25T09:31:47.902Z</time></trkpt><trkpt lat="45.7564083" lon="9.57111"><ele>408.0</ele><time>2026-04-25T09:31:48.903Z</time></trkpt><trkpt lat="45.75639" lon="9.5709667"><ele>408.0</ele><time>2026-04-25T09:31:49.902Z</time></trkpt><trkpt lat="45.75642" lon="9.5708533"><ele>408.0</ele><time>2026-04-25T09:31:50.903Z</time></trkpt><trkpt lat="45.7564617" lon="9.57076"><ele>408.0</ele><time>2026-04-25T09:31:51.903Z</time></trkpt><trkpt lat="45.7565217" lon="9.5706833"><ele>408.0</ele><time>2026-04-25T09:31:52.905Z</time></trkpt><trkpt lat="45.7566333" lon="9.57065"><ele>408.0</ele><time>2026-04-25T09:31:53.902Z</time></trkpt><trkpt lat="45.75675" lon="9.57065"><ele>408.0</ele><time>2026-04-25T09:31:54.906Z</time></trkpt><trkpt lat="45.7568883" lon="9.5707183"><ele>408.0</ele><time>2026-04-25T09:31:55.905Z</time></trkpt><trkpt lat="45.757015" lon="9.570815"><ele>408.0</ele><time>2026-04-25T09:31:56.905Z</time></trkpt><trkpt lat="45.7571117" lon="9.5709167"><ele>412.25</ele><time>2026-04-25T09:31:57.905Z</time></trkpt><trkpt lat="45.7571767" lon="9.5710667"><ele>416.5</ele><time>2026-04-25T09:31:58.903Z</time></trkpt><trkpt lat="45.7572233" lon="9.5712533"><ele>420.75</ele><time>2026-04-25T09:31:59.902Z</time></trkpt><trkpt lat="45.7572667" lon="9.5714517"><ele>425.0</ele><time>2026-04-25T09:32:00.902Z</time></trkpt><trkpt lat="45.7573217" lon="9.5716217"><ele>425.0</ele><time>2026-04-25T09:32:01.902Z</time></trkpt><trkpt lat="45.7573767" lon="9.5717783"><ele>425.0</ele><time>2026-04-25T09:32:02.902Z</time></trkpt><trkpt lat="45.757445" lon="9.5718967"><ele>425.0</ele><time>2026-04-25T09:32:03.902Z</time></trkpt><trkpt lat="45.757525" lon="9.571995"><ele>425.0</ele><time>2026-04-25T09:32:04.903Z</time></trkpt><trkpt lat="45.757625" lon="9.5720767"><ele>421.25</ele><time>2026-04-25T09:32:05.902Z</time></trkpt><trkpt lat="45.7577367" lon="9.57213"><ele>417.5</ele><time>2026-04-25T09:32:06.902Z</time></trkpt><trkpt lat="45.757855" lon="9.5721483"><ele>413.75</ele><time>2026-04-25T09:32:07.902Z</time></trkpt><trkpt lat="45.7579933" lon="9.57214"><ele>410.0</ele><time>2026-04-25T09:32:08.903Z</time></trkpt><trkpt lat="45.758155" lon="9.57211"><ele>410.0</ele><time>2026-04-25T09:32:09.902Z</time></trkpt><trkpt lat="45.758315" lon="9.572075"><ele>410.0</ele><time>2026-04-25T09:32:10.902Z</time></trkpt><trkpt lat="45.7584633" lon="9.5720117"><ele>410.0</ele><time>2026-04-25T09:32:11.902Z</time></trkpt><trkpt lat="45.758615" lon="9.5719067"><ele>418.3333333333333</ele><time>2026-04-25T09:32:12.902Z</time></trkpt><trkpt lat="45.758765" lon="9.571785"><ele>426.66666666666663</ele><time>2026-04-25T09:32:13.901Z</time></trkpt><trkpt lat="45.7589083" lon="9.5716783"><ele>435.0</ele><time>2026-04-25T09:32:14.903Z</time></trkpt><trkpt lat="45.75905" lon="9.5715883"><ele>435.0</ele><time>2026-04-25T09:32:15.902Z</time></trkpt><trkpt lat="45.7591967" lon="9.5715317"><ele>435.0</ele><time>2026-04-25T09:32:16.901Z</time></trkpt><trkpt lat="45.75935" lon="9.5714967"><ele>435.0</ele><time>2026-04-25T09:32:17.902Z</time></trkpt><trkpt lat="45.7594967" lon="9.571475"><ele>438.6</ele><time>2026-04-25T09:32:18.902Z</time></trkpt><trkpt lat="45.7596233" lon="9.5714667"><ele>442.2</ele><time>2026-04-25T09:32:19.902Z</time></trkpt><trkpt lat="45.7597233" lon="9.5714683"><ele>445.79999999999995</ele><time>2026-04-25T09:32:20.902Z</time></trkpt><trkpt lat="45.7598" lon="9.5714783"><ele>449.4</ele><time>2026-04-25T09:32:21.901Z</time></trkpt><trkpt lat="45.759905" lon="9.5714883"><ele>453.0</ele><time>2026-04-25T09:32:23.903Z</time></trkpt><trkpt lat="45.7599633" lon="9.5715667"><ele>453.0</ele><time>2026-04-25T09:32:31.905Z</time></trkpt><trkpt lat="45.7599383" lon="9.5717117"><ele>453.0</ele><time>2026-04-25T09:32:33.902Z</time></trkpt><trkpt lat="45.75987" lon="9.571815"><ele>453.0</ele><time>2026-04-25T09:32:34.905Z</time></trkpt><trkpt lat="45.7597817" lon="9.5719517"><ele>453.0</ele><time>2026-04-25T09:32:35.903Z</time></trkpt><trkpt lat="45.75971" lon="9.57209"><ele>453.2</ele><time>2026-04-25T09:32:36.905Z</time></trkpt><trkpt lat="45.7596517" lon="9.5722483"><ele>453.4</ele><time>2026-04-25T09:32:37.906Z</time></trkpt><trkpt lat="45.7596183" lon="9.5723967"><ele>453.59999999999997</ele><time>2026-04-25T09:32:38.902Z</time></trkpt><trkpt lat="45.75959" lon="9.5725417"><ele>453.79999999999995</ele><time>2026-04-25T09:32:39.903Z</time></trkpt><trkpt lat="45.7595717" lon="9.5726817"><ele>454.0</ele><time>2026-04-25T09:32:40.903Z</time></trkpt><trkpt lat="45.7595733" lon="9.5728067"><ele>453.1666666666667</ele><time>2026-04-25T09:32:41.905Z</time></trkpt><trkpt lat="45.7595983" lon="9.572925"><ele>452.33333333333337</ele><time>2026-04-25T09:32:42.905Z</time></trkpt><trkpt lat="45.75964" lon="9.5730333"><ele>451.5</ele><time>2026-04-25T09:32:43.904Z</time></trkpt><trkpt lat="45.7596783" lon="9.5731333"><ele>450.66666666666663</ele><time>2026-04-25T09:32:44.906Z</time></trkpt><trkpt lat="45.7597033" lon="9.5732333"><ele>449.8333333333333</ele><time>2026-04-25T09:32:45.905Z</time></trkpt><trkpt lat="45.7597117" lon="9.57333"><ele>449.0</ele><time>2026-04-25T09:32:46.906Z</time></trkpt><trkpt lat="45.7597017" lon="9.5734233"><ele>448.99999999999994</ele><time>2026-04-25T09:32:47.903Z</time></trkpt><trkpt lat="45.75966" lon="9.57351"><ele>449.0</ele><time>2026-04-25T09:32:48.903Z</time></trkpt><trkpt lat="45.7596117" lon="9.573595"><ele>449.0</ele><time>2026-04-25T09:32:49.903Z</time></trkpt><trkpt lat="45.7595517" lon="9.5736833"><ele>449.0</ele><time>2026-04-25T09:32:50.903Z</time></trkpt><trkpt lat="45.7594817" lon="9.57378"><ele>448.99999999999994</ele><time>2026-04-25T09:32:51.903Z</time></trkpt><trkpt lat="45.7594067" lon="9.57389"><ele>449.0</ele><time>2026-04-25T09:32:52.903Z</time></trkpt><trkpt lat="45.7593567" lon="9.5740133"><ele>447.2</ele><time>2026-04-25T09:32:53.903Z</time></trkpt><trkpt lat="45.7593383" lon="9.574135"><ele>445.4</ele><time>2026-04-25T09:32:54.903Z</time></trkpt><trkpt lat="45.7593483" lon="9.57426"><ele>443.6</ele><time>2026-04-25T09:32:55.906Z</time></trkpt><trkpt lat="45.7594017" lon="9.5743533"><ele>441.8</ele><time>2026-04-25T09:32:56.905Z</time></trkpt><trkpt lat="45.75949" lon="9.574415"><ele>440.0</ele><time>2026-04-25T09:32:57.905Z</time></trkpt><trkpt lat="45.7595933" lon="9.5744517"><ele>440.0</ele><time>2026-04-25T09:32:58.905Z</time></trkpt><trkpt lat="45.7597017" lon="9.574465"><ele>440.0</ele><time>2026-04-25T09:32:59.903Z</time></trkpt><trkpt lat="45.7598017" lon="9.5744833"><ele>440.0</ele><time>2026-04-25T09:33:00.903Z</time></trkpt><trkpt lat="45.7598867" lon="9.5745283"><ele>440.0</ele><time>2026-04-25T09:33:01.903Z</time></trkpt><trkpt lat="45.759965" lon="9.5745767"><ele>440.0</ele><time>2026-04-25T09:33:02.903Z</time></trkpt><trkpt lat="45.7600383" lon="9.5746267"><ele>442.16666666666663</ele><time>2026-04-25T09:33:03.903Z</time></trkpt><trkpt lat="45.76011" lon="9.5746817"><ele>444.3333333333333</ele><time>2026-04-25T09:33:04.903Z</time></trkpt><trkpt lat="45.7601833" lon="9.574745"><ele>446.5</ele><time>2026-04-25T09:33:05.903Z</time></trkpt><trkpt lat="45.7602417" lon="9.57482"><ele>448.66666666666663</ele><time>2026-04-25T09:33:06.905Z</time></trkpt><trkpt lat="45.76028" lon="9.574925"><ele>450.8333333333333</ele><time>2026-04-25T09:33:07.905Z</time></trkpt><trkpt lat="45.760285" lon="9.5750317"><ele>453.0</ele><time>2026-04-25T09:33:08.905Z</time></trkpt><trkpt lat="45.7602533" lon="9.5751317"><ele>446.0</ele><time>2026-04-25T09:33:09.907Z</time></trkpt><trkpt lat="45.760175" lon="9.5752333"><ele>439.0</ele><time>2026-04-25T09:33:10.906Z</time></trkpt><trkpt lat="45.7600867" lon="9.5753533"><ele>432.0</ele><time>2026-04-25T09:33:11.902Z</time></trkpt><trkpt lat="45.7600067" lon="9.57549"><ele>425.0</ele><time>2026-04-25T09:33:12.905Z</time></trkpt><trkpt lat="45.7599683" lon="9.57563"><ele>425.0</ele><time>2026-04-25T09:33:13.905Z</time></trkpt><trkpt lat="45.7599383" lon="9.5757683"><ele>425.0</ele><time>2026-04-25T09:33:14.906Z</time></trkpt><trkpt lat="45.7599117" lon="9.5759033"><ele>425.0</ele><time>2026-04-25T09:33:15.902Z</time></trkpt><trkpt lat="45.7598717" lon="9.5760283"><ele>425.0</ele><time>2026-04-25T09:33:16.905Z</time></trkpt><trkpt lat="45.759815" lon="9.576135"><ele>425.0</ele><time>2026-04-25T09:33:17.902Z</time></trkpt><trkpt lat="45.7597383" lon="9.5762233"><ele>426.8</ele><time>2026-04-25T09:33:18.903Z</time></trkpt><trkpt lat="45.7596467" lon="9.5763033"><ele>428.6</ele><time>2026-04-25T09:33:19.902Z</time></trkpt><trkpt lat="45.7595467" lon="9.5763717"><ele>430.4</ele><time>2026-04-25T09:33:20.902Z</time></trkpt><trkpt lat="45.7594517" lon="9.57644"><ele>432.2</ele><time>2026-04-25T09:33:21.902Z</time></trkpt><trkpt lat="45.75937" lon="9.5765183"><ele>434.0</ele><time>2026-04-25T09:33:22.905Z</time></trkpt><trkpt lat="45.759295" lon="9.5766167"><ele>430.75</ele><time>2026-04-25T09:33:23.903Z</time></trkpt><trkpt lat="45.7592183" lon="9.5767583"><ele>427.5</ele><time>2026-04-25T09:33:24.905Z</time></trkpt><trkpt lat="45.7591417" lon="9.576945"><ele>424.25</ele><time>2026-04-25T09:33:25.905Z</time></trkpt><trkpt lat="45.7590733" lon="9.5771467"><ele>421.0</ele><time>2026-04-25T09:33:26.905Z</time></trkpt><trkpt lat="45.7590133" lon="9.5773333"><ele>421.0</ele><time>2026-04-25T09:33:27.905Z</time></trkpt><trkpt lat="45.7589517" lon="9.5774933"><ele>421.0</ele><time>2026-04-25T09:33:28.903Z</time></trkpt><trkpt lat="45.7588767" lon="9.5776067"><ele>421.0</ele><time>2026-04-25T09:33:29.903Z</time></trkpt><trkpt lat="45.7588" lon="9.5776633"><ele>421.0</ele><time>2026-04-25T09:33:30.903Z</time></trkpt><trkpt lat="45.7587167" lon="9.577675"><ele>421.0</ele><time>2026-04-25T09:33:31.905Z</time></trkpt><trkpt lat="45.7586317" lon="9.5776417"><ele>418.75</ele><time>2026-04-25T09:33:32.906Z</time></trkpt><trkpt lat="45.7585133" lon="9.577535"><ele>416.5</ele><time>2026-04-25T09:33:33.905Z</time></trkpt><trkpt lat="45.75841" lon="9.5773667"><ele>414.25</ele><time>2026-04-25T09:33:34.902Z</time></trkpt><trkpt lat="45.758305" lon="9.5772483"><ele>412.0</ele><time>2026-04-25T09:33:35.902Z</time></trkpt><trkpt lat="45.7581933" lon="9.5771983"><ele>412.0</ele><time>2026-04-25T09:33:36.902Z</time></trkpt><trkpt lat="45.7580733" lon="9.5771883"><ele>412.0</ele><time>2026-04-25T09:33:37.903Z</time></trkpt><trkpt lat="45.7579417" lon="9.5772417"><ele>412.0</ele><time>2026-04-25T09:33:38.903Z</time></trkpt><trkpt lat="45.7578233" lon="9.5773117"><ele>412.0</ele><time>2026-04-25T09:33:39.901Z</time></trkpt><trkpt lat="45.75772" lon="9.5773667"><ele>412.5</ele><time>2026-04-25T09:33:40.903Z</time></trkpt><trkpt lat="45.7576133" lon="9.5773733"><ele>413.0</ele><time>2026-04-25T09:33:41.903Z</time></trkpt><trkpt lat="45.757515" lon="9.57728"><ele>413.5</ele><time>2026-04-25T09:33:42.901Z</time></trkpt><trkpt lat="45.75741" lon="9.57719"><ele>414.0</ele><time>2026-04-25T09:33:43.906Z</time></trkpt><trkpt lat="45.75729" lon="9.57714"><ele>414.0</ele><time>2026-04-25T09:33:44.903Z</time></trkpt><trkpt lat="45.7571517" lon="9.57714"><ele>414.0</ele><time>2026-04-25T09:33:45.903Z</time></trkpt><trkpt lat="45.756985" lon="9.5771783"><ele>414.0</ele><time>2026-04-25T09:33:46.903Z</time></trkpt><trkpt lat="45.756815" lon="9.57724"><ele>412.25</ele><time>2026-04-25T09:33:47.903Z</time></trkpt><trkpt lat="45.756655" lon="9.5773133"><ele>410.5</ele><time>2026-04-25T09:33:48.903Z</time></trkpt><trkpt lat="45.75652" lon="9.5773883"><ele>408.75</ele><time>2026-04-25T09:33:49.903Z</time></trkpt><trkpt lat="45.7563967" lon="9.5774367"><ele>407.0</ele><time>2026-04-25T09:33:50.903Z</time></trkpt><trkpt lat="45.7562683" lon="9.5774367"><ele>407.0</ele><time>2026-04-25T09:33:51.902Z</time></trkpt><trkpt lat="45.756115" lon="9.5774017"><ele>407.0</ele><time>2026-04-25T09:33:52.903Z</time></trkpt><trkpt lat="45.7559383" lon="9.5773267"><ele>407.0</ele><time>2026-04-25T09:33:53.903Z</time></trkpt><trkpt lat="45.7557617" lon="9.5772317"><ele>406.0</ele><time>2026-04-25T09:33:54.906Z</time></trkpt><trkpt lat="45.7555967" lon="9.57714"><ele>405.0</ele><time>2026-04-25T09:33:55.905Z</time></trkpt><trkpt lat="45.7554617" lon="9.5770383"><ele>404.0</ele><time>2026-04-25T09:33:56.906Z</time></trkpt><trkpt lat="45.7553483" lon="9.5769367"><ele>398.75</ele><time>2026-04-25T09:33:57.905Z</time></trkpt><trkpt lat="45.7552517" lon="9.5768483"><ele>393.5</ele><time>2026-04-25T09:33:58.905Z</time></trkpt><trkpt lat="45.7551517" lon="9.5768017"><ele>388.25</ele><time>2026-04-25T09:33:59.904Z</time></trkpt><trkpt lat="45.7550333" lon="9.5768183"><ele>383.0</ele><time>2026-04-25T09:34:00.903Z</time></trkpt><trkpt lat="45.7548933" lon="9.5768867"><ele>381.6666666666667</ele><time>2026-04-25T09:34:01.903Z</time></trkpt><trkpt lat="45.754735" lon="9.5769867"><ele>380.3333333333333</ele><time>2026-04-25T09:34:02.905Z</time></trkpt><trkpt lat="45.7545617" lon="9.5771033"><ele>379.0</ele><time>2026-04-25T09:34:03.902Z</time></trkpt><trkpt lat="45.75438" lon="9.5772267"><ele>377.66666666666663</ele><time>2026-04-25T09:34:04.902Z</time></trkpt><trkpt lat="45.7542017" lon="9.5773367"><ele>376.3333333333333</ele><time>2026-04-25T09:34:05.903Z</time></trkpt><trkpt lat="45.75404" lon="9.5774133"><ele>375.0</ele><time>2026-04-25T09:34:06.903Z</time></trkpt><trkpt lat="45.7539067" lon="9.5774917"><ele>375.0</ele><time>2026-04-25T09:34:07.903Z</time></trkpt><trkpt lat="45.7538" lon="9.5775817"><ele>375.0</ele><time>2026-04-25T09:34:08.903Z</time></trkpt><trkpt lat="45.7537133" lon="9.5776883"><ele>375.0</ele><time>2026-04-25T09:34:09.903Z</time></trkpt><trkpt lat="45.753655" lon="9.5778717"><ele>375.0</ele><time>2026-04-25T09:34:10.903Z</time></trkpt><trkpt lat="45.75361" lon="9.5780933"><ele>378.66666666666663</ele><time>2026-04-25T09:34:11.906Z</time></trkpt><trkpt lat="45.7535583" lon="9.5783233"><ele>382.3333333333333</ele><time>2026-04-25T09:34:12.902Z</time></trkpt><trkpt lat="45.7535" lon="9.5785333"><ele>386.0</ele><time>2026-04-25T09:34:13.903Z</time></trkpt><trkpt lat="45.7534583" lon="9.5787217"><ele>385.20000000000005</ele><time>2026-04-25T09:34:14.902Z</time></trkpt><trkpt lat="45.7534417" lon="9.57889"><ele>384.40000000000003</ele><time>2026-04-25T09:34:15.906Z</time></trkpt><trkpt lat="45.7534617" lon="9.5790433"><ele>383.6</ele><time>2026-04-25T09:34:16.902Z</time></trkpt><trkpt lat="45.75352" lon="9.5791717"><ele>382.8</ele><time>2026-04-25T09:34:17.903Z</time></trkpt><trkpt lat="45.7535833" lon="9.57929"><ele>382.0</ele><time>2026-04-25T09:34:18.903Z</time></trkpt><trkpt lat="45.7536133" lon="9.5794133"><ele>382.0</ele><time>2026-04-25T09:34:19.903Z</time></trkpt><trkpt lat="45.75362" lon="9.5795167"><ele>382.0</ele><time>2026-04-25T09:34:20.903Z</time></trkpt><trkpt lat="45.75359" lon="9.5796017"><ele>382.0</ele><time>2026-04-25T09:34:21.902Z</time></trkpt><trkpt lat="45.753525" lon="9.5796433"><ele>382.0</ele><time>2026-04-25T09:34:22.903Z</time></trkpt><trkpt lat="45.7533883" lon="9.579595"><ele>382.0</ele><time>2026-04-25T09:34:23.903Z</time></trkpt><trkpt lat="45.7532517" lon="9.57953"><ele>377.75</ele><time>2026-04-25T09:34:24.903Z</time></trkpt><trkpt lat="45.753135" lon="9.5795133"><ele>373.5</ele><time>2026-04-25T09:34:25.902Z</time></trkpt><trkpt lat="45.7530133" lon="9.5795017"><ele>369.25</ele><time>2026-04-25T09:34:26.907Z</time></trkpt><trkpt lat="45.7528917" lon="9.57956"><ele>365.0</ele><time>2026-04-25T09:34:27.905Z</time></trkpt><trkpt lat="45.7527733" lon="9.5796817"><ele>359.6666666666667</ele><time>2026-04-25T09:34:28.903Z</time></trkpt><trkpt lat="45.75265" lon="9.57983"><ele>354.3333333333333</ele><time>2026-04-25T09:34:29.903Z</time></trkpt><trkpt lat="45.7525117" lon="9.5799883"><ele>349.0</ele><time>2026-04-25T09:34:30.903Z</time></trkpt><trkpt lat="45.75237" lon="9.58015"><ele>349.0</ele><time>2026-04-25T09:34:31.903Z</time></trkpt><trkpt lat="45.75222" lon="9.580315"><ele>349.0</ele><time>2026-04-25T09:34:32.903Z</time></trkpt><trkpt lat="45.7520817" lon="9.5804783"><ele>349.0</ele><time>2026-04-25T09:34:33.904Z</time></trkpt><trkpt lat="45.7519583" lon="9.580635"><ele>349.0</ele><time>2026-04-25T09:34:34.902Z</time></trkpt><trkpt lat="45.7518467" lon="9.580785"><ele>349.0</ele><time>2026-04-25T09:34:35.904Z</time></trkpt><trkpt lat="45.7517583" lon="9.5809383"><ele>349.0</ele><time>2026-04-25T09:34:36.901Z</time></trkpt><trkpt lat="45.7516883" lon="9.5811017"><ele>349.0</ele><time>2026-04-25T09:34:37.903Z</time></trkpt><trkpt lat="45.7516217" lon="9.581255"><ele>349.0</ele><time>2026-04-25T09:34:38.903Z</time></trkpt><trkpt lat="45.7515517" lon="9.58139"><ele>349.0</ele><time>2026-04-25T09:34:39.903Z</time></trkpt><trkpt lat="45.7514667" lon="9.5814833"><ele>349.0</ele><time>2026-04-25T09:34:40.902Z</time></trkpt><trkpt lat="45.7513667" lon="9.5815433"><ele>349.0</ele><time>2026-04-25T09:34:41.903Z</time></trkpt><trkpt lat="45.7512617" lon="9.5815783"><ele>349.0</ele><time>2026-04-25T09:34:42.906Z</time></trkpt><trkpt lat="45.751155" lon="9.5816117"><ele>349.0</ele><time>2026-04-25T09:34:43.903Z</time></trkpt><trkpt lat="45.7510517" lon="9.5816517"><ele>349.0</ele><time>2026-04-25T09:34:44.903Z</time></trkpt><trkpt lat="45.7509517" lon="9.5817317"><ele>349.0</ele><time>2026-04-25T09:34:45.902Z</time></trkpt><trkpt lat="45.75085" lon="9.5818583"><ele>349.0</ele><time>2026-04-25T09:34:46.906Z</time></trkpt><trkpt lat="45.7507533" lon="9.5820217"><ele>346.0</ele><time>2026-04-25T09:34:47.903Z</time></trkpt><trkpt lat="45.7506483" lon="9.5821883"><ele>343.0</ele><time>2026-04-25T09:34:48.904Z</time></trkpt><trkpt lat="45.750555" lon="9.582365"><ele>340.0</ele><time>2026-04-25T09:34:49.903Z</time></trkpt><trkpt lat="45.7504783" lon="9.5825533"><ele>340.0</ele><time>2026-04-25T09:34:50.903Z</time></trkpt><trkpt lat="45.7504133" lon="9.5827567"><ele>340.0</ele><time>2026-04-25T09:34:51.902Z</time></trkpt><trkpt lat="45.750365" lon="9.5829783"><ele>340.0</ele><time>2026-04-25T09:34:52.903Z</time></trkpt><trkpt lat="45.7503117" lon="9.583185"><ele>341.0</ele><time>2026-04-25T09:34:53.903Z</time></trkpt><trkpt lat="45.75026" lon="9.5833833"><ele>342.0</ele><time>2026-04-25T09:34:54.903Z</time></trkpt><trkpt lat="45.7502133" lon="9.58357"><ele>343.0</ele><time>2026-04-25T09:34:55.902Z</time></trkpt><trkpt lat="45.750145" lon="9.583735"><ele>344.0</ele><time>2026-04-25T09:34:56.906Z</time></trkpt><trkpt lat="45.7500583" lon="9.583885"><ele>340.5</ele><time>2026-04-25T09:34:57.902Z</time></trkpt><trkpt lat="45.749955" lon="9.5840167"><ele>337.0</ele><time>2026-04-25T09:34:58.904Z</time></trkpt><trkpt lat="45.7498483" lon="9.58413"><ele>333.5</ele><time>2026-04-25T09:34:59.904Z</time></trkpt><trkpt lat="45.74975" lon="9.5842367"><ele>330.0</ele><time>2026-04-25T09:35:00.903Z</time></trkpt><trkpt lat="45.7496667" lon="9.584335"><ele>330.0</ele><time>2026-04-25T09:35:01.903Z</time></trkpt><trkpt lat="45.7496117" lon="9.5844317"><ele>330.0</ele><time>2026-04-25T09:35:02.905Z</time></trkpt><trkpt lat="45.7495767" lon="9.5845467"><ele>330.0</ele><time>2026-04-25T09:35:03.904Z</time></trkpt><trkpt lat="45.7495517" lon="9.5846883"><ele>330.0</ele><time>2026-04-25T09:35:04.903Z</time></trkpt><trkpt lat="45.74956" lon="9.5848517"><ele>330.0</ele><time>2026-04-25T09:35:05.906Z</time></trkpt><trkpt lat="45.7495817" lon="9.5850233"><ele>330.4</ele><time>2026-04-25T09:35:06.903Z</time></trkpt><trkpt lat="45.7496017" lon="9.5851883"><ele>330.8</ele><time>2026-04-25T09:35:07.904Z</time></trkpt><trkpt lat="45.74962" lon="9.5853433"><ele>331.20000000000005</ele><time>2026-04-25T09:35:08.904Z</time></trkpt><trkpt lat="45.7496367" lon="9.58549"><ele>331.6</ele><time>2026-04-25T09:35:09.903Z</time></trkpt><trkpt lat="45.7496517" lon="9.5856217"><ele>332.0</ele><time>2026-04-25T09:35:10.904Z</time></trkpt><trkpt lat="45.7496717" lon="9.5857417"><ele>332.0</ele><time>2026-04-25T09:35:11.906Z</time></trkpt><trkpt lat="45.7497033" lon="9.585855"><ele>332.0</ele><time>2026-04-25T09:35:12.906Z</time></trkpt><trkpt lat="45.7497483" lon="9.5859583"><ele>332.0</ele><time>2026-04-25T09:35:13.903Z</time></trkpt><trkpt lat="45.7498067" lon="9.58606"><ele>332.0</ele><time>2026-04-25T09:35:14.905Z</time></trkpt><trkpt lat="45.74988" lon="9.5861617"><ele>332.0</ele><time>2026-04-25T09:35:15.902Z</time></trkpt><trkpt lat="45.7499683" lon="9.5862517"><ele>331.83333333333337</ele><time>2026-04-25T09:35:16.902Z</time></trkpt><trkpt lat="45.7500467" lon="9.5863467"><ele>331.6666666666667</ele><time>2026-04-25T09:35:17.904Z</time></trkpt><trkpt lat="45.7501183" lon="9.58643"><ele>331.5</ele><time>2026-04-25T09:35:18.903Z</time></trkpt><trkpt lat="45.7501917" lon="9.586495"><ele>331.3333333333333</ele><time>2026-04-25T09:35:19.903Z</time></trkpt><trkpt lat="45.7502533" lon="9.5865733"><ele>331.16666666666663</ele><time>2026-04-25T09:35:20.903Z</time></trkpt><trkpt lat="45.7503067" lon="9.5866633"><ele>331.0</ele><time>2026-04-25T09:35:21.902Z</time></trkpt><trkpt lat="45.75035" lon="9.5867567"><ele>331.0</ele><time>2026-04-25T09:35:22.902Z</time></trkpt><trkpt lat="45.7503717" lon="9.5868467"><ele>331.0</ele><time>2026-04-25T09:35:23.903Z</time></trkpt><trkpt lat="45.7503583" lon="9.5869533"><ele>331.0</ele><time>2026-04-25T09:35:24.903Z</time></trkpt><trkpt lat="45.7502967" lon="9.5870633"><ele>331.0</ele><time>2026-04-25T09:35:25.903Z</time></trkpt><trkpt lat="45.750205" lon="9.587155"><ele>331.0</ele><time>2026-04-25T09:35:26.904Z</time></trkpt><trkpt lat="45.7501367" lon="9.5872533"><ele>331.0</ele><time>2026-04-25T09:35:27.903Z</time></trkpt><trkpt lat="45.750075" lon="9.5873433"><ele>330.0</ele><time>2026-04-25T09:35:28.904Z</time></trkpt><trkpt lat="45.7500083" lon="9.5874383"><ele>329.0</ele><time>2026-04-25T09:35:29.903Z</time></trkpt><trkpt lat="45.7499283" lon="9.5875317"><ele>328.0</ele><time>2026-04-25T09:35:30.903Z</time></trkpt><trkpt lat="45.749845" lon="9.5876433"><ele>327.0</ele><time>2026-04-25T09:35:31.904Z</time></trkpt><trkpt lat="45.749765" lon="9.5877617"><ele>326.0</ele><time>2026-04-25T09:35:32.903Z</time></trkpt><trkpt lat="45.7496967" lon="9.5878867"><ele>325.20000000000005</ele><time>2026-04-25T09:35:33.903Z</time></trkpt><trkpt lat="45.7496217" lon="9.5880017"><ele>324.40000000000003</ele><time>2026-04-25T09:35:34.903Z</time></trkpt><trkpt lat="45.7495367" lon="9.5880567"><ele>323.6</ele><time>2026-04-25T09:35:35.903Z</time></trkpt><trkpt lat="45.7494883" lon="9.5881383"><ele>322.8</ele><time>2026-04-25T09:35:36.903Z</time></trkpt><trkpt lat="45.7494183" lon="9.5882267"><ele>322.0</ele><time>2026-04-25T09:35:37.906Z</time></trkpt><trkpt lat="45.7493417" lon="9.5883283"><ele>321.75</ele><time>2026-04-25T09:35:38.902Z</time></trkpt><trkpt lat="45.749255" lon="9.588435"><ele>321.5</ele><time>2026-04-25T09:35:39.902Z</time></trkpt><trkpt lat="45.7491717" lon="9.5885617"><ele>321.25</ele><time>2026-04-25T09:35:40.902Z</time></trkpt><trkpt lat="45.7490917" lon="9.5886883"><ele>321.0</ele><time>2026-04-25T09:35:41.903Z</time></trkpt><trkpt lat="45.7490183" lon="9.588815"><ele>320.6666666666667</ele><time>2026-04-25T09:35:42.903Z</time></trkpt><trkpt lat="45.7489483" lon="9.5889317"><ele>320.3333333333333</ele><time>2026-04-25T09:35:43.903Z</time></trkpt><trkpt lat="45.7488883" lon="9.589035"><ele>320.0</ele><time>2026-04-25T09:35:44.906Z</time></trkpt><trkpt lat="45.7488333" lon="9.589115"><ele>319.66666666666663</ele><time>2026-04-25T09:35:45.906Z</time></trkpt><trkpt lat="45.7487783" lon="9.5891767"><ele>319.3333333333333</ele><time>2026-04-25T09:35:46.906Z</time></trkpt><trkpt lat="45.748725" lon="9.589235"><ele>319.0</ele><time>2026-04-25T09:35:47.903Z</time></trkpt><trkpt lat="45.7486683" lon="9.5892883"><ele>319.0</ele><time>2026-04-25T09:35:48.904Z</time></trkpt><trkpt lat="45.7486133" lon="9.589335"><ele>319.0</ele><time>2026-04-25T09:35:49.904Z</time></trkpt><trkpt lat="45.748535" lon="9.58939"><ele>319.0</ele><time>2026-04-25T09:35:50.905Z</time></trkpt><trkpt lat="45.7484517" lon="9.5894183"><ele>319.0</ele><time>2026-04-25T09:35:51.903Z</time></trkpt><trkpt lat="45.748365" lon="9.5894517"><ele>319.0</ele><time>2026-04-25T09:35:52.904Z</time></trkpt><trkpt lat="45.7482683" lon="9.5894917"><ele>319.0</ele><time>2026-04-25T09:35:53.905Z</time></trkpt><trkpt lat="45.748185" lon="9.589575"><ele>316.8</ele><time>2026-04-25T09:35:54.904Z</time></trkpt><trkpt lat="45.7481117" lon="9.5896833"><ele>314.59999999999997</ele><time>2026-04-25T09:35:55.906Z</time></trkpt><trkpt lat="45.7480467" lon="9.58982"><ele>312.4</ele><time>2026-04-25T09:35:56.906Z</time></trkpt><trkpt lat="45.7479783" lon="9.5899483"><ele>310.2</ele><time>2026-04-25T09:35:57.906Z</time></trkpt><trkpt lat="45.747915" lon="9.59008"><ele>308.0</ele><time>2026-04-25T09:35:58.903Z</time></trkpt><trkpt lat="45.7478517" lon="9.590195"><ele>308.0</ele><time>2026-04-25T09:35:59.904Z</time></trkpt><trkpt lat="45.747795" lon="9.590285"><ele>308.0</ele><time>2026-04-25T09:36:00.906Z</time></trkpt><trkpt lat="45.74775" lon="9.59037"><ele>308.0</ele><time>2026-04-25T09:36:01.906Z</time></trkpt><trkpt lat="45.7477167" lon="9.5904467"><ele>308.0</ele><time>2026-04-25T09:36:02.906Z</time></trkpt><trkpt lat="45.74768" lon="9.5905267"><ele>308.0</ele><time>2026-04-25T09:36:03.903Z</time></trkpt><trkpt lat="45.74763" lon="9.5906167"><ele>308.0</ele><time>2026-04-25T09:36:04.904Z</time></trkpt><trkpt lat="45.7475667" lon="9.5907167"><ele>306.25</ele><time>2026-04-25T09:36:05.904Z</time></trkpt><trkpt lat="45.7474867" lon="9.5908283"><ele>304.5</ele><time>2026-04-25T09:36:06.902Z</time></trkpt><trkpt lat="45.747395" lon="9.5909483"><ele>302.75</ele><time>2026-04-25T09:36:07.904Z</time></trkpt><trkpt lat="45.7473017" lon="9.591075"><ele>301.0</ele><time>2026-04-25T09:36:08.905Z</time></trkpt><trkpt lat="45.74721" lon="9.5912033"><ele>300.6</ele><time>2026-04-25T09:36:09.905Z</time></trkpt><trkpt lat="45.7471283" lon="9.5913233"><ele>300.20000000000005</ele><time>2026-04-25T09:36:10.906Z</time></trkpt><trkpt lat="45.7470483" lon="9.591435"><ele>299.79999999999995</ele><time>2026-04-25T09:36:11.903Z</time></trkpt><trkpt lat="45.7469717" lon="9.5915383"><ele>299.4</ele><time>2026-04-25T09:36:12.906Z</time></trkpt><trkpt lat="45.7469017" lon="9.5916283"><ele>299.0</ele><time>2026-04-25T09:36:13.906Z</time></trkpt><trkpt lat="45.7468317" lon="9.5917"><ele>298.83333333333337</ele><time>2026-04-25T09:36:14.906Z</time></trkpt><trkpt lat="45.7467583" lon="9.59175"><ele>298.6666666666667</ele><time>2026-04-25T09:36:15.906Z</time></trkpt><trkpt lat="45.7466733" lon="9.59178"><ele>298.5</ele><time>2026-04-25T09:36:16.906Z</time></trkpt><trkpt lat="45.7465933" lon="9.591805"><ele>298.3333333333333</ele><time>2026-04-25T09:36:17.903Z</time></trkpt><trkpt lat="45.74651" lon="9.59183"><ele>298.16666666666663</ele><time>2026-04-25T09:36:18.904Z</time></trkpt><trkpt lat="45.7464217" lon="9.5918367"><ele>298.0</ele><time>2026-04-25T09:36:19.904Z</time></trkpt><trkpt lat="45.74632" lon="9.591845"><ele>298.0</ele><time>2026-04-25T09:36:20.903Z</time></trkpt><trkpt lat="45.7462067" lon="9.591835"><ele>298.0</ele><time>2026-04-25T09:36:21.905Z</time></trkpt><trkpt lat="45.74608" lon="9.5918183"><ele>298.0</ele><time>2026-04-25T09:36:22.905Z</time></trkpt><trkpt lat="45.7459533" lon="9.59179"><ele>298.0</ele><time>2026-04-25T09:36:23.904Z</time></trkpt><trkpt lat="45.7458383" lon="9.591765"><ele>297.5</ele><time>2026-04-25T09:36:24.906Z</time></trkpt><trkpt lat="45.7457417" lon="9.5917683"><ele>297.0</ele><time>2026-04-25T09:36:25.906Z</time></trkpt><trkpt lat="45.7456567" lon="9.5917783"><ele>296.5</ele><time>2026-04-25T09:36:26.907Z</time></trkpt><trkpt lat="45.7455967" lon="9.5918267"><ele>296.0</ele><time>2026-04-25T09:36:27.906Z</time></trkpt><trkpt lat="45.7455283" lon="9.5919017"><ele>295.5</ele><time>2026-04-25T09:36:28.906Z</time></trkpt><trkpt lat="45.7454783" lon="9.592045"><ele>295.0</ele><time>2026-04-25T09:36:29.906Z</time></trkpt><trkpt lat="45.745435" lon="9.5921583"><ele>294.16666666666663</ele><time>2026-04-25T09:36:30.905Z</time></trkpt><trkpt lat="45.7453883" lon="9.5922433"><ele>293.3333333333333</ele><time>2026-04-25T09:36:31.906Z</time></trkpt><trkpt lat="45.745325" lon="9.5923133"><ele>292.5</ele><time>2026-04-25T09:36:33.906Z</time></trkpt><trkpt lat="45.7452683" lon="9.5922567"><ele>291.6666666666667</ele><time>2026-04-25T09:36:35.903Z</time></trkpt><trkpt lat="45.7452167" lon="9.59219"><ele>290.83333333333337</ele><time>2026-04-25T09:36:36.906Z</time></trkpt><trkpt lat="45.74515" lon="9.5920733"><ele>290.0</ele><time>2026-04-25T09:36:37.903Z</time></trkpt><trkpt lat="45.745075" lon="9.5919583"><ele>289.5</ele><time>2026-04-25T09:36:38.907Z</time></trkpt><trkpt lat="45.7449867" lon="9.5918417"><ele>289.0</ele><time>2026-04-25T09:36:39.906Z</time></trkpt><trkpt lat="45.744885" lon="9.5917367"><ele>288.5</ele><time>2026-04-25T09:36:40.906Z</time></trkpt><trkpt lat="45.7447717" lon="9.5916433"><ele>288.0</ele><time>2026-04-25T09:36:41.903Z</time></trkpt><trkpt lat="45.7446533" lon="9.591555"><ele>288.0</ele><time>2026-04-25T09:36:42.906Z</time></trkpt><trkpt lat="45.7445467" lon="9.5914733"><ele>288.0</ele><time>2026-04-25T09:36:43.906Z</time></trkpt><trkpt lat="45.7444567" lon="9.5913967"><ele>288.0</ele><time>2026-04-25T09:36:44.906Z</time></trkpt><trkpt lat="45.744375" lon="9.5913267"><ele>288.0</ele><time>2026-04-25T09:36:45.906Z</time></trkpt><trkpt lat="45.744295" lon="9.5912583"><ele>288.0</ele><time>2026-04-25T09:36:46.906Z</time></trkpt><trkpt lat="45.74421" lon="9.5911867"><ele>287.6</ele><time>2026-04-25T09:36:47.903Z</time></trkpt><trkpt lat="45.74412" lon="9.5911267"><ele>287.20000000000005</ele><time>2026-04-25T09:36:48.904Z</time></trkpt><trkpt lat="45.74403" lon="9.5910633"><ele>286.8</ele><time>2026-04-25T09:36:49.904Z</time></trkpt><trkpt lat="45.743945" lon="9.59099"><ele>286.40000000000003</ele><time>2026-04-25T09:36:50.907Z</time></trkpt><trkpt lat="45.7438683" lon="9.5909117"><ele>286.0</ele><time>2026-04-25T09:36:51.904Z</time></trkpt><trkpt lat="45.743805" lon="9.5908433"><ele>286.0</ele><time>2026-04-25T09:36:52.905Z</time></trkpt><trkpt lat="45.7437183" lon="9.5908"><ele>286.0</ele><time>2026-04-25T09:36:54.906Z</time></trkpt><trkpt lat="45.7437717" lon="9.5908733"><ele>286.0</ele><time>2026-04-25T09:36:59.903Z</time></trkpt><trkpt lat="45.7439067" lon="9.5909517"><ele>286.0</ele><time>2026-04-25T09:37:01.903Z</time></trkpt><trkpt lat="45.7440133" lon="9.5910283"><ele>286.0</ele><time>2026-04-25T09:37:02.906Z</time></trkpt><trkpt lat="45.74412" lon="9.591115"><ele>285.8</ele><time>2026-04-25T09:37:03.906Z</time></trkpt><trkpt lat="45.7442217" lon="9.5912"><ele>285.6</ele><time>2026-04-25T09:37:04.905Z</time></trkpt><trkpt lat="45.744315" lon="9.591275"><ele>285.4</ele><time>2026-04-25T09:37:05.906Z</time></trkpt><trkpt lat="45.7444067" lon="9.5913483"><ele>285.2</ele><time>2026-04-25T09:37:06.906Z</time></trkpt><trkpt lat="45.74451" lon="9.5914233"><ele>285.0</ele><time>2026-04-25T09:37:07.906Z</time></trkpt><trkpt lat="45.74462" lon="9.5914967"><ele>285.75</ele><time>2026-04-25T09:37:08.905Z</time></trkpt><trkpt lat="45.744725" lon="9.59157"><ele>286.5</ele><time>2026-04-25T09:37:09.906Z</time></trkpt><trkpt lat="45.744825" lon="9.591655"><ele>287.25</ele><time>2026-04-25T09:37:10.906Z</time></trkpt><trkpt lat="45.7449283" lon="9.5917483"><ele>288.0</ele><time>2026-04-25T09:37:11.906Z</time></trkpt><trkpt lat="45.74503" lon="9.591855"><ele>288.0</ele><time>2026-04-25T09:37:12.906Z</time></trkpt><trkpt lat="45.74513" lon="9.5919717"><ele>288.0</ele><time>2026-04-25T09:37:13.906Z</time></trkpt><trkpt lat="45.7452267" lon="9.5921"><ele>288.0</ele><time>2026-04-25T09:37:14.906Z</time></trkpt><trkpt lat="45.74532" lon="9.59224"><ele>288.0</ele><time>2026-04-25T09:37:15.906Z</time></trkpt><trkpt lat="45.745415" lon="9.5923967"><ele>287.75</ele><time>2026-04-25T09:37:16.906Z</time></trkpt><trkpt lat="45.74551" lon="9.5925617"><ele>287.5</ele><time>2026-04-25T09:37:17.903Z</time></trkpt><trkpt lat="45.7456067" lon="9.5927133"><ele>287.25</ele><time>2026-04-25T09:37:18.903Z</time></trkpt><trkpt lat="45.74571" lon="9.5928467"><ele>287.0</ele><time>2026-04-25T09:37:19.903Z</time></trkpt><trkpt lat="45.745825" lon="9.59296"><ele>287.0</ele><time>2026-04-25T09:37:20.905Z</time></trkpt><trkpt lat="45.745955" lon="9.5930583"><ele>287.0</ele><time>2026-04-25T09:37:21.902Z</time></trkpt><trkpt lat="45.74609" lon="9.5931417"><ele>287.0</ele><time>2026-04-25T09:37:22.904Z</time></trkpt><trkpt lat="45.74622" lon="9.5932183"><ele>287.0</ele><time>2026-04-25T09:37:23.904Z</time></trkpt><trkpt lat="45.74634" lon="9.5933017"><ele>287.2</ele><time>2026-04-25T09:37:24.903Z</time></trkpt><trkpt lat="45.7464467" lon="9.5933933"><ele>287.4</ele><time>2026-04-25T09:37:25.904Z</time></trkpt><trkpt lat="45.7465417" lon="9.5934767"><ele>287.6</ele><time>2026-04-25T09:37:26.906Z</time></trkpt><trkpt lat="45.74662" lon="9.5935633"><ele>287.8</ele><time>2026-04-25T09:37:27.902Z</time></trkpt><trkpt lat="45.746675" lon="9.593665"><ele>288.0</ele><time>2026-04-25T09:37:28.903Z</time></trkpt><trkpt lat="45.7467167" lon="9.5937917"><ele>288.0</ele><time>2026-04-25T09:37:29.904Z</time></trkpt><trkpt lat="45.74676" lon="9.5939417"><ele>288.0</ele><time>2026-04-25T09:37:30.906Z</time></trkpt><trkpt lat="45.7468133" lon="9.5941017"><ele>288.0</ele><time>2026-04-25T09:37:31.906Z</time></trkpt><trkpt lat="45.7468833" lon="9.5942467"><ele>288.0</ele><time>2026-04-25T09:37:32.906Z</time></trkpt><trkpt lat="45.746965" lon="9.594385"><ele>288.75</ele><time>2026-04-25T09:37:33.906Z</time></trkpt><trkpt lat="45.747045" lon="9.5945333"><ele>289.5</ele><time>2026-04-25T09:37:34.905Z</time></trkpt><trkpt lat="45.747125" lon="9.5946817"><ele>290.25</ele><time>2026-04-25T09:37:35.906Z</time></trkpt><trkpt lat="45.7472167" lon="9.594845"><ele>291.0</ele><time>2026-04-25T09:37:36.907Z</time></trkpt><trkpt lat="45.747305" lon="9.595015"><ele>291.0</ele><time>2026-04-25T09:37:37.906Z</time></trkpt><trkpt lat="45.7473867" lon="9.5951717"><ele>291.0</ele><time>2026-04-25T09:37:38.906Z</time></trkpt><trkpt lat="45.7474517" lon="9.5953083"><ele>291.0</ele><time>2026-04-25T09:37:39.906Z</time></trkpt><trkpt lat="45.7474983" lon="9.5954283"><ele>291.0</ele><time>2026-04-25T09:37:40.905Z</time></trkpt><trkpt lat="45.7475333" lon="9.59552"><ele>291.0</ele><time>2026-04-25T09:37:41.903Z</time></trkpt><trkpt lat="45.7475767" lon="9.5956383"><ele>290.2</ele><time>2026-04-25T09:37:43.905Z</time></trkpt><trkpt lat="45.7475333" lon="9.59571"><ele>289.40000000000003</ele><time>2026-04-25T09:37:45.905Z</time></trkpt><trkpt lat="45.747395" lon="9.5957417"><ele>288.6</ele><time>2026-04-25T09:37:47.905Z</time></trkpt><trkpt lat="45.7472883" lon="9.595745"><ele>287.8</ele><time>2026-04-25T09:37:48.905Z</time></trkpt><trkpt lat="45.7471717" lon="9.5957817"><ele>287.0</ele><time>2026-04-25T09:37:49.905Z</time></trkpt><trkpt lat="45.74706" lon="9.5958183"><ele>287.0</ele><time>2026-04-25T09:37:50.905Z</time></trkpt><trkpt lat="45.746965" lon="9.5958483"><ele>287.0</ele><time>2026-04-25T09:37:51.902Z</time></trkpt><trkpt lat="45.74689" lon="9.5958667"><ele>287.0</ele><time>2026-04-25T09:37:52.901Z</time></trkpt><trkpt lat="45.7468133" lon="9.5958817"><ele>287.0</ele><time>2026-04-25T09:37:53.902Z</time></trkpt><trkpt lat="45.7467217" lon="9.5959083"><ele>287.0</ele><time>2026-04-25T09:37:54.902Z</time></trkpt><trkpt lat="45.7465983" lon="9.59593"><ele>286.25</ele><time>2026-04-25T09:37:55.903Z</time></trkpt><trkpt lat="45.74646" lon="9.5959567"><ele>285.5</ele><time>2026-04-25T09:37:56.908Z</time></trkpt><trkpt lat="45.7463133" lon="9.5959867"><ele>284.75</ele><time>2026-04-25T09:37:57.905Z</time></trkpt><trkpt lat="45.7461767" lon="9.596015"><ele>284.0</ele><time>2026-04-25T09:37:58.905Z</time></trkpt><trkpt lat="45.7460633" lon="9.5960383"><ele>283.59999999999997</ele><time>2026-04-25T09:37:59.905Z</time></trkpt><trkpt lat="45.7459667" lon="9.596055"><ele>283.2</ele><time>2026-04-25T09:38:00.906Z</time></trkpt><trkpt lat="45.745875" lon="9.5960683"><ele>282.79999999999995</ele><time>2026-04-25T09:38:01.904Z</time></trkpt><trkpt lat="45.74578" lon="9.5960783"><ele>282.4</ele><time>2026-04-25T09:38:02.905Z</time></trkpt><trkpt lat="45.745685" lon="9.5960733"><ele>282.0</ele><time>2026-04-25T09:38:03.906Z</time></trkpt><trkpt lat="45.7455933" lon="9.59606"><ele>282.0</ele><time>2026-04-25T09:38:04.905Z</time></trkpt><trkpt lat="45.745485" lon="9.59604"><ele>282.0</ele><time>2026-04-25T09:38:05.905Z</time></trkpt><trkpt lat="45.745345" lon="9.5960067"><ele>282.0</ele><time>2026-04-25T09:38:06.905Z</time></trkpt><trkpt lat="45.7451817" lon="9.595955"><ele>282.0</ele><time>2026-04-25T09:38:07.906Z</time></trkpt><trkpt lat="45.7450217" lon="9.595895"><ele>280.3333333333333</ele><time>2026-04-25T09:38:08.906Z</time></trkpt><trkpt lat="45.7448767" lon="9.5958133"><ele>278.66666666666663</ele><time>2026-04-25T09:38:09.905Z</time></trkpt><trkpt lat="45.7447417" lon="9.5956983"><ele>277.0</ele><time>2026-04-25T09:38:10.903Z</time></trkpt><trkpt lat="45.74462" lon="9.5955717"><ele>277.0</ele><time>2026-04-25T09:38:11.906Z</time></trkpt><trkpt lat="45.7445067" lon="9.59546"><ele>277.0</ele><time>2026-04-25T09:38:12.905Z</time></trkpt><trkpt lat="45.74441" lon="9.595365"><ele>277.0</ele><time>2026-04-25T09:38:13.905Z</time></trkpt><trkpt lat="45.74433" lon="9.59531"><ele>277.0</ele><time>2026-04-25T09:38:14.905Z</time></trkpt><trkpt lat="45.74426" lon="9.5952867"><ele>277.0</ele><time>2026-04-25T09:38:15.907Z</time></trkpt><trkpt lat="45.744155" lon="9.595395"><ele>277.0</ele><time>2026-04-25T09:38:17.905Z</time></trkpt><trkpt lat="45.7441183" lon="9.5955217"><ele>277.0</ele><time>2026-04-25T09:38:18.905Z</time></trkpt><trkpt lat="45.7440833" lon="9.59565"><ele>277.0</ele><time>2026-04-25T09:38:19.905Z</time></trkpt><trkpt lat="45.7440583" lon="9.59578"><ele>277.0</ele><time>2026-04-25T09:38:20.907Z</time></trkpt><trkpt lat="45.74404" lon="9.5958833"><ele>277.0</ele><time>2026-04-25T09:38:21.905Z</time></trkpt><trkpt lat="45.7440367" lon="9.5959817"><ele>277.0</ele><time>2026-04-25T09:38:22.905Z</time></trkpt><trkpt lat="45.7440333" lon="9.5960983"><ele>276.75</ele><time>2026-04-25T09:38:23.905Z</time></trkpt><trkpt lat="45.7440333" lon="9.59625"><ele>276.5</ele><time>2026-04-25T09:38:24.905Z</time></trkpt><trkpt lat="45.74403" lon="9.596445"><ele>276.25</ele><time>2026-04-25T09:38:25.906Z</time></trkpt><trkpt lat="45.7440283" lon="9.59666"><ele>276.0</ele><time>2026-04-25T09:38:26.905Z</time></trkpt><trkpt lat="45.7440267" lon="9.5968917"><ele>275.75</ele><time>2026-04-25T09:38:27.904Z</time></trkpt><trkpt lat="45.74402" lon="9.5971233"><ele>275.5</ele><time>2026-04-25T09:38:28.905Z</time></trkpt><trkpt lat="45.7440133" lon="9.5973383"><ele>275.25</ele><time>2026-04-25T09:38:29.907Z</time></trkpt><trkpt lat="45.7440133" lon="9.5975183"><ele>275.0</ele><time>2026-04-25T09:38:30.905Z</time></trkpt><trkpt lat="45.7440167" lon="9.5976617"><ele>275.0</ele><time>2026-04-25T09:38:31.905Z</time></trkpt><trkpt lat="45.7440117" lon="9.5977733"><ele>275.0</ele><time>2026-04-25T09:38:32.905Z</time></trkpt><trkpt lat="45.74399" lon="9.5978583"><ele>275.0</ele><time>2026-04-25T09:38:33.906Z</time></trkpt><trkpt lat="45.74388" lon="9.5979467"><ele>275.0</ele><time>2026-04-25T09:38:35.903Z</time></trkpt><trkpt lat="45.7437867" lon="9.5979767"><ele>275.0</ele><time>2026-04-25T09:38:36.905Z</time></trkpt><trkpt lat="45.743655" lon="9.5980133"><ele>274.25</ele><time>2026-04-25T09:38:37.905Z</time></trkpt><trkpt lat="45.743515" lon="9.5980583"><ele>273.5</ele><time>2026-04-25T09:38:38.905Z</time></trkpt><trkpt lat="45.7433783" lon="9.5980967"><ele>272.75</ele><time>2026-04-25T09:38:39.905Z</time></trkpt><trkpt lat="45.74325" lon="9.598125"><ele>272.0</ele><time>2026-04-25T09:38:40.905Z</time></trkpt><trkpt lat="45.74312" lon="9.59816"><ele>272.0</ele><time>2026-04-25T09:38:41.905Z</time></trkpt><trkpt lat="45.7429817" lon="9.5981933"><ele>272.0</ele><time>2026-04-25T09:38:42.902Z</time></trkpt><trkpt lat="45.74284" lon="9.5982183"><ele>272.0</ele><time>2026-04-25T09:38:43.903Z</time></trkpt><trkpt lat="45.7427" lon="9.59825"><ele>272.0</ele><time>2026-04-25T09:38:44.905Z</time></trkpt><trkpt lat="45.74257" lon="9.59828"><ele>272.25</ele><time>2026-04-25T09:38:45.906Z</time></trkpt><trkpt lat="45.7424483" lon="9.5983083"><ele>272.5</ele><time>2026-04-25T09:38:46.905Z</time></trkpt><trkpt lat="45.7423333" lon="9.5983317"><ele>272.75</ele><time>2026-04-25T09:38:47.905Z</time></trkpt><trkpt lat="45.74222" lon="9.5983417"><ele>273.0</ele><time>2026-04-25T09:38:48.905Z</time></trkpt><trkpt lat="45.7421067" lon="9.5983467"><ele>273.0</ele><time>2026-04-25T09:38:49.903Z</time></trkpt><trkpt lat="45.7420117" lon="9.5983767"><ele>273.0</ele><time>2026-04-25T09:38:50.905Z</time></trkpt><trkpt lat="45.7419283" lon="9.5984217"><ele>273.0</ele><time>2026-04-25T09:38:51.905Z</time></trkpt><trkpt lat="45.7418517" lon="9.59848"><ele>273.0</ele><time>2026-04-25T09:38:52.902Z</time></trkpt><trkpt lat="45.741775" lon="9.598545"><ele>273.0</ele><time>2026-04-25T09:38:53.905Z</time></trkpt><trkpt lat="45.7416917" lon="9.598605"><ele>272.8</ele><time>2026-04-25T09:38:54.903Z</time></trkpt><trkpt lat="45.7416017" lon="9.5986533"><ele>272.6</ele><time>2026-04-25T09:38:55.903Z</time></trkpt><trkpt lat="45.741515" lon="9.5986867"><ele>272.4</ele><time>2026-04-25T09:38:56.903Z</time></trkpt><trkpt lat="45.74143" lon="9.5987033"><ele>272.2</ele><time>2026-04-25T09:38:57.905Z</time></trkpt><trkpt lat="45.7413433" lon="9.5987167"><ele>272.0</ele><time>2026-04-25T09:38:58.902Z</time></trkpt><trkpt lat="45.741245" lon="9.598715"><ele>271.6</ele><time>2026-04-25T09:38:59.904Z</time></trkpt><trkpt lat="45.74114" lon="9.5987383"><ele>271.2</ele><time>2026-04-25T09:39:00.905Z</time></trkpt><trkpt lat="45.741035" lon="9.598765"><ele>270.8</ele><time>2026-04-25T09:39:01.901Z</time></trkpt><trkpt lat="45.7409267" lon="9.59878"><ele>270.4</ele><time>2026-04-25T09:39:02.906Z</time></trkpt><trkpt lat="45.7408217" lon="9.5987733"><ele>270.0</ele><time>2026-04-25T09:39:03.902Z</time></trkpt><trkpt lat="45.7407167" lon="9.5987567"><ele>269.0</ele><time>2026-04-25T09:39:04.905Z</time></trkpt><trkpt lat="45.7406133" lon="9.59875"><ele>268.0</ele><time>2026-04-25T09:39:05.905Z</time></trkpt><trkpt lat="45.7405067" lon="9.5987633"><ele>267.0</ele><time>2026-04-25T09:39:06.905Z</time></trkpt><trkpt lat="45.7404" lon="9.5987883"><ele>266.0</ele><time>2026-04-25T09:39:07.906Z</time></trkpt><trkpt lat="45.740295" lon="9.5988283"><ele>265.0</ele><time>2026-04-25T09:39:08.906Z</time></trkpt><trkpt lat="45.7401983" lon="9.598885"><ele>263.0</ele><time>2026-04-25T09:39:09.906Z</time></trkpt><trkpt lat="45.7401067" lon="9.5989517"><ele>261.0</ele><time>2026-04-25T09:39:10.902Z</time></trkpt><trkpt lat="45.74002" lon="9.59903"><ele>259.0</ele><time>2026-04-25T09:39:11.906Z</time></trkpt><trkpt lat="45.7399367" lon="9.59912"><ele>257.0</ele><time>2026-04-25T09:39:12.902Z</time></trkpt><trkpt lat="45.7398617" lon="9.5992017"><ele>255.0</ele><time>2026-04-25T09:39:13.902Z</time></trkpt><trkpt lat="45.7397933" lon="9.599265"><ele>255.0</ele><time>2026-04-25T09:39:14.906Z</time></trkpt><trkpt lat="45.7397283" lon="9.5993117"><ele>255.0</ele><time>2026-04-25T09:39:15.902Z</time></trkpt><trkpt lat="45.7396667" lon="9.599335"><ele>255.0</ele><time>2026-04-25T09:39:16.903Z</time></trkpt><trkpt lat="45.7395683" lon="9.5992667"><ele>255.0</ele><time>2026-04-25T09:39:18.903Z</time></trkpt><trkpt lat="45.7395433" lon="9.5991717"><ele>255.0</ele><time>2026-04-25T09:39:19.903Z</time></trkpt><trkpt lat="45.7395217" lon="9.5990867"><ele>255.0</ele><time>2026-04-25T09:39:20.903Z</time></trkpt><trkpt lat="45.7394733" lon="9.5989533"><ele>255.0</ele><time>2026-04-25T09:39:22.903Z</time></trkpt><trkpt lat="45.73941" lon="9.5988917"><ele>255.0</ele><time>2026-04-25T09:39:24.903Z</time></trkpt><trkpt lat="45.7393267" lon="9.5989267"><ele>255.0</ele><time>2026-04-25T09:39:26.903Z</time></trkpt><trkpt lat="45.7392183" lon="9.59899"><ele>255.0</ele><time>2026-04-25T09:39:28.902Z</time></trkpt><trkpt lat="45.7391517" lon="9.598995"><ele>255.0</ele><time>2026-04-25T09:39:29.903Z</time></trkpt><trkpt lat="45.7390717" lon="9.5989917"><ele>255.0</ele><time>2026-04-25T09:39:30.906Z</time></trkpt><trkpt lat="45.7389867" lon="9.59899"><ele>253.0</ele><time>2026-04-25T09:39:31.905Z</time></trkpt><trkpt lat="45.7389" lon="9.5989883"><ele>251.0</ele><time>2026-04-25T09:39:32.906Z</time></trkpt><trkpt lat="45.7388183" lon="9.5989783"><ele>249.0</ele><time>2026-04-25T09:39:33.905Z</time></trkpt><trkpt lat="45.73874" lon="9.5989783"><ele>247.0</ele><time>2026-04-25T09:39:34.906Z</time></trkpt><trkpt lat="45.7386683" lon="9.598975"><ele>245.0</ele><time>2026-04-25T09:39:35.906Z</time></trkpt><trkpt lat="45.738605" lon="9.5989683"><ele>243.0</ele><time>2026-04-25T09:39:36.906Z</time></trkpt><trkpt lat="45.73851" lon="9.5989567"><ele>241.8</ele><time>2026-04-25T09:39:38.905Z</time></trkpt><trkpt lat="45.738435" lon="9.598935"><ele>240.60000000000002</ele><time>2026-04-25T09:39:40.909Z</time></trkpt><trkpt lat="45.7383633" lon="9.5989083"><ele>239.39999999999998</ele><time>2026-04-25T09:39:42.905Z</time></trkpt><trkpt lat="45.7382617" lon="9.59888"><ele>238.2</ele><time>2026-04-25T09:39:44.906Z</time></trkpt><trkpt lat="45.738135" lon="9.598855"><ele>237.0</ele><time>2026-04-25T09:39:46.905Z</time></trkpt><trkpt lat="45.7380667" lon="9.5988417"><ele>237.0</ele><time>2026-04-25T09:39:47.906Z</time></trkpt><trkpt lat="45.7379967" lon="9.5988283"><ele>237.0</ele><time>2026-04-25T09:39:48.902Z</time></trkpt><trkpt lat="45.7379233" lon="9.5988183"><ele>237.0</ele><time>2026-04-25T09:39:49.903Z</time></trkpt><trkpt lat="45.7378483" lon="9.59881"><ele>237.0</ele><time>2026-04-25T09:39:50.903Z</time></trkpt><trkpt lat="45.7377717" lon="9.5988"><ele>237.0</ele><time>2026-04-25T09:39:51.902Z</time></trkpt><trkpt lat="45.7376883" lon="9.5987867"><ele>237.0</ele><time>2026-04-25T09:39:52.902Z</time></trkpt><trkpt lat="45.7376017" lon="9.5987617"><ele>237.16666666666666</ele><time>2026-04-25T09:39:53.903Z</time></trkpt><trkpt lat="45.737525" lon="9.5987333"><ele>237.33333333333331</ele><time>2026-04-25T09:39:54.903Z</time></trkpt><trkpt lat="45.7374567" lon="9.5986983"><ele>237.5</ele><time>2026-04-25T09:39:55.903Z</time></trkpt><trkpt lat="45.73736" lon="9.5986017"><ele>237.66666666666666</ele><time>2026-04-25T09:39:57.903Z</time></trkpt><trkpt lat="45.737325" lon="9.598445"><ele>237.83333333333331</ele><time>2026-04-25T09:39:59.906Z</time></trkpt><trkpt lat="45.7373183" lon="9.5983533"><ele>238.0</ele><time>2026-04-25T09:40:00.906Z</time></trkpt><trkpt lat="45.7372967" lon="9.5981883"><ele>237.99999999999997</ele><time>2026-04-25T09:40:02.906Z</time></trkpt><trkpt lat="45.7372567" lon="9.5980833"><ele>238.0</ele><time>2026-04-25T09:40:04.906Z</time></trkpt><trkpt lat="45.7372083" lon="9.5980083"><ele>238.0</ele><time>2026-04-25T09:40:06.905Z</time></trkpt><trkpt lat="45.7371567" lon="9.5979467"><ele>238.0</ele><time>2026-04-25T09:40:08.906Z</time></trkpt><trkpt lat="45.7370833" lon="9.597865"><ele>237.99999999999997</ele><time>2026-04-25T09:40:11.905Z</time></trkpt><trkpt lat="45.7370167" lon="9.59778"><ele>238.0</ele><time>2026-04-25T09:40:14.906Z</time></trkpt><trkpt lat="45.7369417" lon="9.597685"><ele>238.4</ele><time>2026-04-25T09:41:20.904Z</time></trkpt><trkpt lat="45.736855" lon="9.5976433"><ele>238.8</ele><time>2026-04-25T09:41:22.902Z</time></trkpt><trkpt lat="45.736785" lon="9.5975967"><ele>239.2</ele><time>2026-04-25T09:41:23.903Z</time></trkpt><trkpt lat="45.7366917" lon="9.5975483"><ele>239.6</ele><time>2026-04-25T09:41:24.903Z</time></trkpt><trkpt lat="45.736585" lon="9.5974867"><ele>240.0</ele><time>2026-04-25T09:41:25.903Z</time></trkpt><trkpt lat="45.73646" lon="9.5974217"><ele>240.0</ele><time>2026-04-25T09:41:26.903Z</time></trkpt><trkpt lat="45.7363317" lon="9.5973533"><ele>240.0</ele><time>2026-04-25T09:41:27.906Z</time></trkpt><trkpt lat="45.7362033" lon="9.5972883"><ele>240.0</ele><time>2026-04-25T09:41:28.902Z</time></trkpt><trkpt lat="45.73609" lon="9.597235"><ele>240.0</ele><time>2026-04-25T09:41:29.904Z</time></trkpt><trkpt lat="45.7359917" lon="9.5971967"><ele>239.8</ele><time>2026-04-25T09:41:30.906Z</time></trkpt><trkpt lat="45.7359017" lon="9.59716"><ele>239.6</ele><time>2026-04-25T09:41:31.906Z</time></trkpt><trkpt lat="45.73581" lon="9.5971183"><ele>239.39999999999998</ele><time>2026-04-25T09:41:32.906Z</time></trkpt><trkpt lat="45.7357167" lon="9.5970717"><ele>239.2</ele><time>2026-04-25T09:41:33.905Z</time></trkpt><trkpt lat="45.73562" lon="9.5970233"><ele>239.0</ele><time>2026-04-25T09:41:34.906Z</time></trkpt><trkpt lat="45.7355233" lon="9.5969717"><ele>238.83333333333334</ele><time>2026-04-25T09:41:35.905Z</time></trkpt><trkpt lat="45.7354317" lon="9.5969233"><ele>238.66666666666669</ele><time>2026-04-25T09:41:36.906Z</time></trkpt><trkpt lat="45.7353533" lon="9.5968817"><ele>238.5</ele><time>2026-04-25T09:41:37.906Z</time></trkpt><trkpt lat="45.7352867" lon="9.5968483"><ele>238.33333333333331</ele><time>2026-04-25T09:41:38.907Z</time></trkpt><trkpt lat="45.73522" lon="9.5968117"><ele>238.16666666666666</ele><time>2026-04-25T09:41:39.906Z</time></trkpt><trkpt lat="45.735135" lon="9.5967633"><ele>238.0</ele><time>2026-04-25T09:41:40.906Z</time></trkpt><trkpt lat="45.73503" lon="9.596695"><ele>238.0</ele><time>2026-04-25T09:41:41.906Z</time></trkpt><trkpt lat="45.7349183" lon="9.59661"><ele>238.0</ele><time>2026-04-25T09:41:42.906Z</time></trkpt><trkpt lat="45.7348083" lon="9.5965283"><ele>238.0</ele><time>2026-04-25T09:41:43.907Z</time></trkpt><trkpt lat="45.7347083" lon="9.5964617"><ele>238.0</ele><time>2026-04-25T09:41:44.903Z</time></trkpt><trkpt lat="45.734625" lon="9.5963983"><ele>237.99999999999997</ele><time>2026-04-25T09:41:45.906Z</time></trkpt><trkpt lat="45.7345517" lon="9.5963417"><ele>238.0</ele><time>2026-04-25T09:41:46.903Z</time></trkpt><trkpt lat="45.73448" lon="9.5963067"><ele>238.0</ele><time>2026-04-25T09:41:47.904Z</time></trkpt><trkpt lat="45.734405" lon="9.5962817"><ele>238.0</ele><time>2026-04-25T09:41:48.904Z</time></trkpt><trkpt lat="45.7343233" lon="9.5962783"><ele>237.99999999999997</ele><time>2026-04-25T09:41:49.904Z</time></trkpt><trkpt lat="45.7342383" lon="9.5962983"><ele>238.0</ele><time>2026-04-25T09:41:50.905Z</time></trkpt><trkpt lat="45.73415" lon="9.59632"><ele>239.0</ele><time>2026-04-25T09:41:51.907Z</time></trkpt><trkpt lat="45.734065" lon="9.5963417"><ele>240.0</ele><time>2026-04-25T09:41:52.905Z</time></trkpt><trkpt lat="45.7339867" lon="9.5963583"><ele>241.0</ele><time>2026-04-25T09:41:53.904Z</time></trkpt><trkpt lat="45.733905" lon="9.5963417"><ele>242.0</ele><time>2026-04-25T09:41:54.904Z</time></trkpt><trkpt lat="45.7338167" lon="9.5962917"><ele>243.0</ele><time>2026-04-25T09:41:55.906Z</time></trkpt><trkpt lat="45.7337117" lon="9.5962133"><ele>245.0</ele><time>2026-04-25T09:41:56.903Z</time></trkpt><trkpt lat="45.7336067" lon="9.5961533"><ele>247.0</ele><time>2026-04-25T09:41:57.906Z</time></trkpt><trkpt lat="45.7335133" lon="9.596095"><ele>249.0</ele><time>2026-04-25T09:41:58.903Z</time></trkpt><trkpt lat="45.7334367" lon="9.596045"><ele>251.0</ele><time>2026-04-25T09:41:59.903Z</time></trkpt><trkpt lat="45.7333783" lon="9.59599"><ele>253.0</ele><time>2026-04-25T09:42:00.905Z</time></trkpt><trkpt lat="45.7333417" lon="9.5958733"><ele>253.0</ele><time>2026-04-25T09:42:02.906Z</time></trkpt><trkpt lat="45.7334133" lon="9.5957667"><ele>253.0</ele><time>2026-04-25T09:42:04.902Z</time></trkpt><trkpt lat="45.7335533" lon="9.5956783"><ele>253.0</ele><time>2026-04-25T09:42:05.906Z</time></trkpt><trkpt lat="45.733725" lon="9.595615"><ele>253.0</ele><time>2026-04-25T09:42:06.903Z</time></trkpt><trkpt lat="45.7338483" lon="9.595555"><ele>253.60000000000002</ele><time>2026-04-25T09:42:07.903Z</time></trkpt><trkpt lat="45.733975" lon="9.5955117"><ele>254.20000000000002</ele><time>2026-04-25T09:42:08.906Z</time></trkpt><trkpt lat="45.7340817" lon="9.5954833"><ele>254.8</ele><time>2026-04-25T09:42:09.908Z</time></trkpt><trkpt lat="45.7341767" lon="9.5954517"><ele>255.4</ele><time>2026-04-25T09:42:10.905Z</time></trkpt><trkpt lat="45.734265" lon="9.59538"><ele>256.0</ele><time>2026-04-25T09:42:11.999Z</time></trkpt><trkpt lat="45.73432" lon="9.5952617"><ele>256.8333333333333</ele><time>2026-04-25T09:42:12.903Z</time></trkpt><trkpt lat="45.73434" lon="9.5951083"><ele>257.66666666666663</ele><time>2026-04-25T09:42:13.903Z</time></trkpt><trkpt lat="45.7343283" lon="9.5949733"><ele>258.5</ele><time>2026-04-25T09:42:14.904Z</time></trkpt><trkpt lat="45.7343033" lon="9.5948583"><ele>259.3333333333333</ele><time>2026-04-25T09:42:15.906Z</time></trkpt><trkpt lat="45.73426" lon="9.59478"><ele>260.1666666666667</ele><time>2026-04-25T09:42:16.905Z</time></trkpt><trkpt lat="45.734195" lon="9.5947283"><ele>261.0</ele><time>2026-04-25T09:42:17.903Z</time></trkpt><trkpt lat="45.7340933" lon="9.5947133"><ele>261.0</ele><time>2026-04-25T09:42:18.904Z</time></trkpt><trkpt lat="45.7339533" lon="9.594715"><ele>261.0</ele><time>2026-04-25T09:42:19.904Z</time></trkpt><trkpt lat="45.7337967" lon="9.594685"><ele>261.0</ele><time>2026-04-25T09:42:20.905Z</time></trkpt><trkpt lat="45.7336333" lon="9.5946117"><ele>261.3333333333333</ele><time>2026-04-25T09:42:21.903Z</time></trkpt><trkpt lat="45.7334467" lon="9.5945167"><ele>261.66666666666663</ele><time>2026-04-25T09:42:22.904Z</time></trkpt><trkpt lat="45.7332467" lon="9.5944267"><ele>262.0</ele><time>2026-04-25T09:42:23.904Z</time></trkpt><trkpt lat="45.7330467" lon="9.59434"><ele>262.0</ele><time>2026-04-25T09:42:24.906Z</time></trkpt><trkpt lat="45.7328567" lon="9.5942467"><ele>262.0</ele><time>2026-04-25T09:42:25.906Z</time></trkpt><trkpt lat="45.732675" lon="9.594125"><ele>262.0</ele><time>2026-04-25T09:42:26.906Z</time></trkpt><trkpt lat="45.7324933" lon="9.5939733"><ele>261.0</ele><time>2026-04-25T09:42:27.906Z</time></trkpt><trkpt lat="45.7323033" lon="9.5938"><ele>260.0</ele><time>2026-04-25T09:42:28.906Z</time></trkpt><trkpt lat="45.7321083" lon="9.5936267"><ele>260.0</ele><time>2026-04-25T09:42:29.906Z</time></trkpt><trkpt lat="45.7319167" lon="9.5934583"><ele>260.0</ele><time>2026-04-25T09:42:30.906Z</time></trkpt><trkpt lat="45.7317367" lon="9.593315"><ele>260.0</ele><time>2026-04-25T09:42:31.906Z</time></trkpt><trkpt lat="45.7315783" lon="9.5931933"><ele>260.33333333333337</ele><time>2026-04-25T09:42:32.906Z</time></trkpt><trkpt lat="45.73143" lon="9.5930833"><ele>260.6666666666667</ele><time>2026-04-25T09:42:33.906Z</time></trkpt><trkpt lat="45.7312867" lon="9.59297"><ele>261.0</ele><time>2026-04-25T09:42:34.906Z</time></trkpt><trkpt lat="45.7311433" lon="9.5928317"><ele>261.0</ele><time>2026-04-25T09:42:35.906Z</time></trkpt><trkpt lat="45.7310033" lon="9.5926683"><ele>261.0</ele><time>2026-04-25T09:42:36.906Z</time></trkpt><trkpt lat="45.73086" lon="9.5925117"><ele>261.0</ele><time>2026-04-25T09:42:37.905Z</time></trkpt><trkpt lat="45.7307033" lon="9.5923583"><ele>261.0</ele><time>2026-04-25T09:42:38.906Z</time></trkpt><trkpt lat="45.7305217" lon="9.592215"><ele>261.0</ele><time>2026-04-25T09:42:39.906Z</time></trkpt><trkpt lat="45.7303283" lon="9.592075"><ele>261.0</ele><time>2026-04-25T09:42:40.906Z</time></trkpt><trkpt lat="45.7301367" lon="9.5919383"><ele>259.3333333333333</ele><time>2026-04-25T09:42:41.905Z</time></trkpt><trkpt lat="45.7299583" lon="9.5918133"><ele>257.66666666666663</ele><time>2026-04-25T09:42:42.906Z</time></trkpt><trkpt lat="45.7298017" lon="9.591705"><ele>256.0</ele><time>2026-04-25T09:42:43.906Z</time></trkpt><trkpt lat="45.7296467" lon="9.59161"><ele>256.0</ele><time>2026-04-25T09:42:44.906Z</time></trkpt><trkpt lat="45.729485" lon="9.5915117"><ele>256.0</ele><time>2026-04-25T09:42:45.906Z</time></trkpt><trkpt lat="45.7293283" lon="9.59142"><ele>256.0</ele><time>2026-04-25T09:42:46.904Z</time></trkpt><trkpt lat="45.7291917" lon="9.5913433"><ele>255.16666666666666</ele><time>2026-04-25T09:42:47.904Z</time></trkpt><trkpt lat="45.7290817" lon="9.5912817"><ele>254.33333333333331</ele><time>2026-04-25T09:42:48.904Z</time></trkpt><trkpt lat="45.7289983" lon="9.5912433"><ele>253.5</ele><time>2026-04-25T09:42:49.904Z</time></trkpt><trkpt lat="45.7289333" lon="9.59123"><ele>252.66666666666669</ele><time>2026-04-25T09:42:50.904Z</time></trkpt><trkpt lat="45.7288783" lon="9.5913183"><ele>251.83333333333334</ele><time>2026-04-25T09:42:52.904Z</time></trkpt><trkpt lat="45.7289083" lon="9.5914333"><ele>251.0</ele><time>2026-04-25T09:42:53.904Z</time></trkpt><trkpt lat="45.729025" lon="9.5916667"><ele>251.0</ele><time>2026-04-25T09:42:54.904Z</time></trkpt><trkpt lat="45.7291033" lon="9.5918417"><ele>251.00000000000003</ele><time>2026-04-25T09:42:55.904Z</time></trkpt><trkpt lat="45.72916" lon="9.5919983"><ele>251.00000000000003</ele><time>2026-04-25T09:42:56.907Z</time></trkpt><trkpt lat="45.7291767" lon="9.5921183"><ele>251.0</ele><time>2026-04-25T09:42:57.903Z</time></trkpt><trkpt lat="45.7291717" lon="9.59222"><ele>251.0</ele><time>2026-04-25T09:42:58.905Z</time></trkpt><trkpt lat="45.7290833" lon="9.59232"><ele>250.8</ele><time>2026-04-25T09:43:00.902Z</time></trkpt><trkpt lat="45.7290067" lon="9.59234"><ele>250.60000000000002</ele><time>2026-04-25T09:43:01.905Z</time></trkpt><trkpt lat="45.7289217" lon="9.5923633"><ele>250.4</ele><time>2026-04-25T09:43:02.906Z</time></trkpt><trkpt lat="45.72884" lon="9.5923967"><ele>250.2</ele><time>2026-04-25T09:43:03.906Z</time></trkpt><trkpt lat="45.7287517" lon="9.59244"><ele>250.0</ele><time>2026-04-25T09:43:04.904Z</time></trkpt><trkpt lat="45.7286467" lon="9.59247"><ele>250.0</ele><time>2026-04-25T09:43:05.904Z</time></trkpt><trkpt lat="45.72854" lon="9.592505"><ele>250.0</ele><time>2026-04-25T09:43:06.906Z</time></trkpt><trkpt lat="45.72844" lon="9.5925367"><ele>250.0</ele><time>2026-04-25T09:43:07.903Z</time></trkpt><trkpt lat="45.7283517" lon="9.5925667"><ele>250.0</ele><time>2026-04-25T09:43:08.904Z</time></trkpt><trkpt lat="45.7282683" lon="9.5925917"><ele>250.0</ele><time>2026-04-25T09:43:09.902Z</time></trkpt><trkpt lat="45.728195" lon="9.5926183"><ele>250.0</ele><time>2026-04-25T09:43:10.903Z</time></trkpt><trkpt lat="45.728125" lon="9.5926433"><ele>250.0</ele><time>2026-04-25T09:43:12.001Z</time></trkpt><trkpt lat="45.72806" lon="9.592665"><ele>250.0</ele><time>2026-04-25T09:43:12.903Z</time></trkpt><trkpt lat="45.727995" lon="9.59267"><ele>250.0</ele><time>2026-04-25T09:43:13.905Z</time></trkpt><trkpt lat="45.7279267" lon="9.5926517"><ele>250.0</ele><time>2026-04-25T09:43:14.903Z</time></trkpt><trkpt lat="45.7278533" lon="9.59262"><ele>250.0</ele><time>2026-04-25T09:43:15.903Z</time></trkpt><trkpt lat="45.7277717" lon="9.5925767"><ele>250.0</ele><time>2026-04-25T09:43:16.903Z</time></trkpt><trkpt lat="45.7276817" lon="9.5925383"><ele>250.0</ele><time>2026-04-25T09:43:17.903Z</time></trkpt><trkpt lat="45.72759" lon="9.5924933"><ele>250.0</ele><time>2026-04-25T09:43:18.903Z</time></trkpt><trkpt lat="45.7274983" lon="9.5924417"><ele>250.0</ele><time>2026-04-25T09:43:19.903Z</time></trkpt><trkpt lat="45.727405" lon="9.5923883"><ele>250.0</ele><time>2026-04-25T09:43:20.903Z</time></trkpt><trkpt lat="45.7273183" lon="9.592345"><ele>250.0</ele><time>2026-04-25T09:43:21.903Z</time></trkpt><trkpt lat="45.72724" lon="9.5923117"><ele>250.0</ele><time>2026-04-25T09:43:22.903Z</time></trkpt><trkpt lat="45.7271717" lon="9.5922717"><ele>250.0</ele><time>2026-04-25T09:43:23.906Z</time></trkpt><trkpt lat="45.7271" lon="9.59225"><ele>250.0</ele><time>2026-04-25T09:43:24.906Z</time></trkpt><trkpt lat="45.7270367" lon="9.5922167"><ele>250.0</ele><time>2026-04-25T09:43:25.905Z</time></trkpt><trkpt lat="45.7269733" lon="9.5921717"><ele>250.0</ele><time>2026-04-25T09:43:26.904Z</time></trkpt><trkpt lat="45.7269117" lon="9.5921117"><ele>250.0</ele><time>2026-04-25T09:43:27.906Z</time></trkpt><trkpt lat="45.7268417" lon="9.592065"><ele>250.0</ele><time>2026-04-25T09:43:28.903Z</time></trkpt><trkpt lat="45.7267667" lon="9.5920267"><ele>249.83333333333331</ele><time>2026-04-25T09:43:29.905Z</time></trkpt><trkpt lat="45.7266867" lon="9.5919983"><ele>249.66666666666666</ele><time>2026-04-25T09:43:30.903Z</time></trkpt><trkpt lat="45.7266067" lon="9.5919767"><ele>249.5</ele><time>2026-04-25T09:43:31.906Z</time></trkpt><trkpt lat="45.72653" lon="9.5919417"><ele>249.33333333333331</ele><time>2026-04-25T09:43:32.907Z</time></trkpt><trkpt lat="45.7264567" lon="9.5919133"><ele>249.16666666666666</ele><time>2026-04-25T09:43:33.906Z</time></trkpt><trkpt lat="45.72638" lon="9.5918883"><ele>249.0</ele><time>2026-04-25T09:43:34.905Z</time></trkpt><trkpt lat="45.7263017" lon="9.5918667"><ele>249.0</ele><time>2026-04-25T09:43:35.906Z</time></trkpt><trkpt lat="45.7262217" lon="9.5918417"><ele>249.0</ele><time>2026-04-25T09:43:36.906Z</time></trkpt><trkpt lat="45.7261417" lon="9.59181"><ele>249.0</ele><time>2026-04-25T09:43:37.906Z</time></trkpt><trkpt lat="45.7260583" lon="9.5917767"><ele>249.0</ele><time>2026-04-25T09:43:38.906Z</time></trkpt><trkpt lat="45.7259683" lon="9.59174"><ele>249.0</ele><time>2026-04-25T09:43:39.906Z</time></trkpt><trkpt lat="45.7258767" lon="9.5917033"><ele>249.0</ele><time>2026-04-25T09:43:40.905Z</time></trkpt><trkpt lat="45.725785" lon="9.5916583"><ele>248.6</ele><time>2026-04-25T09:43:41.904Z</time></trkpt><trkpt lat="45.7256917" lon="9.5916083"><ele>248.2</ele><time>2026-04-25T09:43:42.904Z</time></trkpt><trkpt lat="45.7255933" lon="9.59155"><ele>247.79999999999998</ele><time>2026-04-25T09:43:43.904Z</time></trkpt><trkpt lat="45.72549" lon="9.5914883"><ele>247.39999999999998</ele><time>2026-04-25T09:43:44.906Z</time></trkpt><trkpt lat="45.7253883" lon="9.5914333"><ele>247.0</ele><time>2026-04-25T09:43:45.906Z</time></trkpt><trkpt lat="45.7252867" lon="9.59138"><ele>247.0</ele><time>2026-04-25T09:43:46.906Z</time></trkpt><trkpt lat="45.725185" lon="9.5913183"><ele>247.0</ele><time>2026-04-25T09:43:47.906Z</time></trkpt><trkpt lat="45.7250833" lon="9.59126"><ele>247.0</ele><time>2026-04-25T09:43:48.905Z</time></trkpt><trkpt lat="45.7249833" lon="9.5912033"><ele>247.0</ele><time>2026-04-25T09:43:49.905Z</time></trkpt><trkpt lat="45.72488" lon="9.5911533"><ele>247.0</ele><time>2026-04-25T09:43:50.904Z</time></trkpt><trkpt lat="45.7247683" lon="9.5911083"><ele>247.0</ele><time>2026-04-25T09:43:51.903Z</time></trkpt><trkpt lat="45.7246583" lon="9.591065"><ele>247.0</ele><time>2026-04-25T09:43:52.905Z</time></trkpt><trkpt lat="45.724545" lon="9.59101"><ele>247.0</ele><time>2026-04-25T09:43:53.904Z</time></trkpt><trkpt lat="45.7244317" lon="9.59096"><ele>247.0</ele><time>2026-04-25T09:43:54.911Z</time></trkpt><trkpt lat="45.724325" lon="9.590895"><ele>247.0</ele><time>2026-04-25T09:43:55.905Z</time></trkpt><trkpt lat="45.7242217" lon="9.59083"><ele>247.0</ele><time>2026-04-25T09:43:56.907Z</time></trkpt><trkpt lat="45.7241233" lon="9.5907767"><ele>247.0</ele><time>2026-04-25T09:43:57.904Z</time></trkpt><trkpt lat="45.7240317" lon="9.590725"><ele>247.0</ele><time>2026-04-25T09:43:58.905Z</time></trkpt><trkpt lat="45.72395" lon="9.590675"><ele>247.0</ele><time>2026-04-25T09:43:59.901Z</time></trkpt><trkpt lat="45.72387" lon="9.5906233"><ele>247.0</ele><time>2026-04-25T09:44:00.905Z</time></trkpt><trkpt lat="45.72379" lon="9.59057"><ele>247.0</ele><time>2026-04-25T09:44:01.905Z</time></trkpt><trkpt lat="45.7237033" lon="9.5905217"><ele>247.0</ele><time>2026-04-25T09:44:02.905Z</time></trkpt><trkpt lat="45.723615" lon="9.5904683"><ele>247.0</ele><time>2026-04-25T09:44:03.905Z</time></trkpt><trkpt lat="45.7235367" lon="9.5903917"><ele>247.0</ele><time>2026-04-25T09:44:04.905Z</time></trkpt><trkpt lat="45.7234567" lon="9.5903117"><ele>246.8</ele><time>2026-04-25T09:44:05.905Z</time></trkpt><trkpt lat="45.7233883" lon="9.5902083"><ele>246.6</ele><time>2026-04-25T09:44:06.905Z</time></trkpt><trkpt lat="45.7233267" lon="9.5900883"><ele>246.40000000000003</ele><time>2026-04-25T09:44:07.905Z</time></trkpt><trkpt lat="45.723275" lon="9.5899567"><ele>246.20000000000002</ele><time>2026-04-25T09:44:08.907Z</time></trkpt><trkpt lat="45.7232283" lon="9.589835"><ele>246.0</ele><time>2026-04-25T09:44:09.905Z</time></trkpt><trkpt lat="45.72319" lon="9.589715"><ele>246.0</ele><time>2026-04-25T09:44:10.905Z</time></trkpt><trkpt lat="45.7231533" lon="9.5895867"><ele>246.00000000000003</ele><time>2026-04-25T09:44:11.905Z</time></trkpt><trkpt lat="45.7231267" lon="9.58945"><ele>246.00000000000003</ele><time>2026-04-25T09:44:12.905Z</time></trkpt><trkpt lat="45.723115" lon="9.5893033"><ele>246.0</ele><time>2026-04-25T09:44:13.905Z</time></trkpt><trkpt lat="45.72311" lon="9.5891633"><ele>246.0</ele><time>2026-04-25T09:44:14.905Z</time></trkpt><trkpt lat="45.7230967" lon="9.5890383"><ele>246.0</ele><time>2026-04-25T09:44:15.906Z</time></trkpt><trkpt lat="45.7230633" lon="9.588935"><ele>246.0</ele><time>2026-04-25T09:44:16.906Z</time></trkpt><trkpt lat="45.72301" lon="9.5888417"><ele>246.0</ele><time>2026-04-25T09:44:17.902Z</time></trkpt><trkpt lat="45.7229433" lon="9.5887517"><ele>246.0</ele><time>2026-04-25T09:44:18.902Z</time></trkpt><trkpt lat="45.7228767" lon="9.5886583"><ele>246.0</ele><time>2026-04-25T09:44:19.903Z</time></trkpt><trkpt lat="45.72282" lon="9.5885517"><ele>246.0</ele><time>2026-04-25T09:44:20.903Z</time></trkpt><trkpt lat="45.72278" lon="9.58842"><ele>246.25</ele><time>2026-04-25T09:44:21.902Z</time></trkpt><trkpt lat="45.72276" lon="9.5882667"><ele>246.5</ele><time>2026-04-25T09:44:22.903Z</time></trkpt><trkpt lat="45.7227483" lon="9.5880917"><ele>246.75</ele><time>2026-04-25T09:44:23.906Z</time></trkpt><trkpt lat="45.7227367" lon="9.5879083"><ele>247.0</ele><time>2026-04-25T09:44:24.902Z</time></trkpt><trkpt lat="45.7227167" lon="9.58774"><ele>247.2</ele><time>2026-04-25T09:44:25.902Z</time></trkpt><trkpt lat="45.7226683" lon="9.5876033"><ele>247.39999999999998</ele><time>2026-04-25T09:44:26.904Z</time></trkpt><trkpt lat="45.722595" lon="9.5874967"><ele>247.60000000000002</ele><time>2026-04-25T09:44:27.902Z</time></trkpt><trkpt lat="45.7224967" lon="9.5874183"><ele>247.8</ele><time>2026-04-25T09:44:28.903Z</time></trkpt><trkpt lat="45.7223783" lon="9.5873617"><ele>248.0</ele><time>2026-04-25T09:44:29.901Z</time></trkpt><trkpt lat="45.722255" lon="9.587305"><ele>248.0</ele><time>2026-04-25T09:44:30.902Z</time></trkpt><trkpt lat="45.7221333" lon="9.5872417"><ele>248.0</ele><time>2026-04-25T09:44:31.902Z</time></trkpt><trkpt lat="45.7220083" lon="9.5871733"><ele>248.0</ele><time>2026-04-25T09:44:32.902Z</time></trkpt><trkpt lat="45.7218883" lon="9.5871017"><ele>248.0</ele><time>2026-04-25T09:44:33.902Z</time></trkpt><trkpt lat="45.7217667" lon="9.58703"><ele>248.75</ele><time>2026-04-25T09:44:34.902Z</time></trkpt><trkpt lat="45.7216483" lon="9.5869583"><ele>249.5</ele><time>2026-04-25T09:44:35.903Z</time></trkpt><trkpt lat="45.7215383" lon="9.5868883"><ele>250.25</ele><time>2026-04-25T09:44:36.902Z</time></trkpt><trkpt lat="45.72143" lon="9.58682"><ele>251.0</ele><time>2026-04-25T09:44:37.902Z</time></trkpt><trkpt lat="45.7213233" lon="9.586765"><ele>251.0</ele><time>2026-04-25T09:44:38.902Z</time></trkpt><trkpt lat="45.72122" lon="9.58671"><ele>251.00000000000003</ele><time>2026-04-25T09:44:39.902Z</time></trkpt><trkpt lat="45.7211217" lon="9.5866733"><ele>251.00000000000003</ele><time>2026-04-25T09:44:40.901Z</time></trkpt><trkpt lat="45.7210317" lon="9.5866483"><ele>251.0</ele><time>2026-04-25T09:44:41.903Z</time></trkpt><trkpt lat="45.72094" lon="9.5866417"><ele>251.0</ele><time>2026-04-25T09:44:42.902Z</time></trkpt><trkpt lat="45.7208517" lon="9.58666"><ele>249.66666666666669</ele><time>2026-04-25T09:44:43.907Z</time></trkpt><trkpt lat="45.7207717" lon="9.5867083"><ele>248.33333333333334</ele><time>2026-04-25T09:44:44.902Z</time></trkpt><trkpt lat="45.7207117" lon="9.5867883"><ele>247.0</ele><time>2026-04-25T09:44:45.902Z</time></trkpt><trkpt lat="45.720675" lon="9.5869"><ele>245.66666666666669</ele><time>2026-04-25T09:44:46.902Z</time></trkpt><trkpt lat="45.720665" lon="9.587025"><ele>244.33333333333334</ele><time>2026-04-25T09:44:47.905Z</time></trkpt><trkpt lat="45.7206783" lon="9.5871533"><ele>243.0</ele><time>2026-04-25T09:44:48.905Z</time></trkpt><trkpt lat="45.7207117" lon="9.5872933"><ele>241.60000000000002</ele><time>2026-04-25T09:44:49.906Z</time></trkpt><trkpt lat="45.7207517" lon="9.587435"><ele>240.20000000000002</ele><time>2026-04-25T09:44:50.903Z</time></trkpt><trkpt lat="45.720785" lon="9.5875733"><ele>238.8</ele><time>2026-04-25T09:44:51.905Z</time></trkpt><trkpt lat="45.7208117" lon="9.587705"><ele>237.4</ele><time>2026-04-25T09:44:52.903Z</time></trkpt><trkpt lat="45.7208317" lon="9.5878267"><ele>236.0</ele><time>2026-04-25T09:44:53.905Z</time></trkpt><trkpt lat="45.7208483" lon="9.5879433"><ele>235.0</ele><time>2026-04-25T09:44:54.905Z</time></trkpt><trkpt lat="45.7208467" lon="9.588055"><ele>234.00000000000003</ele><time>2026-04-25T09:44:55.903Z</time></trkpt><trkpt lat="45.720815" lon="9.5881633"><ele>233.00000000000003</ele><time>2026-04-25T09:44:56.904Z</time></trkpt><trkpt lat="45.72075" lon="9.5882867"><ele>232.0</ele><time>2026-04-25T09:44:57.903Z</time></trkpt><trkpt lat="45.72067" lon="9.5884017"><ele>231.0</ele><time>2026-04-25T09:44:58.903Z</time></trkpt><trkpt lat="45.720585" lon="9.5884967"><ele>231.0</ele><time>2026-04-25T09:44:59.906Z</time></trkpt><trkpt lat="45.720485" lon="9.588565"><ele>231.00000000000003</ele><time>2026-04-25T09:45:00.903Z</time></trkpt><trkpt lat="45.7203783" lon="9.588615"><ele>231.00000000000003</ele><time>2026-04-25T09:45:01.904Z</time></trkpt><trkpt lat="45.72027" lon="9.588645"><ele>231.0</ele><time>2026-04-25T09:45:02.906Z</time></trkpt><trkpt lat="45.720165" lon="9.588655"><ele>231.0</ele><time>2026-04-25T09:45:03.905Z</time></trkpt><trkpt lat="45.7200567" lon="9.5886533"><ele>229.60000000000002</ele><time>2026-04-25T09:45:04.906Z</time></trkpt><trkpt lat="45.7199483" lon="9.5886483"><ele>228.20000000000002</ele><time>2026-04-25T09:45:05.905Z</time></trkpt><trkpt lat="45.7198433" lon="9.5886517"><ele>226.79999999999998</ele><time>2026-04-25T09:45:06.906Z</time></trkpt><trkpt lat="45.7197417" lon="9.58866"><ele>225.39999999999998</ele><time>2026-04-25T09:45:07.905Z</time></trkpt><trkpt lat="45.7196483" lon="9.58866"><ele>224.0</ele><time>2026-04-25T09:45:08.905Z</time></trkpt><trkpt lat="45.7195633" lon="9.588635"><ele>224.00000000000003</ele><time>2026-04-25T09:45:09.905Z</time></trkpt><trkpt lat="45.7194867" lon="9.588595"><ele>224.0</ele><time>2026-04-25T09:45:10.905Z</time></trkpt><trkpt lat="45.7194133" lon="9.588545"><ele>224.0</ele><time>2026-04-25T09:45:11.902Z</time></trkpt><trkpt lat="45.719345" lon="9.588485"><ele>224.0</ele><time>2026-04-25T09:45:12.903Z</time></trkpt><trkpt lat="45.719285" lon="9.5884117"><ele>224.00000000000003</ele><time>2026-04-25T09:45:13.904Z</time></trkpt><trkpt lat="45.7192267" lon="9.5883417"><ele>224.0</ele><time>2026-04-25T09:45:14.905Z</time></trkpt><trkpt lat="45.7191633" lon="9.5882833"><ele>223.83333333333334</ele><time>2026-04-25T09:45:15.902Z</time></trkpt><trkpt lat="45.7190883" lon="9.5882383"><ele>223.66666666666669</ele><time>2026-04-25T09:45:16.905Z</time></trkpt><trkpt lat="45.7190067" lon="9.58821"><ele>223.5</ele><time>2026-04-25T09:45:17.903Z</time></trkpt><trkpt lat="45.7189267" lon="9.5881783"><ele>223.33333333333331</ele><time>2026-04-25T09:45:18.903Z</time></trkpt><trkpt lat="45.7188567" lon="9.5881367"><ele>223.16666666666666</ele><time>2026-04-25T09:45:19.904Z</time></trkpt><trkpt lat="45.718795" lon="9.588095"><ele>223.0</ele><time>2026-04-25T09:45:20.906Z</time></trkpt><trkpt lat="45.7187417" lon="9.5880433"><ele>223.0</ele><time>2026-04-25T09:45:21.906Z</time></trkpt><trkpt lat="45.718685" lon="9.5879767"><ele>223.0</ele><time>2026-04-25T09:45:22.902Z</time></trkpt><trkpt lat="45.7186167" lon="9.587895"><ele>223.0</ele><time>2026-04-25T09:45:23.903Z</time></trkpt><trkpt lat="45.7185317" lon="9.5878083"><ele>223.0</ele><time>2026-04-25T09:45:24.903Z</time></trkpt><trkpt lat="45.7184333" lon="9.58773"><ele>223.0</ele><time>2026-04-25T09:45:25.904Z</time></trkpt><trkpt lat="45.71832" lon="9.5876567"><ele>223.2</ele><time>2026-04-25T09:45:26.904Z</time></trkpt><trkpt lat="45.7182083" lon="9.5875867"><ele>223.4</ele><time>2026-04-25T09:45:27.903Z</time></trkpt><trkpt lat="45.7181033" lon="9.58752"><ele>223.59999999999997</ele><time>2026-04-25T09:45:28.905Z</time></trkpt><trkpt lat="45.7180067" lon="9.58746"><ele>223.79999999999998</ele><time>2026-04-25T09:45:29.904Z</time></trkpt><trkpt lat="45.71792" lon="9.587405"><ele>224.0</ele><time>2026-04-25T09:45:30.904Z</time></trkpt><trkpt lat="45.7178483" lon="9.587355"><ele>224.0</ele><time>2026-04-25T09:45:31.906Z</time></trkpt><trkpt lat="45.71776" lon="9.5872517"><ele>223.99999999999997</ele><time>2026-04-25T09:45:33.906Z</time></trkpt><trkpt lat="45.7177317" lon="9.5871667"><ele>223.99999999999997</ele><time>2026-04-25T09:45:34.906Z</time></trkpt><trkpt lat="45.7177133" lon="9.58704"><ele>224.0</ele><time>2026-04-25T09:45:35.906Z</time></trkpt><trkpt lat="45.7177033" lon="9.5868917"><ele>224.0</ele><time>2026-04-25T09:45:36.906Z</time></trkpt><trkpt lat="45.7176867" lon="9.5867567"><ele>224.50000000000003</ele><time>2026-04-25T09:45:37.906Z</time></trkpt><trkpt lat="45.7176533" lon="9.5866383"><ele>225.0</ele><time>2026-04-25T09:45:38.904Z</time></trkpt><trkpt lat="45.7176067" lon="9.5865333"><ele>225.5</ele><time>2026-04-25T09:45:39.903Z</time></trkpt><trkpt lat="45.717545" lon="9.5864667"><ele>226.0</ele><time>2026-04-25T09:45:40.903Z</time></trkpt><trkpt lat="45.717445" lon="9.586375"><ele>226.50000000000003</ele><time>2026-04-25T09:45:42.902Z</time></trkpt><trkpt lat="45.7174033" lon="9.5863017"><ele>227.0</ele><time>2026-04-25T09:45:43.905Z</time></trkpt><trkpt lat="45.71737" lon="9.5862067"><ele>228.66666666666669</ele><time>2026-04-25T09:45:44.904Z</time></trkpt><trkpt lat="45.7173533" lon="9.586075"><ele>230.33333333333334</ele><time>2026-04-25T09:45:45.903Z</time></trkpt><trkpt lat="45.7173467" lon="9.5859433"><ele>232.0</ele><time>2026-04-25T09:45:46.905Z</time></trkpt><trkpt lat="45.7173317" lon="9.58583"><ele>233.66666666666669</ele><time>2026-04-25T09:45:47.903Z</time></trkpt><trkpt lat="45.71731" lon="9.5857417"><ele>235.33333333333334</ele><time>2026-04-25T09:45:48.902Z</time></trkpt><trkpt lat="45.7172517" lon="9.5856"><ele>237.0</ele><time>2026-04-25T09:45:50.905Z</time></trkpt><trkpt lat="45.7171833" lon="9.585585"><ele>237.0</ele><time>2026-04-25T09:45:51.902Z</time></trkpt><trkpt lat="45.7170933" lon="9.5855833"><ele>237.0</ele><time>2026-04-25T09:45:52.903Z</time></trkpt><trkpt lat="45.7169767" lon="9.585605"><ele>237.0</ele><time>2026-04-25T09:45:53.902Z</time></trkpt><trkpt lat="45.716835" lon="9.5856517"><ele>237.0</ele><time>2026-04-25T09:45:54.906Z</time></trkpt><trkpt lat="45.7166917" lon="9.5857167"><ele>237.0</ele><time>2026-04-25T09:45:55.903Z</time></trkpt><trkpt lat="45.7165533" lon="9.58581"><ele>237.0</ele><time>2026-04-25T09:45:56.906Z</time></trkpt><trkpt lat="45.716405" lon="9.58593"><ele>237.0</ele><time>2026-04-25T09:45:57.906Z</time></trkpt><trkpt lat="45.7162617" lon="9.5860433"><ele>237.0</ele><time>2026-04-25T09:45:58.906Z</time></trkpt><trkpt lat="45.716125" lon="9.5861567"><ele>237.0</ele><time>2026-04-25T09:45:59.905Z</time></trkpt><trkpt lat="45.716005" lon="9.5862583"><ele>237.0</ele><time>2026-04-25T09:46:00.906Z</time></trkpt><trkpt lat="45.7158917" lon="9.5863483"><ele>237.0</ele><time>2026-04-25T09:46:01.902Z</time></trkpt><trkpt lat="45.7157817" lon="9.5864183"><ele>235.5</ele><time>2026-04-25T09:46:02.906Z</time></trkpt><trkpt lat="45.7156667" lon="9.586475"><ele>234.0</ele><time>2026-04-25T09:46:03.903Z</time></trkpt><trkpt lat="45.7155433" lon="9.5865267"><ele>232.5</ele><time>2026-04-25T09:46:04.903Z</time></trkpt><trkpt lat="45.7154183" lon="9.5865667"><ele>231.0</ele><time>2026-04-25T09:46:05.906Z</time></trkpt><trkpt lat="45.715295" lon="9.586605"><ele>232.0</ele><time>2026-04-25T09:46:06.906Z</time></trkpt><trkpt lat="45.7151767" lon="9.5866467"><ele>233.00000000000003</ele><time>2026-04-25T09:46:07.906Z</time></trkpt><trkpt lat="45.7150667" lon="9.5866733"><ele>234.00000000000003</ele><time>2026-04-25T09:46:08.905Z</time></trkpt><trkpt lat="45.7149633" lon="9.5866867"><ele>235.0</ele><time>2026-04-25T09:46:09.906Z</time></trkpt><trkpt lat="45.7148667" lon="9.5866983"><ele>236.0</ele><time>2026-04-25T09:46:10.903Z</time></trkpt><trkpt lat="45.7147667" lon="9.5867083"><ele>236.0</ele><time>2026-04-25T09:46:11.903Z</time></trkpt><trkpt lat="45.7146583" lon="9.58671"><ele>236.00000000000003</ele><time>2026-04-25T09:46:12.903Z</time></trkpt><trkpt lat="45.7145467" lon="9.5867167"><ele>236.00000000000003</ele><time>2026-04-25T09:46:13.903Z</time></trkpt><trkpt lat="45.714435" lon="9.5867267"><ele>236.0</ele><time>2026-04-25T09:46:14.905Z</time></trkpt><trkpt lat="45.7143267" lon="9.5867417"><ele>236.0</ele><time>2026-04-25T09:46:15.904Z</time></trkpt><trkpt lat="45.714215" lon="9.5867667"><ele>236.4</ele><time>2026-04-25T09:46:16.906Z</time></trkpt><trkpt lat="45.7141067" lon="9.5867967"><ele>236.8</ele><time>2026-04-25T09:46:17.903Z</time></trkpt><trkpt lat="45.7140017" lon="9.5868267"><ele>237.20000000000002</ele><time>2026-04-25T09:46:18.902Z</time></trkpt><trkpt lat="45.7138933" lon="9.5868633"><ele>237.60000000000002</ele><time>2026-04-25T09:46:19.904Z</time></trkpt><trkpt lat="45.713785" lon="9.586895"><ele>238.0</ele><time>2026-04-25T09:46:20.904Z</time></trkpt><trkpt lat="45.71368" lon="9.58692"><ele>238.0</ele><time>2026-04-25T09:46:21.903Z</time></trkpt><trkpt lat="45.71358" lon="9.5869517"><ele>238.0</ele><time>2026-04-25T09:46:22.903Z</time></trkpt><trkpt lat="45.7134883" lon="9.5869883"><ele>238.0</ele><time>2026-04-25T09:46:23.904Z</time></trkpt><trkpt lat="45.7133967" lon="9.5870317"><ele>238.0</ele><time>2026-04-25T09:46:24.909Z</time></trkpt><trkpt lat="45.7133117" lon="9.58708"><ele>238.0</ele><time>2026-04-25T09:46:25.905Z</time></trkpt><trkpt lat="45.7132317" lon="9.5871283"><ele>236.99999999999997</ele><time>2026-04-25T09:46:26.906Z</time></trkpt><trkpt lat="45.71315" lon="9.58718"><ele>236.0</ele><time>2026-04-25T09:46:27.903Z</time></trkpt><trkpt lat="45.7130683" lon="9.587235"><ele>235.0</ele><time>2026-04-25T09:46:28.904Z</time></trkpt><trkpt lat="45.71299" lon="9.5872817"><ele>234.0</ele><time>2026-04-25T09:46:29.911Z</time></trkpt><trkpt lat="45.7129183" lon="9.5873317"><ele>232.99999999999997</ele><time>2026-04-25T09:46:30.905Z</time></trkpt><trkpt lat="45.7128533" lon="9.5873783"><ele>232.0</ele><time>2026-04-25T09:46:31.905Z</time></trkpt><trkpt lat="45.7127917" lon="9.5874217"><ele>231.6</ele><time>2026-04-25T09:46:32.905Z</time></trkpt><trkpt lat="45.7126983" lon="9.5874883"><ele>231.2</ele><time>2026-04-25T09:46:34.904Z</time></trkpt><trkpt lat="45.7126017" lon="9.5875717"><ele>230.8</ele><time>2026-04-25T09:46:36.907Z</time></trkpt><trkpt lat="45.7125333" lon="9.5875967"><ele>230.4</ele><time>2026-04-25T09:46:37.906Z</time></trkpt><trkpt lat="45.7124433" lon="9.5875983"><ele>230.0</ele><time>2026-04-25T09:46:38.907Z</time></trkpt><trkpt lat="45.71236" lon="9.587595"><ele>230.00000000000003</ele><time>2026-04-25T09:46:39.905Z</time></trkpt><trkpt lat="45.7122817" lon="9.58759"><ele>230.0</ele><time>2026-04-25T09:46:40.906Z</time></trkpt><trkpt lat="45.7122167" lon="9.5875817"><ele>230.0</ele><time>2026-04-25T09:46:41.907Z</time></trkpt><trkpt lat="45.7121267" lon="9.5876167"><ele>230.0</ele><time>2026-04-25T09:46:43.902Z</time></trkpt><trkpt lat="45.7121167" lon="9.58777"><ele>230.00000000000003</ele><time>2026-04-25T09:46:45.904Z</time></trkpt><trkpt lat="45.7120933" lon="9.58791"><ele>230.0</ele><time>2026-04-25T09:46:46.906Z</time></trkpt><trkpt lat="45.7120733" lon="9.58807"><ele>229.2</ele><time>2026-04-25T09:46:47.905Z</time></trkpt><trkpt lat="45.7120583" lon="9.5881917"><ele>228.4</ele><time>2026-04-25T09:46:48.903Z</time></trkpt><trkpt lat="45.7120383" lon="9.58832"><ele>227.60000000000002</ele><time>2026-04-25T09:46:49.903Z</time></trkpt><trkpt lat="45.712015" lon="9.5884467"><ele>226.8</ele><time>2026-04-25T09:46:50.905Z</time></trkpt><trkpt lat="45.7119833" lon="9.5885617"><ele>226.0</ele><time>2026-04-25T09:46:51.902Z</time></trkpt><trkpt lat="45.7119317" lon="9.5886767"><ele>226.75</ele><time>2026-04-25T09:46:52.902Z</time></trkpt><trkpt lat="45.7118617" lon="9.5888117"><ele>227.5</ele><time>2026-04-25T09:46:53.902Z</time></trkpt><trkpt lat="45.7117833" lon="9.5889617"><ele>228.25</ele><time>2026-04-25T09:46:54.905Z</time></trkpt><trkpt lat="45.7116983" lon="9.58911"><ele>229.0</ele><time>2026-04-25T09:46:55.905Z</time></trkpt><trkpt lat="45.71162" lon="9.5892383"><ele>229.0</ele><time>2026-04-25T09:46:56.903Z</time></trkpt><trkpt lat="45.711555" lon="9.58935"><ele>228.99999999999997</ele><time>2026-04-25T09:46:57.903Z</time></trkpt><trkpt lat="45.711505" lon="9.5894367"><ele>228.99999999999997</ele><time>2026-04-25T09:46:58.902Z</time></trkpt><trkpt lat="45.7114533" lon="9.5895"><ele>229.0</ele><time>2026-04-25T09:46:59.903Z</time></trkpt><trkpt lat="45.7113517" lon="9.5896167"><ele>229.0</ele><time>2026-04-25T09:47:01.906Z</time></trkpt><trkpt lat="45.7113" lon="9.58972"><ele>229.75</ele><time>2026-04-25T09:47:02.903Z</time></trkpt><trkpt lat="45.7112533" lon="9.5898517"><ele>230.5</ele><time>2026-04-25T09:47:03.903Z</time></trkpt><trkpt lat="45.7112017" lon="9.5900217"><ele>231.25</ele><time>2026-04-25T09:47:04.903Z</time></trkpt><trkpt lat="45.7111217" lon="9.5902233"><ele>232.0</ele><time>2026-04-25T09:47:05.904Z</time></trkpt><trkpt lat="45.71104" lon="9.590415"><ele>232.0</ele><time>2026-04-25T09:47:06.903Z</time></trkpt><trkpt lat="45.71096" lon="9.590605"><ele>232.0</ele><time>2026-04-25T09:47:07.903Z</time></trkpt><trkpt lat="45.7108917" lon="9.5907783"><ele>232.0</ele><time>2026-04-25T09:47:08.906Z</time></trkpt><trkpt lat="45.71085" lon="9.5909367"><ele>232.0</ele><time>2026-04-25T09:47:09.906Z</time></trkpt><trkpt lat="45.7108333" lon="9.59109"><ele>231.75</ele><time>2026-04-25T09:47:10.903Z</time></trkpt><trkpt lat="45.71083" lon="9.5912467"><ele>231.5</ele><time>2026-04-25T09:47:11.906Z</time></trkpt><trkpt lat="45.7108267" lon="9.5913967"><ele>231.25</ele><time>2026-04-25T09:47:12.902Z</time></trkpt><trkpt lat="45.71082" lon="9.5915717"><ele>231.0</ele><time>2026-04-25T09:47:13.906Z</time></trkpt><trkpt lat="45.7108067" lon="9.591765"><ele>231.0</ele><time>2026-04-25T09:47:14.906Z</time></trkpt><trkpt lat="45.7107867" lon="9.5919567"><ele>231.0</ele><time>2026-04-25T09:47:15.902Z</time></trkpt><trkpt lat="45.710775" lon="9.5921517"><ele>231.0</ele><time>2026-04-25T09:47:16.904Z</time></trkpt><trkpt lat="45.71077" lon="9.592355"><ele>231.0</ele><time>2026-04-25T09:47:17.904Z</time></trkpt><trkpt lat="45.7107633" lon="9.5925767"><ele>232.33333333333331</ele><time>2026-04-25T09:47:18.903Z</time></trkpt><trkpt lat="45.7107533" lon="9.59281"><ele>233.66666666666666</ele><time>2026-04-25T09:47:19.904Z</time></trkpt><trkpt lat="45.7107467" lon="9.5930467"><ele>235.0</ele><time>2026-04-25T09:47:20.904Z</time></trkpt><trkpt lat="45.7107383" lon="9.5932867"><ele>235.0</ele><time>2026-04-25T09:47:21.903Z</time></trkpt><trkpt lat="45.7107333" lon="9.59352"><ele>235.0</ele><time>2026-04-25T09:47:22.903Z</time></trkpt><trkpt lat="45.7107233" lon="9.59375"><ele>235.0</ele><time>2026-04-25T09:47:23.903Z</time></trkpt><trkpt lat="45.710715" lon="9.5939783"><ele>234.66666666666666</ele><time>2026-04-25T09:47:24.906Z</time></trkpt><trkpt lat="45.7107017" lon="9.5942117"><ele>234.33333333333331</ele><time>2026-04-25T09:47:25.903Z</time></trkpt><trkpt lat="45.7106883" lon="9.5944383"><ele>234.0</ele><time>2026-04-25T09:47:26.905Z</time></trkpt><trkpt lat="45.7106767" lon="9.5946533"><ele>234.5</ele><time>2026-04-25T09:47:27.906Z</time></trkpt><trkpt lat="45.710665" lon="9.5948633"><ele>235.0</ele><time>2026-04-25T09:47:28.906Z</time></trkpt><trkpt lat="45.710655" lon="9.5950667"><ele>235.5</ele><time>2026-04-25T09:47:29.906Z</time></trkpt><trkpt lat="45.7106517" lon="9.5952567"><ele>236.0</ele><time>2026-04-25T09:47:30.906Z</time></trkpt><trkpt lat="45.7106467" lon="9.5954467"><ele>236.75</ele><time>2026-04-25T09:47:31.906Z</time></trkpt><trkpt lat="45.71064" lon="9.59564"><ele>237.5</ele><time>2026-04-25T09:47:32.906Z</time></trkpt><trkpt lat="45.71063" lon="9.5958317"><ele>238.25</ele><time>2026-04-25T09:47:33.906Z</time></trkpt><trkpt lat="45.71062" lon="9.5960333"><ele>239.0</ele><time>2026-04-25T09:47:34.906Z</time></trkpt><trkpt lat="45.7106117" lon="9.596255"><ele>240.0</ele><time>2026-04-25T09:47:35.906Z</time></trkpt><trkpt lat="45.7106017" lon="9.5965"><ele>241.0</ele><time>2026-04-25T09:47:36.905Z</time></trkpt><trkpt lat="45.71059" lon="9.59676"><ele>242.0</ele><time>2026-04-25T09:47:37.906Z</time></trkpt><trkpt lat="45.71058" lon="9.597025"><ele>242.66666666666669</ele><time>2026-04-25T09:47:38.906Z</time></trkpt><trkpt lat="45.7105717" lon="9.5972933"><ele>243.33333333333331</ele><time>2026-04-25T09:47:39.906Z</time></trkpt><trkpt lat="45.7105633" lon="9.5975517"><ele>244.0</ele><time>2026-04-25T09:47:40.902Z</time></trkpt><trkpt lat="45.710555" lon="9.59779"><ele>244.0</ele><time>2026-04-25T09:47:41.905Z</time></trkpt><trkpt lat="45.7105467" lon="9.59802"><ele>244.0</ele><time>2026-04-25T09:47:42.904Z</time></trkpt><trkpt lat="45.7105383" lon="9.5982283"><ele>244.0</ele><time>2026-04-25T09:47:43.905Z</time></trkpt><trkpt lat="45.7105317" lon="9.5984217"><ele>244.0</ele><time>2026-04-25T09:47:44.905Z</time></trkpt><trkpt lat="45.7105267" lon="9.5985833"><ele>244.2</ele><time>2026-04-25T09:47:45.903Z</time></trkpt><trkpt lat="45.710535" lon="9.59871"><ele>244.39999999999998</ele><time>2026-04-25T09:47:46.905Z</time></trkpt><trkpt lat="45.710565" lon="9.5988133"><ele>244.6</ele><time>2026-04-25T09:47:47.904Z</time></trkpt><trkpt lat="45.7106217" lon="9.5989017"><ele>244.8</ele><time>2026-04-25T09:47:48.904Z</time></trkpt><trkpt lat="45.7107283" lon="9.5989517"><ele>245.0</ele><time>2026-04-25T09:47:49.904Z</time></trkpt><trkpt lat="45.7108683" lon="9.598985"><ele>245.0</ele><time>2026-04-25T09:47:50.904Z</time></trkpt><trkpt lat="45.7110117" lon="9.59903"><ele>245.0</ele><time>2026-04-25T09:47:51.904Z</time></trkpt><trkpt lat="45.71116" lon="9.5991017"><ele>245.0</ele><time>2026-04-25T09:47:52.904Z</time></trkpt><trkpt lat="45.7113533" lon="9.5991683"><ele>245.0</ele><time>2026-04-25T09:47:53.906Z</time></trkpt><trkpt lat="45.711535" lon="9.59926"><ele>245.0</ele><time>2026-04-25T09:47:54.904Z</time></trkpt><trkpt lat="45.7117283" lon="9.5993667"><ele>245.0</ele><time>2026-04-25T09:47:55.904Z</time></trkpt><trkpt lat="45.7119133" lon="9.5994767"><ele>245.66666666666669</ele><time>2026-04-25T09:47:56.905Z</time></trkpt><trkpt lat="45.7120833" lon="9.5995867"><ele>246.33333333333331</ele><time>2026-04-25T09:47:57.903Z</time></trkpt><trkpt lat="45.7122367" lon="9.5996883"><ele>247.0</ele><time>2026-04-25T09:47:58.905Z</time></trkpt><trkpt lat="45.7123633" lon="9.5997917"><ele>247.0</ele><time>2026-04-25T09:47:59.906Z</time></trkpt><trkpt lat="45.7124633" lon="9.59988"><ele>247.0</ele><time>2026-04-25T09:48:00.905Z</time></trkpt><trkpt lat="45.7125467" lon="9.5999667"><ele>247.0</ele><time>2026-04-25T09:48:01.906Z</time></trkpt><trkpt lat="45.7126183" lon="9.60003"><ele>247.0</ele><time>2026-04-25T09:48:02.906Z</time></trkpt><trkpt lat="45.71269" lon="9.60006"><ele>247.0</ele><time>2026-04-25T09:48:03.906Z</time></trkpt><trkpt lat="45.712765" lon="9.6000633"><ele>247.25</ele><time>2026-04-25T09:48:04.905Z</time></trkpt><trkpt lat="45.712855" lon="9.6000683"><ele>247.5</ele><time>2026-04-25T09:48:05.906Z</time></trkpt><trkpt lat="45.7129583" lon="9.6001033"><ele>247.75</ele><time>2026-04-25T09:48:06.906Z</time></trkpt><trkpt lat="45.71309" lon="9.600175"><ele>248.0</ele><time>2026-04-25T09:48:07.906Z</time></trkpt><trkpt lat="45.7132283" lon="9.6002667"><ele>248.66666666666669</ele><time>2026-04-25T09:48:08.906Z</time></trkpt><trkpt lat="45.71337" lon="9.6003633"><ele>249.33333333333331</ele><time>2026-04-25T09:48:09.906Z</time></trkpt><trkpt lat="45.7135117" lon="9.6004567"><ele>250.0</ele><time>2026-04-25T09:48:10.905Z</time></trkpt><trkpt lat="45.7136417" lon="9.600535"><ele>250.0</ele><time>2026-04-25T09:48:11.904Z</time></trkpt><trkpt lat="45.7137667" lon="9.6006067"><ele>250.0</ele><time>2026-04-25T09:48:12.905Z</time></trkpt><trkpt lat="45.7138983" lon="9.6006783"><ele>250.0</ele><time>2026-04-25T09:48:13.905Z</time></trkpt><trkpt lat="45.71404" lon="9.6007533"><ele>250.0</ele><time>2026-04-25T09:48:14.904Z</time></trkpt><trkpt lat="45.7141817" lon="9.6008317"><ele>250.0</ele><time>2026-04-25T09:48:15.903Z</time></trkpt><trkpt lat="45.7143167" lon="9.6009"><ele>250.0</ele><time>2026-04-25T09:48:16.904Z</time></trkpt><trkpt lat="45.714445" lon="9.60096"><ele>250.0</ele><time>2026-04-25T09:48:17.904Z</time></trkpt><trkpt lat="45.7145533" lon="9.6010517"><ele>250.0</ele><time>2026-04-25T09:48:18.866Z</time></trkpt><trkpt lat="45.7146817" lon="9.6010517"><ele>250.5</ele><time>2026-04-25T09:48:19.902Z</time></trkpt><trkpt lat="45.714815" lon="9.6010733"><ele>251.0</ele><time>2026-04-25T09:48:20.902Z</time></trkpt><trkpt lat="45.714965" lon="9.6010933"><ele>251.5</ele><time>2026-04-25T09:48:21.902Z</time></trkpt><trkpt lat="45.7151267" lon="9.60111"><ele>252.0</ele><time>2026-04-25T09:48:22.903Z</time></trkpt><trkpt lat="45.7152967" lon="9.6011217"><ele>253.33333333333331</ele><time>2026-04-25T09:48:23.903Z</time></trkpt><trkpt lat="45.7154683" lon="9.6011267"><ele>254.66666666666666</ele><time>2026-04-25T09:48:24.903Z</time></trkpt><trkpt lat="45.7156367" lon="9.6011267"><ele>256.0</ele><time>2026-04-25T09:48:25.903Z</time></trkpt><trkpt lat="45.7157983" lon="9.6011367"><ele>256.0</ele><time>2026-04-25T09:48:26.902Z</time></trkpt><trkpt lat="45.7159567" lon="9.601155"><ele>256.0</ele><time>2026-04-25T09:48:27.903Z</time></trkpt><trkpt lat="45.7161083" lon="9.60117"><ele>256.0</ele><time>2026-04-25T09:48:28.903Z</time></trkpt><trkpt lat="45.7162483" lon="9.6011767"><ele>256.75</ele><time>2026-04-25T09:48:29.903Z</time></trkpt><trkpt lat="45.716375" lon="9.6011783"><ele>257.5</ele><time>2026-04-25T09:48:30.903Z</time></trkpt><trkpt lat="45.7165017" lon="9.60118"><ele>258.25</ele><time>2026-04-25T09:48:31.907Z</time></trkpt><trkpt lat="45.7166317" lon="9.6011783"><ele>259.0</ele><time>2026-04-25T09:48:32.903Z</time></trkpt><trkpt lat="45.7167733" lon="9.6011867"><ele>258.75</ele><time>2026-04-25T09:48:33.903Z</time></trkpt><trkpt lat="45.7169267" lon="9.6011933"><ele>258.5</ele><time>2026-04-25T09:48:34.902Z</time></trkpt><trkpt lat="45.7170717" lon="9.6012067"><ele>258.25</ele><time>2026-04-25T09:48:35.902Z</time></trkpt><trkpt lat="45.717205" lon="9.6012167"><ele>258.0</ele><time>2026-04-25T09:48:36.903Z</time></trkpt><trkpt lat="45.717325" lon="9.6012333"><ele>258.0</ele><time>2026-04-25T09:48:37.903Z</time></trkpt><trkpt lat="45.7174283" lon="9.6012583"><ele>258.0</ele><time>2026-04-25T09:48:38.904Z</time></trkpt><trkpt lat="45.717515" lon="9.6012967"><ele>258.0</ele><time>2026-04-25T09:48:39.903Z</time></trkpt><trkpt lat="45.71766" lon="9.601205"><ele>258.0</ele><time>2026-04-25T09:48:42.402Z</time></trkpt><trkpt lat="45.71796" lon="9.6011117"><ele>258.0</ele><time>2026-04-25T09:48:43.308Z</time></trkpt><trkpt lat="45.7180233" lon="9.6011733"><ele>258.0</ele><time>2026-04-25T09:48:44.572Z</time></trkpt><trkpt lat="45.71823" lon="9.6011067"><ele>258.0</ele><time>2026-04-25T09:48:45.904Z</time></trkpt><trkpt lat="45.7183867" lon="9.6010933"><ele>258.0</ele><time>2026-04-25T09:48:46.902Z</time></trkpt><trkpt lat="45.718535" lon="9.601095"><ele>257.6666666666667</ele><time>2026-04-25T09:48:47.903Z</time></trkpt><trkpt lat="45.7186733" lon="9.601105"><ele>257.33333333333337</ele><time>2026-04-25T09:48:48.902Z</time></trkpt><trkpt lat="45.718865" lon="9.6010783"><ele>257.0</ele><time>2026-04-25T09:48:49.985Z</time></trkpt><trkpt lat="45.7190267" lon="9.6011233"><ele>259.5</ele><time>2026-04-25T09:48:51.406Z</time></trkpt><trkpt lat="45.7193267" lon="9.6014217"><ele>262.0</ele><time>2026-04-25T09:48:53.119Z</time></trkpt><trkpt lat="45.7195283" lon="9.6012617"><ele>262.0</ele><time>2026-04-25T09:48:54.403Z</time></trkpt><trkpt lat="45.7197833" lon="9.60131"><ele>262.0</ele><time>2026-04-25T09:48:55.902Z</time></trkpt><trkpt lat="45.71992" lon="9.6013233"><ele>262.0</ele><time>2026-04-25T09:48:56.904Z</time></trkpt><trkpt lat="45.7200367" lon="9.6013383"><ele>262.0</ele><time>2026-04-25T09:48:57.902Z</time></trkpt><trkpt lat="45.72013" lon="9.6013533"><ele>262.0</ele><time>2026-04-25T09:48:58.903Z</time></trkpt><trkpt lat="45.7202433" lon="9.60137"><ele>262.0</ele><time>2026-04-25T09:48:59.903Z</time></trkpt><trkpt lat="45.7203633" lon="9.6013917"><ele>262.0</ele><time>2026-04-25T09:49:00.903Z</time></trkpt><trkpt lat="45.720495" lon="9.601415"><ele>263.0</ele><time>2026-04-25T09:49:01.901Z</time></trkpt><trkpt lat="45.7206333" lon="9.6014417"><ele>264.0</ele><time>2026-04-25T09:49:02.903Z</time></trkpt><trkpt lat="45.720785" lon="9.6014717"><ele>265.0</ele><time>2026-04-25T09:49:03.902Z</time></trkpt><trkpt lat="45.7209433" lon="9.6015117"><ele>264.5</ele><time>2026-04-25T09:49:04.903Z</time></trkpt><trkpt lat="45.7210983" lon="9.60155"><ele>264.0</ele><time>2026-04-25T09:49:05.903Z</time></trkpt><trkpt lat="45.7212467" lon="9.6015867"><ele>263.5</ele><time>2026-04-25T09:49:06.903Z</time></trkpt><trkpt lat="45.72138" lon="9.60162"><ele>263.0</ele><time>2026-04-25T09:49:07.903Z</time></trkpt><trkpt lat="45.7214983" lon="9.601645"><ele>263.0</ele><time>2026-04-25T09:49:08.905Z</time></trkpt><trkpt lat="45.7215983" lon="9.6016683"><ele>263.0</ele><time>2026-04-25T09:49:09.902Z</time></trkpt><trkpt lat="45.7216783" lon="9.6017"><ele>263.0</ele><time>2026-04-25T09:49:10.903Z</time></trkpt></trkseg></trk></gpx>